[[{"header":{"parameterUnit":"m.s-1","parameterCategory":1,"la1":30.6,"la2":28.766,"lo1":-90.7593,"lo2":-88.6598,"dy":0.0162,"dx":0.0183,"nx":116,"ny":114,"refTime":"2023-07-30T06:00:00:Z","depth":0,"parameterNumber":2,"parameterNumberName":"U-component_of_WINDS"},"data":[0.0,0.0,0.0,0.0,0.0,0.0,0.0,0.0,0.0,0.0,0.0,0.0,0.0,0.0,0.0,0.0,0.0,0.0,0.0,0.0,0.0,0.0,0.0,0.0,0.0,0.0,0.0,0.0,0.0,0.0,0.0,0.0,0.0,0.0,0.0,0.0,0.0,0.0,0.0,0.0,0.0,0.0,0.0,0.0,0.0,0.0,0.0,0.0,0.0,0.0,0.0,0.0,0.0,0.0,0.0,0.0,0.0,0.0,0.0,0.0,0.0,0.0,0.0,0.0,0.0,0.0,0.0,0.0,0.0,0.0,0.0,0.0,0.0,0.0,0.0,0.0,0.0,0.0,0.0,0.0,0.0,0.0,0.0,0.0,0.0,0.0,0.0,0.0,0.0,0.0,0.0,0.0,0.0,0.0,0.0,0.0,0.0,0.0,0.0,0.0,0.0,0.0,0.0,0.0,0.0,0.0,0.0,0.0,0.0,0.0,0.0,0.0,0.0,0.0,0.0,0.0,0.0,0.0,0.0,0.0,0.0,0.0,0.0,0.0,0.0,0.0,0.0,0.0,0.0,0.0,0.0,0.0,0.0,0.0,0.0,0.0,0.0,0.0,0.0,0.0,0.0,0.0,0.0,0.0,0.0,0.0,0.0,0.0,0.0,0.0,0.0,0.0,0.0,0.0,0.0,0.0,0.0,0.0,0.0,0.0,0.0,0.0,0.0,0.0,0.0,0.0,0.0,0.0,0.0,0.0,0.0,0.0,0.0,0.0,0.0,0.0,0.0,0.0,0.0,0.0,0.0,0.0,0.0,0.0,0.0,0.0,0.0,0.0,0.0,0.0,0.0,0.0,0.0,0.0,0.0,0.0,0.0,0.0,0.0,0.0,0.0,0.0,0.0,0.0,0.0,0.0,0.0,0.0,0.0,0.0,0.0,0.0,0.0,0.0,0.0,0.0,0.0,0.0,0.0,0.0,0.0,0.0,0.0,0.0,0.0,0.0,0.0,0.0,0.0,0.0,0.0,0.0,0.0,0.0,0.0,0.0,0.0,0.0,0.0,0.0,0.0,0.0,0.0,0.0,0.0,0.0,0.0,0.0,0.0,0.0,0.0,0.0,0.0,0.0,0.0,0.0,0.0,0.0,0.0,0.0,0.0,0.0,0.0,0.0,0.0,0.0,0.0,0.0,0.0,0.0,0.0,0.0,0.0,0.0,0.0,0.0,0.0,0.0,0.0,0.0,0.0,0.0,0.0,0.0,0.0,0.0,0.0,0.0,0.0,0.0,0.0,0.0,0.0,0.0,0.0,0.0,0.0,0.0,0.0,0.0,0.0,0.0,0.0,0.0,0.0,0.0,0.0,0.0,0.0,0.0,0.0,0.0,0.0,0.0,0.0,0.0,0.0,0.0,0.0,0.0,0.0,0.0,0.0,0.0,0.0,0.0,0.0,0.0,0.0,0.0,0.0,0.0,0.0,0.0,0.0,0.0,0.0,0.0,0.0,0.0,0.0,0.0,0.0,0.0,0.0,0.0,0.0,0.0,0.0,0.0,0.0,0.0,0.0,0.0,0.0,0.0,0.0,0.0,0.0,0.0,0.0,0.0,0.0,0.0,0.0,0.0,0.0,0.0,0.0,0.0,0.0,0.0,0.0,0.0,0.0,0.0,0.0,0.0,0.0,0.0,0.0,0.0,0.0,0.0,0.0,0.0,0.0,0.0,0.0,0.0,0.0,0.0,0.0,0.0,0.0,0.0,0.0,0.0,0.0,0.0,0.0,0.0,0.0,0.0,0.0,0.0,0.0,0.0,0.0,0.0,0.0,0.0,0.0,0.0,0.0,0.0,0.0,0.0,0.0,0.0,0.0,0.0,0.0,0.0,0.0,0.0,0.0,0.0,0.0,0.0,0.0,0.0,0.0,0.0,0.0,0.0,0.0,0.0,0.0,0.0,0.0,0.0,0.0,0.0,0.0,0.0,0.0,0.0,0.0,0.0,0.0,0.0,0.0,0.0,0.0,0.0,0.0,0.0,0.0,0.0,0.0,0.0,0.0,0.0,0.0,0.0,0.0,0.0,0.0,0.0,0.0,0.0,0.0,0.0,0.0,0.0,0.0,0.0,0.0,0.0,0.0,0.0,0.0,0.0,0.0,0.0,0.0,0.0,0.0,0.0,0.0,0.0,0.0,0.0,0.0,0.0,0.0,0.0,0.0,0.0,0.0,0.0,0.0,0.0,0.0,0.0,0.0,0.0,0.0,0.0,0.0,0.0,0.0,0.0,0.0,0.0,0.0,0.0,0.0,0.0,0.0,0.0,0.0,0.0,0.0,0.0,0.0,0.0,0.0,0.0,0.0,0.0,0.0,0.0,0.0,0.0,0.0,0.0,0.0,0.0,0.0,0.0,0.0,0.0,0.0,0.0,0.0,0.0,0.0,0.0,0.0,0.0,0.0,0.0,0.0,0.0,0.0,0.0,0.0,0.0,0.0,0.0,0.0,0.0,0.0,0.0,0.0,0.0,0.0,0.0,0.0,0.0,0.0,0.0,0.0,0.0,0.0,0.0,0.0,0.0,0.0,0.0,0.0,0.0,0.0,0.0,0.0,0.0,0.0,0.0,0.0,0.0,0.0,0.0,0.0,0.0,0.0,0.0,0.0,0.0,0.0,0.0,0.0,0.0,0.0,0.0,0.0,0.0,0.0,0.0,0.0,0.0,0.0,0.0,0.0,0.0,0.0,0.0,0.0,0.0,0.0,0.0,0.0,0.0,0.0,0.0,0.0,0.0,0.0,0.0,0.0,0.0,0.0,0.0,0.0,0.0,0.0,0.0,0.0,0.0,0.0,0.0,0.0,0.0,0.0,0.0,0.0,0.0,0.0,0.0,0.0,0.0,0.0,0.0,0.0,0.0,0.0,0.0,0.0,0.0,0.0,0.0,0.0,0.0,0.0,0.0,0.0,0.0,0.0,0.0,0.0,0.0,0.0,0.0,0.0,0.0,0.0,0.0,0.0,0.0,0.0,0.0,0.0,0.0,0.0,0.0,0.0,0.0,0.0,0.0,0.0,0.0,0.0,0.0,0.0,0.0,0.0,0.0,0.0,0.0,0.0,0.0,0.0,0.0,0.0,0.0,0.0,0.0,0.0,0.0,0.0,0.0,0.0,0.0,0.0,0.0,0.0,0.0,0.0,0.0,0.0,0.0,0.0,0.0,0.0,0.0,0.0,0.0,0.0,0.0,0.0,0.0,0.0,0.0,0.0,0.0,0.0,0.0,0.0,0.0,0.0,0.0,0.0,0.0,0.0,0.0,0.0,0.0,0.0,0.0,0.0,0.0,0.0,0.0,0.0,0.0,0.0,0.0,0.0,0.0,0.0,0.0,0.0,0.0,0.0,0.0,0.0,0.0,0.0,0.0,0.0,0.0,0.0,0.0,0.0,0.0,0.0,0.0,0.0,0.0,0.0,0.0,0.0,0.0,0.0,0.0,0.0,0.0,0.0,0.0,0.0,0.0,0.0,0.0,0.0,0.0,0.0,0.0,0.0,0.0,0.0,0.0,0.0,0.0,0.0,0.0,0.0,0.0,0.0,0.0,0.0,0.0,0.0,0.0,0.0,0.0,0.0,0.0,0.0,0.0,0.0,0.0,0.0,0.0,0.0,0.0,0.0,0.0,0.0,0.0,0.0,0.0,0.0,0.0,0.0,0.0,0.0,0.0,0.0,0.0,0.0,0.0,0.0,0.0,0.0,0.0,0.0,0.0,0.0,0.0,0.0,0.0,0.0,0.0,0.0,0.0,0.0,0.0,0.0,0.0,0.0,0.0,0.0,0.0,0.0,0.0,0.0,0.0,0.0,0.0,0.0,0.0,0.0,0.0,0.0,0.0,0.0,0.0,0.0,0.0,0.0,0.0,0.0,0.0,0.0,0.0,0.0,0.0,0.0,0.0,0.0,0.0,0.0,0.0,0.0,0.0,0.0,0.0,0.0,0.0,0.0,0.0,0.0,0.0,0.0,0.0,0.0,0.0,0.0,0.0,0.0,0.0,0.0,0.0,0.0,0.0,0.0,0.0,0.0,0.0,0.0,0.0,0.0,0.0,0.0,0.0,0.0,0.0,0.0,0.0,0.0,0.0,0.0,0.0,0.0,0.0,0.0,0.0,0.0,0.0,0.0,0.0,0.0,0.0,0.0,0.0,0.0,0.0,0.0,0.0,0.0,0.0,0.0,0.0,0.0,0.0,0.0,0.0,0.0,0.0,0.0,0.0,0.0,0.0,0.0,0.0,0.0,0.0,0.0,0.0,0.0,0.0,0.0,0.0,0.0,0.0,0.0,0.0,0.0,0.0,0.0,0.0,0.0,0.0,0.0,0.0,0.0,0.0,0.0,0.0,0.0,0.0,0.0,0.0,0.0,0.0,0.0,0.0,0.0,0.0,0.0,0.0,0.0,0.0,0.0,0.0,0.0,0.0,0.0,0.0,0.0,0.0,0.0,0.0,0.0,0.0,0.0,0.0,0.0,0.0,0.0,0.0,0.0,0.0,0.0,0.0,0.0,0.0,0.0,0.0,0.0,0.0,0.0,0.0,0.0,0.0,0.0,0.0,0.0,0.0,0.0,0.0,0.0,0.0,0.0,0.0,0.0,0.0,0.0,0.0,0.0,0.0,0.0,0.0,0.0,0.0,0.0,0.0,0.0,0.0,0.0,0.0,0.0,0.0,0.0,0.0,0.0,0.0,0.0,0.0,0.0,0.0,0.0,0.0,0.0,0.0,0.0,0.0,0.0,0.0,0.0,0.0,0.0,0.0,0.0,0.0,0.0,0.0,0.0,0.0,0.0,0.0,0.0,0.0,0.0,0.0,0.0,0.0,0.0,0.0,0.0,0.0,0.0,0.0,0.0,0.0,0.0,0.0,0.0,0.0,0.0,0.0,0.0,0.0,0.0,0.0,0.0,0.0,0.0,0.0,0.0,0.0,0.0,0.0,0.0,0.0,0.0,0.0,0.0,0.0,0.0,0.0,0.0,0.0,0.0,0.0,0.0,0.0,0.0,0.0,0.0,0.0,0.0,0.0,0.0,0.0,0.0,0.0,0.0,0.0,0.0,0.0,0.0,0.0,0.0,0.0,0.0,0.0,0.0,0.0,0.0,0.0,0.0,0.0,0.0,0.0,0.0,0.0,0.0,0.0,0.0,0.0,0.0,0.0,0.0,0.0,0.0,0.0,0.0,0.0,0.0,0.0,0.0,0.0,0.0,0.0,0.0,0.0,0.0,0.0,0.0,0.0,0.0,0.0,0.0,0.0,0.0,0.0,0.0,0.0,0.0,0.0,0.0,0.0,0.0,0.0,0.0,0.0,0.0,0.0,0.0,0.0,0.0,0.0,0.0,0.0,0.0,0.0,0.0,0.0,0.0,0.0,0.0,0.0,0.0,0.0,0.0,0.0,0.0,0.0,0.0,0.0,0.0,0.0,0.0,0.0,0.0,0.0,0.0,0.0,0.0,0.0,0.0,0.0,0.0,0.0,0.0,0.0,0.0,0.0,0.0,0.0,0.0,0.0,0.0,0.0,0.0,0.0,0.0,0.0,0.0,0.0,0.0,0.0,0.0,0.0,0.0,0.0,0.0,0.0,0.0,0.0,0.0,0.0,0.0,0.0,0.0,0.0,0.0,0.0,0.0,0.0,0.0,0.0,0.0,0.0,0.0,0.0,0.0,0.0,0.0,0.0,0.0,0.0,0.0,0.0,0.0,0.0,0.0,0.0,0.0,0.0,0.0,0.0,0.0,0.0,0.0,0.0,0.0,0.0,0.0,0.0,0.0,0.0,0.0,0.0,0.0,0.0,0.0,0.0,0.0,0.0,0.0,0.0,0.0,0.0,0.0,0.0,0.0,0.0,0.0,0.0,0.0,0.0,0.0,0.0,0.0,0.0,0.0,0.0,0.0,0.0,0.0,0.0,0.0,0.0,0.0,0.0,0.0,0.0,0.0,0.0,0.0,0.0,0.0,0.0,0.0,0.0,0.0,0.0,0.0,0.0,0.0,0.0,0.0,0.0,0.0,0.0,0.0,0.0,0.0,0.0,0.0,0.0,0.0,0.0,0.0,0.0,0.0,0.0,-0.1557,0.0,0.0,0.0,0.0,0.0,0.0,0.0,0.0,0.0,0.0,0.0,0.0,0.0,0.0,0.0,0.0,0.0,0.0,0.0,0.0,0.0,0.0,0.0,0.0,0.0,0.0,0.0,0.0,0.0,0.0,0.0,0.0,0.0,0.0,0.0,0.0,0.0,0.0,0.0,0.0,0.0,0.0,0.0,0.0,0.0,0.0,0.0,0.0,0.0,0.0,0.0,0.0,0.0,0.0,0.0,0.0,0.0,0.0,0.0,0.0,0.0,0.0,0.0,0.0,0.0,0.0,0.0,0.0,0.0,0.0,0.0,0.0,0.0,0.0,0.0,0.0,0.0,0.0,0.0,0.0,0.0,0.0,0.0,0.0,0.0,0.0,0.0,0.0,0.0,0.0,0.0,0.0,0.0,0.0,0.0,0.0,0.0,0.0,0.0,0.0,0.0,0.0,0.0,0.0,0.0,0.0,0.0,0.0,0.0,0.0,0.0,0.0,0.0,0.0,0.0,0.0,-0.2199,0.0,0.0,0.0,0.0,0.0,0.0,0.0,0.0,0.0,0.0,0.0,0.0,0.0,0.0,0.0,0.0,0.0,0.0,0.0,0.0,0.0,0.0,0.0,0.0,0.0,0.0,0.0,0.0,0.0,0.0,0.0,0.0,0.0,0.0,0.0,0.0,0.0,0.0,0.0,0.0,0.0,0.0,0.0,0.0,0.0,0.0,0.0,0.0,0.0,0.0,0.0,0.0,0.0,0.0,0.0,0.0,0.0,0.0,0.0,0.0,0.0,0.0,0.0,0.0,0.0,0.0,0.0,0.0,0.0,0.0,0.0,0.0,0.0,0.0,0.0,0.0,0.0,0.0,0.0,0.0,0.0,0.0,0.0,0.0,0.0,0.0,0.0,0.0,0.0,0.0,0.0,0.0,0.0,0.0,0.0,0.0,0.0,0.0,0.0,0.0,0.0,0.0,0.0,0.0,0.0,0.0,0.0,0.0,-0.427,-0.4363,-0.4365,-0.4896,-0.4854,-0.4312,-0.399,-0.3504,-0.2887,-0.2629,0.0,0.0,0.0,0.0,0.0,0.0,0.0,0.0,0.0,0.0,0.0,0.0,0.0,0.0,0.0,0.0,0.0,0.0,0.0,0.0,0.0,0.0,0.0,0.0,0.0,0.0,0.0,0.0,0.0,0.0,0.0,0.0,0.0,0.0,0.0,0.0,0.0,0.0,-0.647,-0.6638,-0.6321,-0.5687,-0.6835,0.0,0.0,0.0,0.0,0.0,0.0,0.0,0.0,0.0,0.0,0.0,0.0,0.0,0.0,0.0,0.0,0.0,0.0,0.0,0.0,0.0,0.0,0.0,0.0,0.0,0.0,0.0,0.0,0.0,0.0,0.0,0.0,0.0,0.0,0.0,0.0,0.0,0.0,0.0,0.0,0.0,0.0,0.0,-0.3534,-0.302,0.0,0.0,0.0,0.0,0.0,0.0,0.0,0.0,0.0,0.0,0.0,0.0,0.0,-0.4216,-0.4128,-0.4308,-0.4444,-0.4444,-0.4885,-0.511,-0.5204,-0.5683,-0.5922,-0.5826,-0.5794,0.0,-0.4112,-0.2776,0.0,0.0,0.0,0.0,0.0,0.0,0.0,0.0,0.0,0.0,0.0,0.0,0.0,0.0,0.0,0.0,0.0,0.0,0.0,0.0,0.0,0.0,0.0,0.0,0.0,0.0,0.0,0.0,0.0,0.0,0.0,0.0,0.0,0.0,0.0,0.0,-0.7053,-0.7215,-0.7131,-0.721,-0.7326,-0.7399,-0.7936,-0.7399,-0.6173,-0.6173,0.0,0.0,0.0,0.0,0.0,0.0,0.0,0.0,0.0,0.0,0.0,0.0,0.0,0.0,0.0,0.0,0.0,0.0,0.0,0.0,0.0,0.0,0.0,0.0,0.0,0.0,0.0,0.0,0.0,0.0,0.0,0.0,0.0,0.0,0.0,0.0,0.0,0.0,0.0,-0.3109,-0.331,-0.2857,-0.3037,-0.3042,0.0,0.0,0.0,0.0,0.0,0.0,0.0,0.0,0.0,-0.3832,-0.409,-0.4405,-0.4853,-0.4954,-0.5099,-0.5376,-0.5611,-0.5727,-0.573,-0.6037,-0.6189,-0.6192,-0.6255,-0.6029,-0.5436,-0.4346,-0.3696,-0.3476,0.0,0.0,0.0,0.0,-0.3305,-0.3305,0.0,0.0,0.0,0.0,0.0,0.0,0.0,0.0,0.0,0.0,0.0,0.0,0.0,0.0,0.0,-0.6398,0.0,0.0,0.0,0.0,0.0,0.0,0.0,0.0,0.0,0.0,0.0,0.0,-0.7267,-0.7484,-0.7783,-0.7783,-0.7961,-0.8313,-0.8313,-0.7541,-0.6308,-0.6383,-0.6329,0.0,0.0,0.0,0.0,0.0,0.0,0.0,0.0,0.0,0.0,0.0,0.0,0.0,0.0,0.0,0.0,0.0,0.0,0.0,0.0,0.0,0.0,0.0,0.0,0.0,0.0,0.0,0.0,0.0,0.0,0.0,0.0,0.0,0.0,0.0,0.0,0.0,0.0,-0.3179,-0.3381,-0.2768,-0.3117,-0.3292,0.0,0.0,0.0,0.0,0.0,0.0,-0.3789,-0.382,-0.4164,-0.4732,-0.4734,-0.4971,-0.5533,-0.5546,-0.5792,-0.6176,-0.6176,-0.6176,-0.6179,-0.6271,-0.6312,-0.6317,-0.6399,-0.6437,-0.631,-0.5613,-0.5073,-0.4637,-0.4499,-0.4478,-0.4389,-0.448,-0.448,-0.4478,0.0,0.0,0.0,0.0,0.0,0.0,0.0,0.0,0.0,0.0,0.0,0.0,0.0,0.0,-0.694,-0.694,-0.7019,-0.6804,0.0,0.0,0.0,0.0,0.0,0.0,0.0,0.0,0.0,-0.7169,-0.7553,-0.7783,-0.7783,-0.7783,-0.7639,-0.7247,-0.7247,-0.7644,-0.8207,-0.8053,-0.7909,-0.7636,0.0,0.0,0.0,0.0,0.0,0.0,0.0,0.0,0.0,0.0,0.0,0.0,0.0,0.0,0.0,0.0,0.0,0.0,0.0,0.0,0.0,0.0,0.0,0.0,0.0,0.0,0.0,0.0,0.0,0.0,0.0,0.0,0.0,0.0,0.0,0.0,0.0,0.0,0.0,-0.3421,-0.3787,0.0,0.0,0.0,0.0,-0.4355,-0.4372,-0.4416,-0.4503,-0.4975,-0.5208,-0.531,-0.5898,-0.6249,-0.6249,-0.6265,-0.6318,-0.6418,-0.6418,-0.6418,-0.642,-0.6426,-0.6429,-0.6429,-0.6434,-0.6437,-0.6318,-0.5699,-0.5317,-0.5009,-0.4639,-0.4297,-0.3939,-0.4389,-0.4389,-0.4297,0.0,0.0,0.0,0.0,0.0,0.0,0.0,0.0,0.0,0.0,0.0,0.0,0.0,-0.7011,-0.7561,-0.7561,-0.789,-0.7877,-0.7322,0.0,0.0,0.0,0.0,0.0,0.0,0.0,-0.7176,-0.7557,-0.7706,-0.7846,-0.7969,-0.7969,-0.8224,-0.8559,-0.8559,-0.8796,-0.9082,-0.8294,-0.7788,-0.7593,-0.7364,-0.6792,0.0,0.0,0.0,0.0,0.0,0.0,0.0,0.0,0.0,0.0,0.0,0.0,0.0,0.0,0.0,0.0,0.0,0.0,0.0,0.0,0.0,0.0,0.0,0.0,0.0,0.0,0.0,0.0,0.0,0.0,0.0,0.0,0.0,0.0,0.0,0.0,0.0,-0.407,-0.4528,0.0,-0.4214,-0.4146,-0.4267,-0.4478,-0.4593,-0.4769,-0.5179,-0.5398,-0.5681,-0.6018,-0.5958,-0.5981,-0.6377,-0.6016,-0.6073,-0.6554,-0.6554,-0.6594,-0.6671,-0.6671,-0.6671,-0.6671,-0.6671,-0.6671,-0.6665,-0.6376,-0.6152,-0.5909,-0.5734,-0.5605,-0.5506,-0.5701,-0.5701,-0.5615,0.0,0.0,0.0,0.0,0.0,0.0,0.0,0.0,0.0,0.0,0.0,-0.658,-0.678,-0.7633,-0.8202,-0.8202,-0.8472,-0.8387,-0.7742,0.0,0.0,0.0,0.0,0.0,0.0,-0.7257,-0.7407,-0.7783,-0.7846,-0.8099,-0.8392,-0.8453,-0.8828,-0.9431,-0.9431,-0.9549,-0.9653,-0.8915,-0.8443,-0.8354,-0.8209,-0.7533,-0.6692,0.0,0.0,0.0,0.0,0.0,0.0,0.0,0.0,0.0,0.0,0.0,0.0,0.0,0.0,0.0,0.0,0.0,0.0,0.0,0.0,0.0,0.0,0.0,0.0,0.0,0.0,0.0,0.0,0.0,0.0,0.0,0.0,0.0,0.0,0.0,-0.4621,-0.4476,-0.4956,-0.5198,-0.4856,-0.4878,-0.4912,-0.5127,-0.5258,-0.5434,-0.582,-0.5859,-0.6052,-0.6497,-0.6093,-0.6111,-0.6559,-0.6152,-0.619,-0.6681,-0.6681,-0.6722,-0.6801,-0.6801,-0.6801,-0.6801,-0.6801,-0.6801,-0.6801,-0.6801,-0.6706,-0.6559,-0.6559,-0.6559,-0.6559,-0.6559,-0.6559,-0.657,0.0,0.0,0.0,0.0,0.0,0.0,0.0,0.0,0.0,0.0,-0.6698,-0.7237,-0.7859,-0.8355,-0.8703,-0.8703,-0.8703,-0.8312,-0.7376,-0.7458,0.0,0.0,0.0,0.0,-0.7257,-0.7257,-0.7407,-0.7859,-0.8055,-0.8392,-0.9039,-0.9237,-0.9445,-0.9573,-0.9573,-0.9767,-1.0038,-1.0038,-1.0038,-0.9932,-0.9051,-0.8377,-0.7673,0.0,0.0,0.0,0.0,0.0,0.0,0.0,0.0,0.0,0.0,0.0,0.0,0.0,0.0,0.0,0.0,0.0,0.0,0.0,0.0,0.0,0.0,0.0,0.0,0.0,0.0,0.0,0.0,0.0,0.0,0.0,0.0,0.0,-0.3553,-0.4539,-0.5141,-0.4598,-0.503,-0.5434,-0.5531,-0.5627,-0.5829,-0.6331,-0.6442,-0.6442,-0.6448,-0.6448,-0.6502,-0.6622,-0.6624,-0.6681,-0.6801,-0.6801,-0.6804,-0.6806,-0.6806,-0.6809,-0.6815,-0.6815,-0.6815,-0.6815,-0.6815,-0.6815,-0.6815,-0.6815,-0.6815,-0.6812,-0.6804,-0.6801,-0.6801,-0.6801,-0.6804,-0.6806,0.0,0.0,0.0,0.0,0.0,0.0,0.0,0.0,0.0,0.0,-0.6838,-0.7237,-0.7859,-0.8355,-0.8703,-0.8703,-0.8703,-0.8523,-0.8094,0.0,0.0,0.0,0.0,0.0,-0.7872,-0.771,-0.794,-0.8475,-0.8682,-0.8936,-0.9247,-0.946,-0.9667,-0.9866,-0.9866,-0.9899,-1.0038,-1.0038,-1.0038,-0.9946,-0.9716,-0.9176,-0.845,0.0,0.0,0.0,0.0,0.0,0.0,0.0,0.0,0.0,0.0,0.0,0.0,0.0,0.0,0.0,0.0,0.0,0.0,0.0,0.0,0.0,0.0,0.0,0.0,0.0,0.0,0.0,0.0,0.0,0.0,0.0,0.0,-0.5007,-0.4977,-0.5232,-0.5521,-0.5838,-0.6005,-0.6142,-0.6145,-0.6174,-0.6239,-0.6559,-0.6567,-0.6608,-0.6698,-0.6703,-0.6717,-0.6752,-0.6752,-0.6768,-0.6801,-0.6801,-0.6847,-0.6934,-0.6934,-0.6978,-0.7056,-0.7056,-0.7056,-0.7056,-0.7056,-0.7056,-0.7056,-0.7056,-0.7056,-0.704,-0.6869,-0.6801,-0.6801,-0.6801,-0.6858,-0.6934,0.0,0.0,0.0,0.0,0.0,0.0,0.0,0.0,0.0,0.0,-0.6958,-0.7339,-0.8123,-0.8477,-0.8703,-0.8703,-0.8551,-0.8327,-0.8021,0.0,0.0,0.0,0.0,-0.7795,-0.8327,-0.8246,-0.8318,-0.8703,-0.9001,-0.9209,-0.9332,-0.9634,-0.9838,-1.0038,-1.0038,-1.0038,-1.0038,-1.0038,-1.0038,-1.0038,-1.0038,-0.9529,-0.8824,-0.9,-0.8539,-0.7708,-0.8042,-0.7994,-0.7749,-0.7566,0.0,0.0,0.0,0.0,0.0,0.0,0.0,0.0,0.0,0.0,0.0,0.0,0.0,0.0,0.0,0.0,0.0,0.0,0.0,0.0,0.0,0.0,0.0,0.0,-0.6078,-0.6553,-0.6804,-0.662,-0.6672,-0.7313,-0.7184,-0.7015,-0.7015,-0.6763,-0.6619,-0.669,-0.6695,-0.6728,-0.6798,-0.6801,-0.6825,-0.6877,-0.6877,-0.6902,-0.6948,-0.695,-0.6986,-0.7056,-0.7056,-0.7312,-0.7709,-0.7709,-0.7928,-0.8257,-0.8257,-0.8257,-0.8257,-0.8257,-0.8257,0.0,0.0,0.0,0.0,0.0,-0.6994,-0.7166,0.0,0.0,0.0,0.0,0.0,0.0,0.0,0.0,0.0,0.0,0.0,-0.7449,-0.858,-0.8703,-0.8689,-0.867,-0.8313,-0.7949,0.0,0.0,0.0,-0.8102,-0.8178,-0.8327,-0.8699,-0.8703,-0.8703,-0.8703,-0.9119,-0.9322,-0.9332,-0.9757,-1.0038,-1.0038,-1.0038,-1.0038,-1.0038,-1.0038,-1.0038,-1.0038,-1.0038,-0.9598,-0.9065,-0.951,-0.9057,-0.8308,-0.8909,-0.88,-0.8321,-0.8461,0.0,0.0,0.0,0.0,0.0,0.0,0.0,0.0,0.0,0.0,0.0,0.0,0.0,0.0,0.0,0.0,0.0,0.0,0.0,0.0,0.0,0.0,0.0,0.0,-0.7746,-0.8293,-0.8954,-0.8279,-0.7972,-0.8656,-0.8187,-0.7766,-0.7667,-0.7157,-0.6806,-0.6823,-0.6823,-0.6828,-0.6948,0.0,0.0,0.0,0.0,-0.7379,-0.7485,-0.7485,-0.7485,-0.7485,-0.7485,-0.7928,-0.8595,-0.8595,-0.903,-0.9798,-0.9798,-0.9798,-0.9798,-0.9798,-0.9798,-0.9688,-0.8146,-0.7485,-0.7485,-0.7485,-0.7485,-0.7595,0.0,0.0,0.0,0.0,0.0,0.0,0.0,0.0,0.0,-0.7311,-0.717,-0.7449,-0.858,-0.8703,-0.8637,-0.8477,-0.8387,-0.8174,0.0,0.0,-0.8097,-0.8102,-0.8403,-0.8627,-0.8703,-0.8703,-0.8703,-0.8703,-0.9119,-0.9322,-0.9332,-0.9757,-1.0038,-1.0038,-1.0038,-1.0038,-1.0038,-1.0038,-1.0038,-1.0038,-1.0038,-0.9951,-0.9777,-0.9864,-0.9753,-0.963,-0.9716,-0.9693,-0.9547,-0.9039,-0.8994,-0.8968,-0.8189,0.0,0.0,0.0,0.0,0.0,0.0,0.0,0.0,0.0,0.0,0.0,0.0,0.0,0.0,0.0,0.0,0.0,0.0,0.0,0.0,-0.7548,-0.828,-0.9229,-1.0129,-0.953,-0.8756,-0.8021,-0.803,-0.7805,-0.7081,-0.6893,-0.6842,-0.6942,-0.695,-0.7314,-0.8178,-0.8185,-0.8523,-0.9201,-0.9205,-0.9219,-0.9247,-0.9247,-0.9247,-0.9247,0.0,0.0,-0.9578,-0.9578,-0.9688,-0.9798,-0.9798,-0.9798,-0.9798,-0.9798,-0.9798,-0.9798,-0.9467,-0.9247,-0.9247,-0.9247,-0.9247,-0.9357,0.0,0.0,0.0,0.0,0.0,0.0,0.0,0.0,0.0,0.0,-0.6744,-0.6915,-0.7772,-0.7881,-0.7841,-0.7676,-0.7764,0.0,0.0,-0.8097,-0.8331,-0.8403,-0.8627,-0.8703,-0.8703,-0.8703,-0.8703,-0.8703,-0.9119,-0.9322,-0.9332,-0.9757,-1.0038,-1.0038,-1.0038,-1.0038,-1.0038,-1.0038,-1.0038,-1.0038,-1.0038,-1.0038,-1.0038,-1.0038,-1.0038,-1.0038,-1.0038,-1.0038,-0.9932,-0.9656,-0.9538,-0.9528,-0.8913,-0.8691,-0.8574,0.0,0.0,0.0,0.0,0.0,0.0,0.0,0.0,0.0,0.0,0.0,0.0,0.0,0.0,-0.7752,0.0,0.0,-0.8918,-0.9186,-0.9936,-1.0664,-1.1079,-1.0858,-1.0531,-0.9828,-0.9227,-0.8796,-0.8796,-0.8548,-0.8297,-0.8372,-0.8375,-0.8626,-0.9137,-0.914,-0.9361,-0.9798,-0.9798,-0.9798,-0.9798,-0.9798,-0.9798,-0.9798,-0.9798,-1.0017,-1.046,-1.046,-1.068,-1.1118,-1.1118,-1.1118,-1.1118,-1.1118,-1.1118,-1.1118,-1.1118,-1.0566,-0.9798,-0.9798,-0.9798,-0.9908,0.0,0.0,0.0,0.0,0.0,0.0,0.0,0.0,0.0,0.0,-0.6195,-0.6398,-0.6932,-0.7023,-0.7036,0.0,0.0,0.0,0.0,-0.8097,-0.8327,-0.8699,-0.8703,-0.8703,-0.8703,-0.8703,-0.8703,-0.8703,-0.9082,-0.9285,-0.9332,-0.9715,-0.9913,-1.0038,-1.0038,-1.0038,-1.0038,-1.0038,-1.0038,-1.0038,-1.0038,-1.0038,-1.0038,-1.0038,-1.0038,-1.0038,-1.0038,-0.9951,-0.9951,-0.9951,-0.9979,-0.9929,-0.9578,-0.9535,-0.947,-0.8746,-0.8717,0.0,0.0,0.0,0.0,0.0,0.0,0.0,0.0,0.0,-0.8459,-0.882,-0.8949,-0.9001,-0.9172,-0.9739,-1.0319,-1.0822,-1.1433,-1.1893,-1.1931,-1.1875,-1.1921,-1.1959,-1.0703,-1.0038,-1.0568,-1.0155,-0.9798,-0.9798,-0.9798,-0.9908,-1.0017,-1.0017,-1.0127,-1.0347,-1.0347,-1.0347,-1.0347,-1.0347,-1.0347,-1.0347,-1.0347,-1.068,-1.1345,-1.1345,-1.1782,-1.2441,-1.2441,-1.2441,-1.2441,-1.2441,-1.2441,-1.2441,-1.2441,-1.1559,-1.0347,-1.0347,-1.0347,-1.0457,0.0,0.0,0.0,0.0,0.0,0.0,0.0,0.0,0.0,0.0,0.0,0.0,0.0,0.0,0.0,0.0,0.0,0.0,-0.808,-0.8403,-0.8627,-0.8703,-0.8703,-0.8703,-0.8703,-0.8703,-0.8703,-0.8703,-0.894,-0.9148,-0.9327,-0.9568,-0.9776,-1.0038,-1.0038,-1.0038,-1.0038,-1.0038,-1.0038,-1.0038,-1.0038,-1.0038,-1.0038,-1.0038,-1.0038,-1.0038,-1.0038,-0.9864,-0.9689,-0.9951,-0.999,-0.997,-1.015,-1.0017,-0.9767,-0.9203,0.0,-0.845,-0.7731,-0.7897,-0.8295,-0.8185,-0.8658,-0.9051,0.0,0.0,-0.9198,-0.9386,-0.9423,-0.9477,-0.9653,-1.0233,-1.083,-1.103,-1.1649,-1.2167,-1.2346,-1.1738,-1.1524,-1.2262,-1.152,-1.0655,-0.9991,-0.9896,-0.9798,-0.9798,-0.9798,-1.0131,-1.0907,-1.0907,-1.1345,-1.211,-1.211,-1.211,-1.211,-1.211,-1.211,-1.211,-1.211,-1.211,-1.2219,-1.2219,-1.2327,-1.2441,-1.2441,-1.2441,-1.2441,-1.2441,-1.2441,-1.2441,-1.2441,-1.2327,-1.211,-1.211,-1.211,-1.211,0.0,0.0,0.0,0.0,0.0,0.0,0.0,0.0,0.0,0.0,0.0,0.0,0.0,0.0,0.0,0.0,0.0,0.0,-0.7759,-0.823,-0.8581,-0.8699,-0.8703,-0.8703,-0.8703,-0.8703,-0.8703,-0.8703,-0.8916,-0.9067,-0.9157,-0.9488,-0.9691,-0.9776,-0.9899,-1.0038,-1.0038,-1.0038,-1.0038,-1.0038,-1.0038,-1.0038,-1.0038,-1.0038,-1.0038,-0.9965,-0.9818,-0.9698,0.0,0.0,-0.9935,-0.9953,-1.0468,-1.0422,-1.0005,-0.9736,-0.9351,0.0,-0.9107,-0.8902,0.0,0.0,-0.9558,-0.9806,-0.9806,-0.9893,-1.0127,-1.0524,-1.0748,-1.0887,-1.1088,-1.1399,-1.1626,0.0,-1.2042,-1.2342,-1.2427,-1.211,-1.2001,-1.2332,-1.211,-1.1673,-1.1337,-1.1337,-1.1337,-1.1337,-1.1337,-1.1446,-1.1891,-1.1896,-1.2001,-1.2436,-1.2441,-1.2441,-1.2441,-1.2441,-1.2441,-1.2441,-1.2441,-1.2441,-1.2441,-1.2441,-1.2441,-1.2441,-1.2441,-1.2441,-1.2441,-1.2441,-1.2441,-1.2441,-1.2441,-1.2441,-1.2441,-1.2441,-1.2441,-1.2441,0.0,0.0,0.0,0.0,0.0,0.0,0.0,0.0,0.0,0.0,0.0,0.0,0.0,0.0,0.0,0.0,0.0,0.0,0.0,-0.8033,-0.8421,-0.8694,-0.8703,-0.8703,-0.8703,-0.8703,-0.8703,-0.8703,-0.8859,-0.8963,-0.903,-0.9332,-0.9452,-0.9569,-0.98,-0.9899,-1.0038,-1.0038,-1.0038,-1.0038,-1.0038,-1.0038,-1.0038,-1.0038,-0.9951,-0.9883,-0.9584,-0.946,0.0,0.0,-0.9622,-0.9781,-1.0347,-1.0375,-1.0102,-0.9771,-0.9443,-0.9259,-0.972,0.0,0.0,-1.007,-1.035,-1.05,-1.0559,-1.0685,-1.097,-1.1531,-1.1803,-1.1968,-1.2181,-1.2224,-1.2271,-1.2417,-1.2441,-1.2441,-1.2441,-1.2441,-1.2441,-1.2441,-1.2441,-1.2441,-1.2441,-1.2441,-1.2441,-1.2441,-1.2441,-1.2441,-1.2441,-1.2441,-1.2441,-1.2441,-1.2441,-1.2441,-1.2441,-1.2441,-1.2441,-1.2441,-1.2441,-1.2441,-1.2441,-1.2441,-1.2441,-1.2441,-1.2441,-1.2441,-1.2441,-1.2441,-1.2441,-1.2441,-1.2441,-1.2441,-1.2441,-1.2441,-1.2441,-1.2441,0.0,0.0,0.0,0.0,0.0,0.0,0.0,0.0,0.0,0.0,0.0,0.0,0.0,0.0,0.0,0.0,0.0,0.0,0.0,-0.789,-0.8272,-0.8694,-0.8703,-0.8703,-0.8703,-0.8703,-0.8703,-0.8703,-0.8708,-0.8817,-0.9025,-0.9034,-0.9256,-0.9559,-0.9569,-0.9767,-1.0038,-1.0038,-1.0038,-1.0038,-1.0038,-1.0038,-1.0038,-1.0038,-0.9864,-0.9602,-0.9354,0.0,0.0,0.0,-0.9038,-0.9272,-0.9552,-0.9779,0.0,-0.9332,-0.8792,0.0,0.0,0.0,-0.9605,-1.007,-1.0646,-1.1241,-1.1449,-1.1505,-1.1624,-1.2035,-1.2124,-1.2191,-1.2394,-1.2427,-1.2432,-1.2441,-1.2441,-1.2441,-1.2441,-1.2441,-1.2441,-1.2441,-1.2441,-1.2441,0.0,-1.2441,-1.2441,-1.2441,-1.2441,-1.2441,-1.2441,-1.2441,-1.2441,-1.2441,-1.2441,-1.2441,-1.2441,-1.2441,-1.2441,-1.2441,-1.2441,-1.2441,-1.2441,-1.2441,-1.2441,-1.2441,-1.2441,-1.2441,-1.2441,-1.2441,-1.2441,-1.2441,-1.2441,-1.2441,-1.2441,-1.2441,-1.2441,-1.2441,0.0,0.0,0.0,0.0,0.0,0.0,0.0,0.0,0.0,0.0,0.0,0.0,0.0,0.0,0.0,0.0,0.0,0.0,0.0,-0.741,-0.7929,-0.8277,-0.8557,-0.8703,-0.8703,-0.8703,-0.8703,-0.8703,-0.8703,-0.8737,-0.8812,-0.8959,-0.91,-0.9247,-0.9521,-0.9686,-0.9757,-0.9894,-1.0038,-1.0038,-1.0038,-1.0038,-0.9951,-0.9777,-0.9689,-0.9515,0.0,0.0,0.0,0.0,0.0,-0.9293,-0.9697,-0.9601,-0.9353,-0.884,-0.8689,-0.8796,0.0,0.0,-1.007,-1.0748,-1.1152,-1.143,-1.1501,-1.1732,-1.1968,-1.211,-1.1815,-1.1616,-1.1679,-1.1688,-1.1688,-1.1688,-1.213,-1.2441,-1.2441,-1.2441,-1.2441,-1.2441,-1.2441,0.0,0.0,0.0,0.0,-1.2441,-1.2441,-1.2441,-1.2441,-1.2441,-1.2441,-1.2441,-1.2441,-1.2441,-1.2441,-1.2441,-1.2441,-1.2441,-1.2441,-1.2441,-1.2441,-1.2441,-1.2441,-1.2441,-1.2441,-1.2441,-1.2441,-1.2441,-1.2441,-1.2441,-1.2441,-1.2441,-1.2441,-1.2441,-1.2441,-1.2441,0.0,0.0,0.0,0.0,0.0,0.0,0.0,0.0,0.0,0.0,0.0,0.0,0.0,0.0,0.0,0.0,0.0,0.0,0.0,0.0,-0.7544,-0.7881,-0.8225,-0.8401,-0.8475,-0.8475,-0.8475,-0.8475,-0.8551,-0.8627,-0.8632,-0.8768,-0.8949,-0.9034,-0.9304,-0.9424,-0.9569,-0.9786,-0.9885,-0.9864,-0.9864,-0.9777,-0.9694,-0.9519,-0.9432,0.0,0.0,0.0,0.0,0.0,0.0,0.0,-0.9498,-0.9334,-0.9013,-0.8901,-0.8964,-0.9175,0.0,-1.0218,-1.0473,-1.1142,-1.1416,-1.1557,-1.1709,-1.195,-1.2157,-1.2233,-1.1754,-1.138,-1.1269,-1.1217,-1.1168,-1.1063,-1.1487,-1.1818,-1.2107,-1.2112,-1.2135,-1.2323,-1.2441,-1.2441,0.0,0.0,0.0,-1.2441,-1.2441,-1.2441,-1.2441,-1.2441,-1.2441,-1.2441,-1.2441,-1.2441,-1.2441,-1.2441,-1.2441,-1.2441,-1.2441,-1.2441,-1.2441,-1.2441,-1.2441,-1.2441,-1.2441,-1.2441,-1.2441,-1.2441,-1.2441,-1.2441,-1.2441,-1.2441,-1.2441,-1.2441,-1.2441,-1.2441,0.0,0.0,0.0,0.0,0.0,0.0,0.0,0.0,0.0,0.0,0.0,0.0,0.0,0.0,0.0,0.0,0.0,0.0,0.0,0.0,0.0,-0.7547,-0.7725,-0.7895,-0.8084,-0.8097,-0.8102,-0.8102,-0.8327,-0.8403,-0.8403,-0.8551,-0.8735,-0.8932,-0.8941,-0.9161,-0.9531,-0.9555,-0.9586,-0.9589,-0.9598,-0.9432,-0.9262,-0.9257,0.0,0.0,0.0,0.0,0.0,0.0,0.0,0.0,0.0,0.0,-0.896,-0.9427,-0.9443,-0.9474,-1.0328,-1.0528,-1.072,-1.1316,-1.1524,-1.1638,-1.2049,-1.2148,-1.2205,-1.2276,-1.1944,-1.1584,0.0,0.0,-1.0884,-1.0577,-1.0594,-1.0985,-1.1598,-1.1505,-1.1567,0.0,0.0,0.0,0.0,0.0,0.0,-1.2441,0.0,-1.2441,-1.2441,-1.2441,-1.2441,-1.2441,-1.2441,-1.2441,-1.2441,-1.2441,-1.2441,-1.2441,-1.2441,-1.2441,-1.2441,-1.2441,-1.2441,-1.2441,-1.2441,-1.2441,-1.2441,-1.2441,-1.2441,-1.2441,-1.2441,-1.2441,-1.2441,-1.2441,-1.2441,-1.2441,0.0,0.0,0.0,0.0,0.0,0.0,0.0,0.0,0.0,0.0,0.0,0.0,0.0,0.0,0.0,0.0,0.0,0.0,0.0,0.0,0.0,0.0,0.0,0.0,0.0,-0.8254,-0.8327,-0.8327,0.0,-0.8178,-0.8178,-0.8255,-0.8282,-0.834,-0.8479,-0.8599,-0.8711,-0.9007,-0.9159,-0.9132,0.0,-0.9345,-0.9262,0.0,0.0,0.0,0.0,0.0,0.0,0.0,0.0,0.0,0.0,0.0,-0.9709,-0.9892,-1.0013,-1.0224,-1.066,-1.0826,-1.1086,-1.1453,-1.1628,-1.1813,-1.2077,-1.2257,-1.2229,-1.1916,-1.1204,-1.0502,0.0,0.0,0.0,-1.0264,-1.123,0.0,-1.2248,-1.2144,0.0,0.0,0.0,-1.2441,-1.2441,-1.2441,0.0,0.0,-1.2441,-1.2441,-1.2441,-1.2441,-1.2441,-1.2441,-1.2441,-1.2441,-1.2441,-1.2441,-1.2441,-1.2441,-1.2441,-1.2441,-1.2441,-1.2441,-1.2441,-1.2441,-1.2441,-1.2441,-1.2441,-1.2441,-1.2441,-1.2441,-1.2441,-1.2441,-1.2441,-1.2441,-1.2441,-1.2441,0.0,0.0,0.0,0.0,0.0,0.0,0.0,0.0,0.0,0.0,0.0,0.0,0.0,0.0,0.0,0.0,0.0,0.0,0.0,0.0,0.0,0.0,0.0,0.0,-0.7812,-0.8067,-0.8165,-0.8102,0.0,0.0,0.0,-0.8025,-0.8102,-0.8106,-0.8212,-0.8387,-0.8564,-0.8873,0.0,0.0,0.0,0.0,0.0,0.0,0.0,0.0,0.0,0.0,0.0,0.0,0.0,-0.9793,-1.0066,-1.0026,-0.9995,-1.028,0.0,-1.0555,-1.0849,-1.1096,-1.1269,-1.1572,-1.1737,-1.177,-1.188,-1.2014,-1.1926,-1.1512,-1.0789,0.0,0.0,0.0,0.0,0.0,0.0,0.0,-1.2079,-1.1981,-1.2008,0.0,-1.2441,0.0,-1.2441,-1.2441,-1.2441,0.0,-1.2441,-1.2441,-1.2441,-1.2441,-1.2441,-1.2441,-1.2441,-1.2441,-1.2441,-1.2441,-1.2441,-1.2441,-1.2441,-1.2441,-1.2441,-1.2441,-1.2441,-1.2441,0.0,-1.2441,-1.2441,-1.2441,-1.2441,-1.2441,-1.2441,-1.2441,-1.2441,-1.2441,-1.2441,-1.2441,0.0,0.0,0.0,0.0,0.0,0.0,0.0,0.0,0.0,0.0,0.0,0.0,0.0,0.0,0.0,0.0,0.0,0.0,0.0,0.0,0.0,0.0,0.0,0.0,0.0,-0.7703,-0.7816,-0.7761,0.0,0.0,0.0,0.0,0.0,0.0,0.0,0.0,0.0,0.0,0.0,0.0,0.0,0.0,0.0,0.0,0.0,0.0,0.0,0.0,0.0,0.0,-0.9895,-1.0162,-1.0422,-1.0369,-1.0377,-1.0751,-1.0683,-1.0688,-1.1053,-1.1194,-1.1293,-1.1713,-1.1817,-1.177,-1.1668,-1.1713,-1.1544,-1.0997,0.0,-0.9977,-0.945,0.0,-0.9994,-0.9615,0.0,-1.0993,-1.1722,-1.1638,-1.1693,-1.2309,-1.2441,-1.2441,-1.2441,-1.2441,-1.2441,-1.2441,-1.2441,-1.2441,-1.2441,-1.2441,-1.2441,-1.2441,-1.2441,-1.2441,-1.2441,-1.2441,-1.2441,-1.2441,-1.2441,-1.2441,-1.2441,-1.2441,-1.2441,-1.2441,-1.2441,-1.2441,-1.2441,-1.2441,-1.2441,-1.2441,-1.2441,-1.2441,-1.2441,-1.2441,-1.2441,-1.2441,0.0,0.0,0.0,0.0,0.0,0.0,0.0,0.0,0.0,0.0,-0.5345,0.0,0.0,0.0,0.0,0.0,0.0,0.0,0.0,0.0,0.0,0.0,0.0,0.0,0.0,0.0,0.0,0.0,0.0,0.0,0.0,0.0,0.0,0.0,0.0,0.0,0.0,0.0,0.0,0.0,0.0,0.0,0.0,0.0,0.0,0.0,0.0,0.0,0.0,0.0,-1.0089,-1.0519,-1.0747,-1.0941,-1.1049,-1.1086,-1.1072,-1.1053,-1.1189,-1.1194,-1.1293,-1.1713,-1.1817,-1.177,-1.1668,-1.1713,0.0,0.0,0.0,-0.9439,-0.8696,-0.8985,0.0,-0.9987,0.0,0.0,0.0,0.0,-1.229,0.0,0.0,0.0,0.0,0.0,0.0,0.0,0.0,-1.2441,-1.2441,-1.2441,-1.2441,-1.2441,-1.2441,-1.2441,-1.2441,-1.2441,-1.2441,-1.2441,-1.2441,-1.2441,-1.2441,-1.2441,-1.2441,-1.2441,-1.2441,0.0,-1.2441,-1.2441,-1.2441,-1.2441,-1.2441,-1.2441,-1.2441,-1.2441,-1.2441,-1.2441,0.0,0.0,0.0,0.0,0.0,0.0,0.0,0.0,0.0,0.0,-0.5139,-0.5194,0.0,0.0,0.0,0.0,0.0,0.0,0.0,0.0,0.0,0.0,0.0,0.0,0.0,0.0,0.0,0.0,0.0,0.0,0.0,0.0,0.0,0.0,0.0,0.0,0.0,0.0,0.0,0.0,0.0,0.0,0.0,0.0,0.0,0.0,0.0,0.0,0.0,0.0,-1.0022,-1.0561,-1.0863,-1.1033,-1.1194,-1.1194,-1.1194,-1.1194,-1.1194,-1.1194,-1.1269,-1.1581,-1.1742,-1.1714,-1.13,0.0,0.0,0.0,0.0,-0.9226,-0.8741,0.0,0.0,0.0,0.0,0.0,0.0,0.0,0.0,0.0,0.0,0.0,0.0,0.0,0.0,0.0,0.0,-1.2441,-1.2441,-1.2441,-1.2441,-1.2441,-1.2441,-1.2441,-1.2441,-1.2441,-1.2441,-1.2441,-1.2441,-1.2441,-1.2441,-1.2441,-1.2441,-1.2441,-1.2441,-1.2441,-1.2441,-1.2441,-1.2441,-1.2441,-1.2441,-1.2441,-1.2441,-1.2441,-1.2441,-1.2441,0.0,0.0,0.0,0.0,0.0,0.0,0.0,-0.4184,-0.4457,-0.4959,-0.4956,-0.5005,-0.5258,-0.5604,-0.5856,0.0,0.0,0.0,0.0,0.0,0.0,0.0,0.0,0.0,0.0,0.0,0.0,0.0,0.0,0.0,0.0,0.0,0.0,0.0,0.0,0.0,0.0,0.0,0.0,0.0,0.0,0.0,0.0,0.0,0.0,0.0,0.0,0.0,0.0,0.0,-0.9933,-1.0454,-1.0759,-1.0995,-1.1096,-1.1096,-1.1096,-1.1096,-1.1194,-1.1194,-1.1246,-1.1463,-1.1666,-1.1662,-1.0853,-1.0856,0.0,0.0,-0.9331,-0.9133,-0.8726,0.0,0.0,0.0,0.0,0.0,0.0,0.0,0.0,0.0,0.0,0.0,0.0,0.0,0.0,0.0,0.0,0.0,-1.2441,-1.2441,-1.2441,-1.2441,-1.2441,-1.2441,-1.2441,-1.2441,-1.2441,-1.2441,-1.2441,-1.2441,-1.2441,-1.2441,-1.2441,-1.2441,-1.2441,-1.2441,-1.2441,-1.2441,-1.2441,-1.2441,-1.2441,-1.2441,-1.2441,-1.2441,-1.2441,-1.2441,0.0,0.0,0.0,0.0,0.0,0.0,0.0,-0.4184,-0.4519,-0.4688,-0.4849,-0.5014,-0.525,-0.547,-0.5834,0.0,0.0,0.0,0.0,0.0,0.0,0.0,0.0,0.0,0.0,0.0,0.0,0.0,0.0,0.0,0.0,0.0,0.0,0.0,0.0,0.0,0.0,0.0,0.0,0.0,0.0,0.0,0.0,0.0,0.0,0.0,0.0,0.0,0.0,0.0,0.0,-1.0062,-1.0445,-1.0682,-1.0801,-1.0801,0.0,0.0,-1.1096,-1.1194,-1.1246,-1.1463,-1.1666,-1.1662,-1.0853,0.0,0.0,0.0,-0.9236,-0.9034,-0.8531,-0.8741,0.0,0.0,0.0,0.0,0.0,0.0,0.0,0.0,0.0,0.0,0.0,0.0,0.0,0.0,0.0,0.0,-1.2441,-1.2441,-1.2441,-1.2441,-1.2441,-1.2441,-1.2441,-1.2441,-1.2441,-1.2441,-1.2441,-1.2441,-1.2441,-1.2441,-1.2441,-1.2441,-1.2441,-1.2441,0.0,-1.2441,-1.2441,-1.2441,-1.2441,-1.2441,-1.2441,-1.2441,-1.2441,-1.2441,0.0,0.0,0.0,0.0,0.0,0.0,0.0,-0.3962,-0.4242,-0.4636,-0.4743,-0.4904,-0.5281,-0.5353,-0.5502,0.0,0.0,0.0,0.0,0.0,0.0,0.0,0.0,0.0,0.0,0.0,0.0,0.0,0.0,0.0,0.0,0.0,0.0,0.0,0.0,0.0,0.0,0.0,0.0,0.0,0.0,0.0,0.0,0.0,0.0,0.0,0.0,0.0,0.0,0.0,0.0,0.0,-1.0085,-1.0202,0.0,0.0,-1.0801,-1.0904,-1.1096,-1.1194,-1.1217,-1.1302,-1.1381,-1.1277,-1.0675,0.0,0.0,-0.9577,-0.9331,-0.9137,-0.8931,-0.8829,-0.8748,0.0,0.0,0.0,0.0,0.0,0.0,0.0,0.0,0.0,0.0,0.0,0.0,0.0,0.0,0.0,-1.2441,-1.2441,-1.2441,-1.2441,-1.2441,-1.2441,-1.2441,-1.2441,-1.2441,-1.2441,-1.2441,-1.2441,-1.2441,-1.2441,-1.2441,-1.2441,-1.2441,-1.2441,0.0,-1.2441,-1.2441,-1.2441,-1.2441,-1.2441,-1.2441,-1.2441,-1.2441,-1.2441,0.0,0.0,0.0,0.0,0.0,0.0,-0.3855,-0.3852,-0.4021,-0.4577,-0.4581,-0.4688,-0.5117,-0.5069,-0.5091,-0.5377,0.0,0.0,0.0,0.0,0.0,0.0,0.0,0.0,0.0,0.0,0.0,-0.7342,0.0,0.0,0.0,0.0,0.0,0.0,0.0,0.0,0.0,0.0,0.0,0.0,0.0,0.0,0.0,0.0,0.0,0.0,0.0,0.0,0.0,0.0,0.0,0.0,0.0,0.0,0.0,0.0,-1.056,-1.0703,-1.0998,-1.11,-1.1194,-1.1194,-1.116,-1.0961,0.0,0.0,0.0,-0.9661,-0.947,-0.9291,-0.9141,-0.9069,-0.8885,-0.834,0.0,0.0,0.0,0.0,0.0,0.0,0.0,0.0,0.0,0.0,0.0,0.0,0.0,0.0,-1.2441,-1.2441,-1.2441,-1.2441,-1.2441,-1.2441,-1.2441,-1.2441,-1.2441,-1.2441,-1.2441,-1.2441,-1.2441,-1.2441,-1.2441,-1.2441,-1.2441,-1.2441,0.0,-1.2441,-1.2441,-1.2441,-1.2441,-1.2441,-1.2441,-1.2441,-1.2441,-1.2441,0.0,0.0,0.0,0.0,0.0,0.0,0.0,-0.391,-0.3962,-0.4463,-0.4301,-0.4356,-0.4842,-0.4467,-0.4531,-0.532,0.0,0.0,0.0,0.0,0.0,0.0,0.0,0.0,0.0,0.0,0.0,-0.6675,-0.6486,-0.6843,-0.7637,0.0,0.0,0.0,0.0,0.0,0.0,0.0,0.0,0.0,0.0,0.0,0.0,0.0,0.0,0.0,0.0,0.0,0.0,0.0,0.0,0.0,0.0,0.0,0.0,0.0,-1.0065,-1.0507,-1.0708,-1.0998,-1.1194,-1.1194,-1.116,-1.0961,0.0,0.0,0.0,-0.9661,-0.9762,-0.9625,-0.8954,-0.916,-0.912,-0.8161,-0.8237,0.0,0.0,0.0,0.0,0.0,0.0,0.0,0.0,0.0,0.0,0.0,0.0,0.0,-1.2441,-1.2441,-1.2441,-1.2441,-1.2441,-1.2441,-1.2441,-1.2441,-1.2441,-1.2441,-1.2441,-1.2441,-1.2441,-1.2441,-1.2441,-1.2441,-1.2441,-1.2441,0.0,-1.2441,-1.2441,-1.2441,-1.2441,-1.2441,-1.2441,-1.2441,-1.2441,-1.2441,0.0,0.0,0.0,0.0,0.0,0.0,0.0,-0.4079,-0.419,-0.4463,-0.4301,-0.4304,-0.4574,-0.4577,-0.4598,-0.4755,0.0,0.0,0.0,0.0,0.0,0.0,0.0,0.0,0.0,0.0,-0.6675,-0.6675,-0.6609,-0.6639,-0.6768,-0.7301,-0.75,0.0,0.0,0.0,0.0,0.0,0.0,0.0,0.0,0.0,0.0,0.0,0.0,0.0,0.0,0.0,0.0,0.0,0.0,0.0,0.0,0.0,0.0,0.0,0.0,0.0,-1.0413,-1.0605,-1.0609,-1.0609,-1.0457,-1.0293,-1.013,0.0,-0.9793,-0.964,-0.9474,-0.943,-0.9287,-0.8948,-0.8725,-0.8487,-0.8397,0.0,0.0,0.0,0.0,0.0,0.0,0.0,0.0,0.0,0.0,0.0,0.0,0.0,-1.2441,-1.2441,-1.2441,-1.2441,-1.2441,-1.2441,-1.2441,-1.2441,-1.2441,-1.2441,-1.2441,-1.2441,-1.2441,-1.2441,-1.2441,-1.2441,-1.2441,-1.2441,-1.2441,-1.2441,-1.2441,-1.2441,-1.2441,-1.2441,-1.2441,-1.2441,-1.2441,-1.2441,0.0,0.0,0.0,0.0,0.0,0.0,0.0,-0.4301,-0.4356,-0.4577,-0.4467,-0.4411,-0.4519,-0.4574,-0.4653,-0.471,0.0,0.0,0.0,0.0,0.0,0.0,0.0,0.0,0.0,-0.635,-0.6478,-0.6613,-0.6613,-0.6548,-0.6548,-0.6931,-0.7157,-0.7177,-0.7553,0.0,0.0,0.0,0.0,0.0,0.0,0.0,-0.8417,0.0,0.0,0.0,0.0,0.0,0.0,0.0,0.0,0.0,0.0,0.0,0.0,0.0,-0.954,0.0,0.0,-1.0314,-1.0413,-1.0413,-1.0216,0.0,0.0,0.0,-0.9628,-0.9628,-0.9482,-0.9361,-0.9361,-0.894,-0.8621,-0.8565,-0.8371,0.0,0.0,0.0,0.0,0.0,0.0,0.0,0.0,0.0,0.0,0.0,0.0,0.0,-1.2441,-1.2441,-1.2441,-1.2441,-1.2441,-1.2441,-1.2441,-1.2441,-1.2441,-1.2441,-1.2441,-1.2441,-1.2441,-1.2441,-1.2441,-1.2441,-1.2441,-1.2441,0.0,-1.2441,-1.2441,-1.2441,-1.2441,-1.2441,-1.2441,-1.2441,-1.2441,-1.2441,0.0,0.0,0.0,0.0,0.0,0.0,0.0,0.0,0.0,0.0,-0.4688,-0.4632,-0.4519,-0.4519,-0.4629,0.0,0.0,0.0,0.0,0.0,0.0,0.0,0.0,0.0,0.0,-0.5888,-0.6024,-0.6354,-0.635,-0.6482,-0.6675,-0.6482,-0.6572,-0.6881,-0.6937,0.0,0.0,0.0,0.0,0.0,0.0,0.0,0.0,0.0,0.0,0.0,0.0,0.0,0.0,0.0,0.0,0.0,0.0,0.0,0.0,0.0,0.0,0.0,0.0,0.0,0.0,0.0,0.0,0.0,0.0,0.0,0.0,-0.9628,-0.9558,-0.9365,-0.9176,-0.8995,-0.8737,-0.8409,-0.8286,0.0,0.0,0.0,0.0,0.0,0.0,0.0,0.0,0.0,0.0,0.0,0.0,0.0,-1.2441,-1.2441,-1.2441,-1.2441,-1.2441,-1.2441,-1.2441,-1.2441,-1.2441,-1.2441,-1.2441,-1.2441,-1.2441,-1.2441,-1.2441,0.0,-1.2441,-1.2441,-1.2441,-1.2441,-1.2441,-1.2441,-1.2441,-1.2441,-1.2441,-1.2441,-1.2441,-1.2441,0.0,0.0,0.0,0.0,0.0,0.0,0.0,0.0,0.0,0.0,-0.447,-0.4359,-0.4463,-0.4519,-0.4532,0.0,0.0,0.0,0.0,0.0,0.0,0.0,0.0,0.0,0.0,-0.569,-0.5954,-0.6024,-0.6152,-0.628,-0.6346,-0.628,-0.637,-0.6493,-0.6674,0.0,0.0,0.0,0.0,0.0,0.0,0.0,0.0,0.0,0.0,0.0,-0.8677,-0.8843,0.0,0.0,0.0,0.0,0.0,0.0,0.0,0.0,-0.9137,-0.9417,-0.9514,0.0,-0.9821,-0.9821,0.0,0.0,0.0,0.0,0.0,0.0,0.0,0.0,0.0,-0.8907,-0.8649,0.0,0.0,0.0,0.0,0.0,0.0,0.0,0.0,0.0,0.0,0.0,0.0,0.0,0.0,-1.2441,-1.2441,-1.2441,-1.2441,-1.2441,-1.2441,-1.2441,-1.2441,-1.2441,-1.2441,-1.2441,-1.2441,-1.2441,-1.2441,-1.2441,-1.2441,-1.2441,-1.2441,-1.2441,-1.2441,-1.2441,-1.2441,-1.2441,-1.2441,-1.2441,-1.2441,-1.2441,-1.2441,-1.2441,0.0,0.0,0.0,0.0,0.0,0.0,0.0,0.0,0.0,0.0,0.0,0.0,0.0,0.0,0.0,0.0,0.0,0.0,0.0,0.0,0.0,0.0,0.0,0.0,-0.496,-0.5355,-0.5557,-0.5693,-0.6017,-0.621,-0.621,-0.628,-0.6346,-0.6564,-0.6654,0.0,0.0,0.0,0.0,0.0,-0.8025,0.0,0.0,0.0,0.0,0.0,-0.8595,-0.8679,0.0,-0.8656,-0.8568,-0.8568,0.0,0.0,0.0,0.0,-0.9076,-0.9356,-0.9356,-0.949,-0.9628,-0.9628,-0.9628,-0.9628,0.0,0.0,0.0,0.0,0.0,0.0,0.0,0.0,0.0,0.0,0.0,0.0,0.0,0.0,0.0,0.0,0.0,0.0,0.0,0.0,0.0,0.0,0.0,-1.2441,-1.2441,-1.2441,-1.2441,-1.2441,-1.2441,-1.2441,-1.2441,-1.2441,-1.2441,-1.2441,-1.2441,-1.2441,-1.2441,-1.2441,-1.2441,-1.2441,-1.2441,-1.2441,-1.2441,-1.2441,-1.2441,-1.2441,-1.2441,-1.2441,-1.2441,-1.2441,-1.255,-1.2767,0.0,0.0,0.0,0.0,0.0,0.0,0.0,0.0,0.0,0.0,0.0,0.0,0.0,0.0,0.0,0.0,0.0,0.0,0.0,0.0,0.0,0.0,0.0,-0.4628,-0.4897,-0.509,-0.5223,-0.5495,-0.5951,-0.621,-0.6214,-0.635,-0.6444,-0.6639,-0.6814,-0.6921,0.0,0.0,0.0,0.0,-0.7949,0.0,0.0,0.0,0.0,0.0,0.0,0.0,0.0,-0.8568,-0.8568,-0.8568,-0.8568,0.0,0.0,0.0,0.0,0.0,-0.9315,-0.947,-0.9628,-0.9628,-0.9529,-0.9529,0.0,0.0,0.0,0.0,0.0,0.0,0.0,0.0,0.0,0.0,0.0,0.0,0.0,0.0,0.0,0.0,0.0,0.0,0.0,0.0,0.0,0.0,0.0,-1.2441,-1.2441,-1.2441,-1.2441,-1.2441,-1.2441,-1.2441,-1.2441,-1.2441,-1.2441,-1.2441,-1.2441,-1.2441,-1.2441,-1.2441,-1.2441,-1.2441,0.0,0.0,-1.2441,-1.2441,-1.2441,-1.2441,-1.255,-1.2441,-1.2436,-1.2654,-1.2985,-1.3315,0.0,0.0,0.0,0.0,0.0,0.0,0.0,0.0,0.0,0.0,0.0,0.0,0.0,0.0,0.0,0.0,0.0,0.0,0.0,0.0,0.0,0.0,-0.4431,-0.4631,-0.5296,-0.5362,-0.5491,-0.5826,-0.6083,-0.621,-0.621,-0.6214,-0.63,-0.6373,-0.6572,-0.6699,-0.6681,-0.7092,-0.7257,-0.7338,-0.7484,0.0,0.0,0.0,0.0,0.0,0.0,0.0,0.0,-0.8652,-0.8568,-0.8568,-0.8568,0.0,0.0,0.0,0.0,0.0,-0.9137,-0.9569,-0.992,-0.9628,-0.943,-0.9232,0.0,0.0,0.0,0.0,0.0,0.0,0.0,0.0,0.0,0.0,0.0,0.0,0.0,0.0,0.0,0.0,0.0,0.0,0.0,0.0,0.0,0.0,0.0,-1.2441,-1.2441,-1.2441,-1.2441,-1.2441,-1.2441,-1.2441,-1.2441,-1.2441,-1.2441,-1.2441,-1.2441,-1.2441,-1.2441,-1.2441,-1.2441,-1.2441,0.0,-1.2441,-1.2441,-1.2441,-1.2441,-1.2441,-1.2989,-1.2876,-1.255,-1.3521,-1.3635,-1.3423,0.0,0.0,0.0,0.0,0.0,0.0,0.0,0.0,0.0,0.0,0.0,0.0,0.0,0.0,0.0,0.0,0.0,0.0,0.0,0.0,0.0,-0.4885,-0.4694,-0.4697,-0.496,-0.5229,-0.5495,-0.5624,-0.5888,-0.6083,-0.6214,-0.638,-0.6511,-0.653,-0.6577,-0.667,-0.6742,-0.6831,-0.6945,-0.7022,0.0,0.0,0.0,0.0,0.0,0.0,0.0,0.0,0.0,0.0,-0.8568,-0.8568,-0.8568,0.0,0.0,0.0,0.0,0.0,-0.9072,-0.9378,-0.9697,-0.9797,-0.9821,-0.9826,0.0,0.0,0.0,0.0,0.0,0.0,0.0,0.0,0.0,0.0,0.0,0.0,0.0,0.0,0.0,0.0,0.0,0.0,0.0,0.0,0.0,0.0,0.0,0.0,-1.2441,-1.2441,-1.2441,-1.2441,-1.2441,-1.2441,-1.2441,-1.2441,-1.2441,-1.2441,-1.2441,-1.2441,-1.2441,-1.2441,-1.2441,-1.2441,0.0,-1.2441,-1.2441,-1.2441,-1.255,-1.2881,-1.3207,-1.331,-1.3521,-1.4277,-1.4498,-1.439,0.0,0.0,0.0,0.0,0.0,0.0,0.0,0.0,0.0,0.0,0.0,0.0,0.0,0.0,0.0,0.0,0.0,0.0,0.0,0.0,-0.4847,-0.515,-0.496,-0.4827,-0.4824,-0.5223,-0.5491,-0.5624,-0.5826,-0.602,-0.6218,-0.6535,-0.664,-0.6614,-0.6569,-0.6645,-0.6765,-0.6663,-0.6714,-0.6865,0.0,0.0,0.0,0.0,0.0,0.0,0.0,0.0,0.0,0.0,0.0,0.0,0.0,0.0,0.0,-0.8476,-0.8629,-0.8917,-0.8963,-0.9254,-0.955,-0.9887,0.0,0.0,-1.0314,0.0,0.0,0.0,0.0,0.0,0.0,0.0,0.0,0.0,0.0,0.0,0.0,0.0,0.0,0.0,0.0,0.0,0.0,0.0,0.0,0.0,0.0,0.0,-1.2441,-1.2441,-1.2441,-1.2441,-1.2441,-1.2441,-1.2441,-1.2441,-1.2441,-1.2441,-1.2441,-1.2441,-1.2441,-1.2441,-1.2441,-1.2441,-1.255,-1.255,-1.2436,-1.2654,-1.2985,-1.3315,-1.364,-1.4067,-1.46,-1.4928,-1.5035,-1.525,0.0,0.0,0.0,0.0,0.0,0.0,0.0,0.0,0.0,0.0,0.0,0.0,0.0,0.0,0.0,0.0,0.0,0.0,0.0,0.0,-0.5147,-0.5362,-0.5156,-0.5219,-0.555,-0.555,-0.5818,-0.635,-0.602,-0.602,-0.6218,-0.6527,-0.6557,-0.6362,-0.6544,-0.6489,-0.6321,-0.656,-0.6641,-0.6641,-0.6865,0.0,0.0,0.0,0.0,0.0,0.0,0.0,0.0,0.0,0.0,0.0,0.0,0.0,-0.8201,-0.8028,-0.8442,-0.8987,-0.88,-0.9148,-0.9612,-0.9916,0.0,0.0,-0.992,0.0,0.0,0.0,0.0,0.0,0.0,0.0,0.0,0.0,0.0,0.0,0.0,0.0,0.0,0.0,0.0,0.0,0.0,0.0,0.0,0.0,0.0,0.0,-1.2441,-1.2441,-1.2441,-1.2441,-1.2441,-1.2441,-1.2441,-1.2441,-1.2441,-1.2441,-1.2441,-1.2441,-1.2441,-1.2441,-1.2441,-1.2436,-1.2989,-1.2881,-1.2441,-1.3624,-1.3743,-1.3423,-1.4498,-1.525,-1.5678,-1.5143,-1.5357,-1.5891,0.0,0.0,0.0,0.0,0.0,0.0,0.0,0.0,0.0,0.0,0.0,0.0,0.0,0.0,0.0,0.0,0.0,0.0,0.0,0.0,-0.496,-0.503,-0.496,-0.5024,-0.5286,-0.5484,-0.5752,-0.6086,-0.6086,-0.6074,-0.6116,-0.6491,-0.6591,-0.6463,-0.6701,-0.6659,-0.649,-0.6412,-0.6412,-0.6412,-0.6641,-0.6776,0.0,0.0,0.0,0.0,0.0,0.0,0.0,0.0,-0.794,-0.7944,-0.8028,-0.8028,-0.8047,-0.7979,-0.828,-0.8517,-0.8816,-0.916,-0.9486,-0.9694,0.0,0.0,0.0,0.0,0.0,0.0,0.0,0.0,0.0,0.0,0.0,0.0,0.0,0.0,0.0,0.0,0.0,0.0,0.0,0.0,0.0,0.0,0.0,0.0,0.0,0.0,-1.2441,-1.2441,-1.255,-1.2989,-1.2989,-1.3093,-1.3521,-1.3521,-1.3521,-1.3521,-1.3093,-1.3202,-1.3521,-1.3521,-1.3521,-1.3521,-1.3738,-1.3738,-1.3521,-1.4056,-1.4283,-1.439,-1.525,-1.5678,-1.5891,-1.5678,-1.5678,-1.5891,0.0,0.0,0.0,0.0,0.0,0.0,0.0,0.0,0.0,0.0,0.0,0.0,0.0,0.0,0.0,0.0,0.0,0.0,0.0,-0.4841,-0.4761,-0.4831,-0.4631,-0.4694,-0.5024,-0.5219,-0.5488,-0.5888,-0.6136,-0.6158,-0.6004,-0.65,-0.6664,-0.6485,-0.6718,-0.6714,-0.6486,-0.6338,-0.6338,-0.6338,-0.6412,-0.6581,0.0,0.0,0.0,0.0,0.0,0.0,0.0,0.0,-0.7676,-0.7676,-0.7768,-0.7801,-0.7864,-0.7887,-0.8085,-0.84,-0.8722,-0.901,-0.9271,0.0,0.0,0.0,0.0,0.0,0.0,0.0,0.0,0.0,0.0,0.0,0.0,0.0,0.0,0.0,0.0,0.0,0.0,0.0,0.0,0.0,0.0,0.0,0.0,0.0,0.0,0.0,0.0,-1.255,-1.2876,-1.3315,-1.3532,-1.3743,-1.4169,-1.4169,-1.4277,-1.4493,-1.4067,-1.3959,-1.4169,-1.4169,-1.4169,-1.4169,-1.4385,-1.4385,-1.4277,-1.46,-1.4922,-1.5357,-1.5785,-1.5891,-1.5891,-1.5891,-1.5891,-1.5891,0.0,0.0,0.0,0.0,0.0,0.0,0.0,0.0,0.0,0.0,0.0,0.0,0.0,0.0,0.0,0.0,0.0,0.0,-0.4821,-0.4694,-0.4628,-0.4831,-0.4295,-0.4228,-0.4764,-0.4694,-0.5024,-0.5888,-0.6256,-0.6203,-0.5797,-0.6538,-0.6693,-0.6328,-0.6492,-0.649,-0.6338,-0.6338,-0.6338,-0.6338,-0.6264,-0.6346,-0.6491,0.0,0.0,0.0,0.0,0.0,0.0,0.0,-0.7323,-0.7143,-0.7418,-0.761,-0.764,-0.7464,-0.8146,-0.8879,-0.8308,-0.8514,0.0,0.0,0.0,0.0,0.0,0.0,0.0,0.0,0.0,0.0,0.0,0.0,0.0,0.0,0.0,0.0,0.0,0.0,0.0,0.0,0.0,0.0,0.0,0.0,0.0,0.0,0.0,0.0,0.0,-1.2985,-1.3315,-1.3315,-1.3846,-1.4169,-1.4169,-1.4169,-1.4493,-1.5041,-1.5041,-1.4713,-1.4169,-1.4169,-1.4169,-1.4277,-1.4821,-1.4713,-1.4277,-1.5458,-1.5891,-1.5891,-1.5891,-1.5891,-1.5891,-1.5891,-1.5891,-1.5891,0.0,0.0,0.0,0.0,0.0,0.0,0.0,0.0,0.0,0.0,0.0,0.0,0.0,0.0,0.0,0.0,0.0,0.0,-0.5219,-0.4697,-0.4564,-0.5024,-0.4361,-0.4161,-0.4434,-0.4561,-0.4824,-0.5355,-0.5504,-0.5703,-0.581,-0.6155,-0.631,-0.627,-0.6391,-0.6335,-0.6338,-0.6338,-0.6338,-0.6271,-0.6369,-0.6498,-0.6651,0.0,0.0,0.0,0.0,0.0,0.0,0.0,0.0,0.0,-0.7361,-0.7427,-0.7502,-0.7621,-0.7934,-0.8222,-0.8336,0.0,0.0,0.0,0.0,0.0,0.0,0.0,0.0,0.0,0.0,0.0,0.0,0.0,0.0,0.0,0.0,0.0,0.0,0.0,0.0,0.0,0.0,0.0,0.0,0.0,0.0,0.0,0.0,0.0,0.0,-1.255,-1.3093,-1.3959,-1.4062,-1.46,-1.5351,-1.5351,-1.5458,-1.5678,-1.5678,-1.5571,-1.5351,-1.5351,-1.5351,-1.5351,-1.5571,-1.5565,-1.5458,-1.5779,-1.5891,-1.5891,-1.5891,-1.5891,-1.5891,-1.5891,-1.5891,-1.5891,0.0,0.0,0.0,0.0,0.0,0.0,0.0,0.0,0.0,0.0,0.0,0.0,0.0,0.0,0.0,0.0,0.0,0.0,0.0,0.0,-0.4295,-0.4625,-0.4359,-0.4295,-0.45,-0.4543,-0.4701,-0.4971,-0.525,-0.5461,-0.5676,-0.5897,-0.6013,-0.618,-0.618,-0.618,-0.6338,-0.6338,-0.6338,-0.6352,-0.6417,-0.6563,-0.6719,0.0,0.0,0.0,0.0,0.0,0.0,0.0,0.0,0.0,0.0,0.0,0.0,-0.7658,-0.7822,-0.8044,-0.8582,0.0,0.0,0.0,0.0,0.0,0.0,0.0,0.0,0.0,0.0,0.0,0.0,0.0,0.0,0.0,0.0,0.0,0.0,0.0,0.0,0.0,0.0,0.0,0.0,0.0,0.0,0.0,0.0,0.0,0.0,-1.3197,-1.3738,-1.4493,-1.4708,-1.5244,-1.5891,-1.5891,-1.5891,-1.5891,-1.5891,-1.5891,-1.5891,-1.5891,-1.5891,-1.5891,-1.5891,-1.5891,-1.5891,-1.5891,-1.5891,-1.5891,-1.5891,-1.5891,-1.5891,-1.5891,-1.5891,-1.5891,0.0,0.0,0.0,0.0,0.0,0.0,0.0,0.0,0.0,0.0,0.0,0.0,0.0,0.0,0.0,0.0,0.0,0.0,0.0,0.0,-0.4028,-0.4095,-0.4492,-0.4694,-0.4831,-0.4683,-0.4616,-0.4769,-0.5256,-0.546,-0.5435,-0.572,-0.5864,-0.5864,-0.5864,-0.6022,-0.6338,-0.6338,-0.6338,-0.6274,-0.643,-0.6576,-0.6719,-0.6885,0.0,0.0,0.0,0.0,0.0,0.0,0.0,0.0,-0.7322,-0.737,-0.74,-0.7553,-0.7889,-0.8298,0.0,0.0,0.0,0.0,0.0,0.0,0.0,0.0,0.0,0.0,0.0,0.0,0.0,0.0,0.0,0.0,0.0,0.0,0.0,0.0,0.0,0.0,0.0,0.0,0.0,0.0,0.0,0.0,0.0,0.0,-1.3207,-1.4283,-1.4826,-1.4928,-1.5464,-1.5891,-1.5891,-1.5891,-1.5891,-1.5891,-1.5891,-1.5891,-1.5891,-1.5891,-1.5891,-1.5891,-1.5891,-1.5891,-1.5891,-1.5891,-1.5891,-1.5891,-1.5891,-1.5891,-1.5891,-1.5891,-1.5891,-1.5891,0.0,0.0,0.0,0.0,0.0,0.0,0.0,0.0,0.0,0.0,0.0,0.0,0.0,0.0,0.0,0.0,0.0,0.0,0.0,0.0,-0.4361,-0.5093,-0.5024,-0.509,-0.5296,-0.5024,-0.5145,-0.5538,-0.5393,-0.5327,-0.5435,-0.5573,-0.5712,-0.5864,-0.5864,-0.6022,-0.6338,-0.6338,-0.6338,-0.6285,-0.6546,-0.6671,-0.6729,-0.6993,-0.7112,0.0,0.0,0.0,0.0,0.0,0.0,0.0,-0.7322,-0.737,-0.74,-0.7553,-0.8335,-0.9096,0.0,0.0,0.0,0.0,0.0,0.0,0.0,0.0,0.0,0.0,0.0,0.0,0.0,0.0,0.0,0.0,0.0,0.0,0.0,0.0,0.0,0.0,0.0,0.0,0.0,0.0,0.0,0.0,0.0,0.0,-1.255,-1.331,-1.3851,-1.4385,-1.4928,-1.5464,-1.5891,-1.5891,-1.5891,-1.5891,-1.5891,-1.5891,-1.5891,-1.5891,-1.5891,-1.5891,-1.5891,-1.5891,-1.5891,-1.5891,-1.5891,-1.5891,-1.5891,-1.5891,-1.5891,-1.5891,-1.5891,-1.5891,0.0,0.0,0.0,0.0,0.0,0.0,0.0,0.0,0.0,0.0,0.0,0.0,0.0,0.0,0.0,0.0,0.0,0.0,0.0,0.0,0.0,-0.5362,-0.5093,-0.5125,-0.5467,-0.554,-0.5616,-0.5759,-0.5761,0.0,0.0,0.0,0.0,-0.5864,0.0,-0.6022,-0.6338,-0.6338,-0.6298,-0.6383,-0.661,-0.6746,-0.6834,-0.7054,-0.7139,-0.7139,-0.7139,0.0,0.0,0.0,0.0,0.0,0.0,0.0,-0.7292,-0.7444,-0.7855,-0.8532,0.0,0.0,0.0,0.0,0.0,0.0,0.0,0.0,0.0,0.0,0.0,0.0,0.0,0.0,0.0,0.0,0.0,0.0,0.0,0.0,0.0,0.0,0.0,0.0,0.0,0.0,0.0,0.0,0.0,-1.3088,-1.2876,-1.3954,-1.46,-1.46,-1.5143,-1.5571,-1.5891,-1.5891,-1.5891,-1.5891,-1.5891,-1.5891,-1.5891,-1.5891,-1.5891,-1.5891,-1.5891,-1.5891,-1.5891,-1.5891,-1.5891,-1.5891,-1.5891,-1.5891,-1.5891,-1.5891,-1.5891,-1.5891,0.0,0.0,0.0,0.0,0.0,0.0,0.0,0.0,0.0,0.0,0.0,0.0,0.0,0.0,0.0,0.0,0.0,0.0,0.0,0.0,0.0,0.0,-0.5163,-0.5151,-0.5549,-0.5934,-0.594,-0.5686,0.0,0.0,0.0,0.0,0.0,-0.5941,0.0,-0.6099,-0.6342,-0.6288,-0.6366,-0.6488,-0.6668,-0.6817,-0.6946,-0.7085,-0.7139,-0.7139,-0.7139,-0.7139,-0.7139,-0.7139,0.0,0.0,0.0,0.0,-0.7166,-0.7292,-0.7368,-0.7897,0.0,0.0,0.0,0.0,0.0,0.0,0.0,0.0,0.0,0.0,0.0,0.0,0.0,0.0,0.0,0.0,0.0,0.0,0.0,0.0,0.0,0.0,0.0,0.0,0.0,0.0,0.0,0.0,0.0,-1.3846,-1.3207,-1.4821,-1.5464,-1.4928,-1.5571,-1.5891,-1.5891,-1.5891,-1.5891,-1.5891,-1.5891,-1.5891,-1.5891,-1.5891,-1.5891,-1.5891,-1.5891,-1.5891,-1.5891,-1.5891,-1.5891,-1.5891,-1.5891,-1.5891,-1.5891,-1.5891,-1.5891,-1.5891,0.0,0.0,0.0,0.0,0.0,0.0,0.0,0.0,0.0,0.0,0.0,0.0,0.0,0.0,0.0,0.0,0.0,0.0,-0.43,0.0,0.0,-0.5428,-0.5624,-0.5634,-0.5459,-0.5878,-0.5892,-0.5548,0.0,0.0,0.0,0.0,0.0,-0.5941,0.0,0.0,-0.6271,-0.639,-0.6454,-0.6498,-0.6783,-0.6912,-0.6946,-0.7085,-0.7139,-0.7139,-0.7139,-0.7139,-0.7139,-0.7139,-0.7139,0.0,0.0,0.0,-0.7143,-0.7166,-0.7974,0.0,0.0,0.0,0.0,0.0,0.0,0.0,0.0,0.0,0.0,0.0,0.0,0.0,0.0,0.0,0.0,0.0,0.0,0.0,0.0,0.0,0.0,0.0,0.0,0.0,0.0,0.0,0.0,0.0,-1.3846,-1.3738,-1.255,-1.4169,-1.4821,-1.4277,-1.5351,-1.5891,-1.5891,-1.5891,-1.5891,-1.5891,-1.5891,-1.5891,-1.5891,-1.5891,-1.5891,-1.5891,-1.5891,-1.5891,-1.5891,-1.5891,-1.5891,-1.5891,-1.5891,-1.5891,-1.5891,-1.5891,-1.5891,-1.5891,0.0,0.0,0.0,0.0,0.0,0.0,0.0,0.0,0.0,0.0,0.0,0.0,0.0,0.0,0.0,-0.4025,-0.4097,-0.4364,-0.4897,-0.503,-0.5163,-0.5362,-0.5226,-0.5235,-0.5259,-0.5664,-0.5742,0.0,0.0,0.0,0.0,-0.6099,-0.6099,0.0,0.0,0.0,0.0,0.0,0.0,-0.6739,-0.6875,-0.7232,-0.7748,-0.7291,-0.7404,-0.7841,-0.7316,-0.7139,-0.7139,-0.7234,-0.7231,-0.7139,-0.7234,0.0,0.0,0.0,-0.7815,0.0,0.0,0.0,0.0,0.0,0.0,0.0,0.0,0.0,0.0,0.0,0.0,0.0,0.0,0.0,0.0,0.0,0.0,0.0,0.0,0.0,0.0,0.0,0.0,0.0,0.0,0.0,0.0,0.0,-1.4283,-1.4277,-1.3413,-1.4708,-1.525,-1.4713,-1.5464,-1.5891,-1.5891,-1.5891,-1.5891,-1.5891,-1.5891,-1.5891,-1.5891,-1.5891,-1.5891,-1.5891,-1.5891,-1.5891,-1.5891,-1.5891,-1.5891,-1.5891,-1.5891,-1.5891,-1.5891,-1.5891,-1.5891,-1.5891,0.0,0.0,0.0,0.0,0.0,0.0,0.0,0.0,0.0,0.0,0.0,0.0,0.0,0.0,0.0,0.0,-0.4298,-0.4631,-0.5229,-0.503,-0.5113,-0.5416,-0.5014,-0.4918,-0.5222,-0.5472,0.0,0.0,0.0,0.0,-0.6018,-0.618,-0.6338,0.0,-0.6338,0.0,0.0,0.0,0.0,0.0,0.0,0.0,0.0,-0.7753,-0.7929,-0.8368,-0.7404,-0.7139,-0.7139,-0.7323,-0.7234,-0.7143,-0.7323,-0.7262,0.0,0.0,0.0,0.0,0.0,0.0,0.0,0.0,0.0,0.0,0.0,0.0,0.0,0.0,0.0,0.0,0.0,0.0,0.0,0.0,0.0,0.0,0.0,0.0,0.0,0.0,0.0,0.0,0.0,0.0,0.0,0.0,-1.4928,-1.4922,-1.4277,-1.5244,-1.5571,-1.5035,-1.5571,-1.5891,-1.5891,-1.5891,-1.5891,-1.5891,-1.5891,-1.5891,-1.5891,-1.5891,-1.5891,-1.5891,-1.5891,-1.5891,-1.5891,-1.5891,-1.5891,-1.5891,-1.5891,-1.5891,-1.5891,-1.5891,-1.5891,-1.5891,0.0,0.0,0.0,0.0,0.0,0.0,0.0,0.0,0.0,0.0,0.0,0.0,-0.5064,-0.4888,-0.4764,-0.4764,-0.4628,-0.4628,-0.4831,-0.5163,-0.5426,-0.5572,-0.5365,0.0,-0.5297,-0.5571,0.0,0.0,0.0,0.0,-0.6261,-0.6261,-0.6338,-0.6338,-0.6338,-0.6339,-0.6481,0.0,0.0,0.0,0.0,0.0,0.0,0.0,0.0,0.0,0.0,0.0,-0.7139,-0.7139,-0.7139,-0.7139,-0.7139,-0.7241,-0.736,0.0,0.0,0.0,0.0,0.0,0.0,0.0,0.0,0.0,0.0,0.0,0.0,0.0,0.0,0.0,0.0,0.0,0.0,0.0,0.0,0.0,0.0,0.0,0.0,0.0,0.0,0.0,0.0,0.0,0.0,0.0,-1.5464,-1.5351,-1.4277,-1.5244,-1.5571,-1.5035,-1.5571,-1.5891,-1.5891,-1.5891,-1.5891,-1.5891,-1.5891,-1.5891,-1.5891,-1.5891,-1.5891,-1.5891,-1.5891,-1.5891,-1.5891,-1.5891,-1.5891,-1.5891,-1.5891,-1.5891,-1.5891,-1.5891,-1.5891,-1.5891,0.0,0.0,0.0,0.0,0.0,0.0,0.0,0.0,0.0,0.0,0.0,0.0,0.0,-0.4761,-0.4694,-0.4694,-0.4625,-0.4691,-0.4957,-0.5177,-0.5388,-0.5375,-0.5185,-0.5222,-0.5571,-0.5473,0.0,0.0,0.0,-0.6412,-0.6338,-0.6563,-0.6613,-0.6396,-0.6396,-0.6478,-0.6627,-0.678,0.0,0.0,0.0,0.0,0.0,0.0,0.0,0.0,0.0,0.0,0.0,-0.8403,-0.7927,-0.7139,-0.7323,-0.7341,-0.7499,-0.798,-0.8479,0.0,0.0,0.0,0.0,0.0,0.0,0.0,0.0,0.0,0.0,0.0,0.0,0.0,0.0,0.0,0.0,0.0,0.0,0.0,0.0,0.0,0.0,0.0,0.0,0.0,0.0,0.0,0.0,0.0,0.0,-1.5672,-1.5351,-1.5678,-1.5785,-1.5571,-1.5785,-1.5891,-1.5891,-1.5891,-1.5891,-1.5891,-1.5891,-1.5891,-1.5891,-1.5891,-1.5891,-1.5891,-1.5891,-1.5891,-1.5891,-1.5891,-1.5891,-1.5891,-1.5891,-1.5891,-1.5891,-1.5891,-1.5891,-1.5891,0.0,0.0,0.0,0.0,0.0,0.0,0.0,0.0,0.0,0.0,0.0,0.0,0.0,0.0,-0.5043,-0.5225,-0.5271,-0.5433,-0.5709,-0.5807,-0.5888,-0.587,-0.5686,-0.5731,-0.617,-0.5826,0.0,0.0,0.0,0.0,0.0,-0.6788,-0.6798,-0.6638,-0.6687,-0.6716,0.0,0.0,0.0,-0.7319,0.0,0.0,-0.9932,0.0,0.0,0.0,0.0,0.0,0.0,0.0,0.0,0.0,-0.8106,-0.7854,-0.766,-0.8301,-0.875,0.0,0.0,0.0,0.0,0.0,0.0,0.0,0.0,0.0,0.0,0.0,0.0,0.0,0.0,0.0,0.0,0.0,0.0,0.0,0.0,0.0,0.0,0.0,0.0,0.0,0.0,0.0,0.0,0.0,0.0,0.0,-1.5891,-1.5891,-1.5891,-1.5891,-1.5891,-1.5891,-1.5891,-1.5891,-1.5891,-1.5891,-1.5891,-1.5891,-1.5891,-1.5891,-1.5891,-1.5891,-1.5891,-1.5891,-1.5891,-1.5891,-1.5891,-1.5891,-1.5891,-1.5891,-1.5891,-1.5891,-1.5891,-1.5891,0.0,0.0,0.0,0.0,0.0,0.0,0.0,0.0,0.0,-0.587,0.0,0.0,0.0,0.0,0.0,-0.6474,-0.6635,-0.6801,-0.6952,-0.7027,-0.6965,-0.6986,-0.6779,-0.6783,-0.718,-0.6791,0.0,0.0,0.0,0.0,0.0,0.0,-0.6883,-0.6816,-0.7047,-0.7042,-0.6936,0.0,-0.7194,-0.768,0.0,-1.0106,-1.0294,0.0,0.0,0.0,-0.9191,-0.8993,0.0,0.0,0.0,0.0,0.0,0.0,0.0,0.0,0.0,0.0,0.0,0.0,0.0,0.0,0.0,0.0,0.0,0.0,0.0,0.0,0.0,0.0,0.0,0.0,0.0,0.0,0.0,0.0,0.0,0.0,0.0,0.0,0.0,0.0,0.0,0.0,0.0,0.0,-1.5891,-1.5891,-1.5891,-1.5891,-1.5891,-1.5891,-1.5891,-1.5891,-1.5891,-1.5891,-1.5891,-1.5891,-1.5891,-1.5998,-1.5992,-1.5998,-1.5998,-1.5992,-1.5998,-1.5998,-1.5992,-1.5891,-1.5891,-1.5891,-1.5891,-1.5891,-1.5891,-1.5891,-1.5891,-1.5891,0.0,0.0,0.0,0.0,0.0,0.0,0.0,0.0,0.0,0.0,0.0,0.0,-0.6455,-0.6583,-0.6682,-0.6875,-0.6777,-0.6801,-0.6877,-0.6925,-0.702,-0.6994,-0.7044,-0.7134,-0.7407,-0.7134,-0.7206,0.0,0.0,0.0,0.0,0.0,0.0,0.0,-0.7879,-0.8138,-0.8127,-0.7956,0.0,0.0,-0.9763,-1.0458,0.0,0.0,0.0,0.0,0.0,-1.1192,-1.141,0.0,-1.1595,-1.0032,0.0,0.0,0.0,0.0,0.0,0.0,-0.992,0.0,0.0,0.0,0.0,0.0,0.0,0.0,0.0,0.0,0.0,0.0,0.0,0.0,0.0,0.0,0.0,0.0,0.0,0.0,0.0,0.0,0.0,0.0,0.0,0.0,0.0,0.0,-1.5891,-1.5891,-1.5891,-1.5891,-1.5891,-1.5891,-1.5891,-1.5891,-1.5891,-1.5891,-1.6205,-1.6836,-1.6836,-1.7153,-1.7687,-1.7153,-1.7153,-1.7687,-1.7041,-1.7153,-1.7575,-1.6418,-1.5891,-1.5891,-1.5891,-1.5891,-1.5891,-1.5891,-1.6311,-1.6836,0.0,0.0,0.0,0.0,0.0,0.0,0.0,0.0,0.0,0.0,0.0,0.0,-0.7043,-0.7166,-0.7283,-0.7428,-0.7496,-0.7535,-0.7608,-0.7637,-0.7701,-0.7555,-0.7656,-0.7791,-0.7868,-0.7643,-0.7715,0.0,0.0,0.0,0.0,0.0,0.0,0.0,0.0,0.0,0.0,0.0,0.0,0.0,-1.0274,0.0,0.0,-1.2025,-1.2598,0.0,0.0,0.0,-1.2842,-1.3661,-1.2614,0.0,0.0,0.0,0.0,0.0,0.0,0.0,0.0,0.0,0.0,0.0,0.0,0.0,-1.1585,-1.178,-1.2268,0.0,0.0,0.0,0.0,0.0,0.0,0.0,0.0,0.0,0.0,0.0,0.0,0.0,0.0,0.0,0.0,-1.5891,-1.5891,-1.5891,-1.5891,-1.5891,-1.5891,-1.5891,-1.5891,-1.5891,-1.5891,-1.5891,-1.5891,-1.5891,-1.6311,-1.7252,-1.7252,-1.7569,-1.8422,-1.7891,-1.7996,-1.8415,-1.7755,-1.7804,-1.8116,-1.6951,-1.6729,-1.6942,-1.6942,-1.6942,-1.6942,-1.6942,-1.7259,-1.7674,0.0,0.0,0.0,0.0,0.0,0.0,0.0,0.0,0.0,0.0,-0.755,-0.7563,-0.7735,-0.7724,-0.7847,-0.8148,-0.8378,-0.8475,-0.8699,-0.8703,-0.8627,-0.8479,-0.8403,-0.8403,-0.8403,-0.8234,-0.8239,-0.8435,0.0,0.0,0.0,0.0,0.0,0.0,0.0,0.0,0.0,0.0,0.0,-0.8719,-1.0783,-1.1558,0.0,0.0,-1.3517,0.0,-1.3579,-1.387,-1.4029,-1.4398,-1.3703,0.0,0.0,0.0,0.0,0.0,-1.0314,0.0,0.0,0.0,0.0,0.0,0.0,0.0,-1.2273,-1.2175,-1.2268,-1.3715,0.0,0.0,0.0,0.0,0.0,0.0,0.0,0.0,0.0,0.0,0.0,0.0,0.0,0.0,-1.5801,-1.5831,-1.5849,-1.5849,-1.5873,-1.5891,-1.5891,-1.5891,-1.5891,-1.5891,-1.5891,-1.5891,-1.5891,-1.5891,-1.6293,-1.7206,-1.7206,-1.7711,-1.8421,-1.8421,-1.8525,-1.8511,-1.8126,-1.8006,-1.8086,-1.7803,-1.7922,-1.8317,-1.8317,-1.8317,-1.8317,-1.8317,-1.8317,-1.8421,-0.9279,0.0,0.0,0.0,0.0,0.0,0.0,0.0,0.0,0.0,-0.8806,-0.865,-0.8689,-0.8748,-0.8732,-0.8812,-0.8685,-0.8627,-0.8703,-0.8703,-0.8703,-0.8627,-0.8627,-0.8627,-0.8627,-0.859,-0.8674,-0.8885,0.0,0.0,0.0,0.0,0.0,0.0,0.0,0.0,0.0,0.0,0.0,-1.0524,-1.1655,0.0,-1.2289,-1.3597,-1.446,-1.4979,-1.4786,-1.5245,-1.592,-1.5596,-1.5026,-1.4345,0.0,0.0,0.0,0.0,0.0,0.0,0.0,0.0,0.0,0.0,0.0,0.0,-1.1198,-1.1096,-1.1194,0.0,0.0,0.0,0.0,0.0,0.0,0.0,0.0,0.0,0.0,0.0,0.0,0.0,0.0,0.0,-1.5264,-1.5451,-1.5572,-1.5572,-1.5771,-1.5891,-1.5891,-1.5891,-1.5891,-1.5891,-1.5891,-1.5891,-1.5891,-1.5891,-1.62,-1.6911,-1.7531,-1.8115,-1.8681,-1.8574,-1.8964,-1.9566,-1.8798,-1.8867,-1.9465,-1.9396,-1.8654,-1.7573,-1.7573,-1.7573,-1.7573,-1.7573,-1.7967,-1.8567,-0.9676,0.0,0.0,0.0,0.0,0.0,0.0,0.0,0.0,0.0,-0.938,-0.9299,-0.9299,-0.918,-0.9175,-0.9175,-0.9094,-0.9013,-0.9013,-0.9013,-0.9133,-0.9314,-0.9246,-0.9218,-0.9321,-0.9483,-0.9459,-0.9336,0.0,0.0,0.0,0.0,0.0,0.0,0.0,0.0,0.0,0.0,-1.1039,-1.1641,-1.2472,0.0,-1.3754,-1.5373,-1.6147,-1.6382,-1.6317,-1.6441,-1.6581,-1.6749,-1.5886,0.0,0.0,-1.3788,-1.2834,0.0,-1.2549,-1.2651,0.0,0.0,0.0,-1.198,0.0,0.0,0.0,-1.1585,-1.1585,0.0,0.0,0.0,0.0,0.0,0.0,0.0,0.0,0.0,0.0,0.0,0.0,0.0,0.0,0.0,-1.5107,-1.5228,-1.5306,-1.5306,-1.5427,-1.5499,-1.5499,-1.5499,-1.5499,-1.5499,-1.5499,-1.5499,-1.5499,-1.5499,-1.6047,-1.7123,-1.7528,-1.8246,-1.9275,-1.9267,-1.947,-1.9852,-1.9291,-1.9229,-1.9606,-1.9423,-1.8869,-1.8126,-1.8551,-1.8678,-1.8678,-1.8678,-1.8867,-1.9267,-1.0142,0.0,0.0,0.0,0.0,0.0,0.0,0.0,0.0,-0.9975,-0.9878,-0.9846,-0.9846,0.0,0.0,0.0,-1.0024,-1.0051,0.0,0.0,-0.9983,-1.0174,-1.0027,-1.0031,-1.0212,-1.0374,-1.0319,-0.9958,0.0,0.0,0.0,0.0,0.0,0.0,0.0,0.0,0.0,0.0,0.0,-1.2633,0.0,-1.419,-1.5345,-1.7018,-1.7613,-1.7447,-1.7764,-1.7512,-1.7052,-1.7505,-1.6553,-1.514,-1.552,-1.514,0.0,0.0,0.0,0.0,0.0,0.0,0.0,0.0,0.0,-1.178,0.0,0.0,0.0,0.0,0.0,0.0,0.0,0.0,0.0,0.0,0.0,0.0,0.0,0.0,0.0,0.0,0.0,0.0,-1.4855,-1.4903,-1.4951,-1.5107,-1.5005,-1.5005,-1.5107,-1.5107,-1.5107,-1.5107,-1.5107,-1.5107,-1.5107,-1.5202,-1.5972,-1.7209,-1.7513,-1.8265,-1.9461,-1.9662,-1.9669,-1.9646,-1.9383,-1.9264,-1.9248,-1.8947,-1.8827,-1.8883,-1.9447,-1.9669,-1.9669,-1.9669,-1.9669,-1.9669,-1.0995,-1.0876,0.0,0.0,0.0,0.0,0.0,0.0,0.0,0.0,0.0,0.0,0.0,0.0,0.0,0.0,0.0,0.0,-1.2085,0.0,0.0,-1.098,-1.074,-1.067,-1.0939,-1.0778,-1.0724,-1.0861,0.0,0.0,0.0,0.0,0.0,0.0,-1.1923,0.0,0.0,0.0,-1.279,0.0,-1.4243,-1.5026,0.0,-1.6937,-1.7643,-1.8253,-1.8517,-1.8643,-1.845,0.0,-1.7131,-1.6197,0.0,-1.5242,-1.4956,0.0,0.0,0.0,0.0,0.0,0.0,0.0,-1.2175,0.0,0.0,0.0,-1.1683,-1.1683,0.0,0.0,0.0,0.0,0.0,0.0,0.0,0.0,0.0,0.0,0.0,0.0,0.0,0.0,0.0,-1.4225,-1.4554,-1.5089,-1.4904,-1.4898,-1.5107,-1.5107,-1.5107,-1.5107,-1.5107,-1.5107,-1.5107,-1.5796,-1.6056,-1.6006,-1.7383,-1.8007,-1.7991,-1.866,-1.8947,-1.8947,-1.8907,-1.8891,-1.8883,-1.8843,-1.8827,-1.8835,-1.8915,-1.8947,-1.8947,-1.8947,-1.8947,-1.8947,-1.1681,0.0,0.0,0.0,0.0,0.0,0.0,0.0,0.0,0.0,0.0,0.0,0.0,0.0,0.0,0.0,0.0,-1.3146,0.0,0.0,0.0,0.0,0.0,0.0,-1.1867,-1.1867,-1.1752,-1.1442,-1.1697,0.0,0.0,0.0,0.0,0.0,-1.2619,0.0,-1.2357,0.0,0.0,0.0,0.0,0.0,0.0,-1.759,-1.8159,-1.8629,-1.8772,-1.8827,-1.8735,0.0,-1.7419,0.0,0.0,0.0,0.0,0.0,0.0,0.0,0.0,0.0,0.0,0.0,0.0,0.0,-1.2268,0.0,-1.1975,0.0,0.0,0.0,0.0,0.0,0.0,0.0,-1.2501,0.0,0.0,0.0,0.0,0.0,0.0,0.0,0.0,0.0,0.0,-1.463,-1.4826,-1.5022,-1.5218,-1.5316,-1.5316,-1.5316,-1.4832,-1.4636,-1.4636,-1.4918,-1.5538,-1.6293,-1.6961,-1.7653,-1.835,-1.8635,-1.8827,-1.8827,-1.8827,-1.8827,-1.8827,-1.8827,-1.8827,-1.8827,-1.8827,-1.8827,-1.8827,-1.8827,-1.8827,-1.8827,-1.2644,0.0,0.0,0.0,0.0,0.0,0.0,0.0,0.0,0.0,0.0,0.0,-1.2293,-1.2538,0.0,0.0,-1.4539,-1.4511,0.0,0.0,-1.3655,0.0,0.0,0.0,0.0,0.0,-1.2619,-1.2186,-1.2448,0.0,0.0,0.0,0.0,0.0,0.0,-1.347,-1.33,0.0,0.0,-1.5443,-1.5881,-1.6689,-1.7634,-1.8229,-1.8605,-1.8827,-1.8827,-1.8827,-1.8735,-1.8542,-1.7692,0.0,-1.7885,0.0,0.0,0.0,0.0,0.0,-1.3908,0.0,0.0,0.0,0.0,0.0,0.0,0.0,0.0,0.0,0.0,0.0,0.0,0.0,0.0,0.0,0.0,-1.2646,0.0,0.0,0.0,0.0,0.0,0.0,0.0,0.0,-1.3858,-1.431,-1.4787,-1.5262,-1.5454,-1.5741,-1.5803,-1.5724,-1.4962,-1.458,-1.458,-1.458,-1.5153,-1.6298,-1.6669,-1.7419,-1.8542,-1.8735,-1.8827,-1.8827,-1.8827,-1.8827,-1.8827,-1.8827,-1.8827,-1.8827,-1.8827,-1.8827,-1.8827,-1.8827,-1.8827,-1.8735,-1.4027,-1.3484,0.0,0.0,0.0,0.0,0.0,0.0,0.0,0.0,0.0,0.0,0.0,0.0,0.0,0.0,0.0,-1.7908,-1.6406,0.0,-1.5921,0.0,0.0,-1.388,0.0,0.0,-1.3137,-1.3313,-1.3143,-1.3143,0.0,0.0,0.0,0.0,0.0,-1.4055,-1.4139,-1.4748,-1.5529,-1.6286,-1.6585,-1.7003,-1.744,0.0,-1.8819,-1.8827,-1.8827,0.0,0.0,-1.7971,-1.7692,0.0,0.0,0.0,0.0,0.0,0.0,0.0,0.0,0.0,0.0,-1.3044,0.0,0.0,0.0,0.0,-1.2078,0.0,0.0,0.0,0.0,0.0,0.0,-1.2368,0.0,0.0,0.0,0.0,0.0,0.0,0.0,0.0,0.0,-1.3249,-1.3442,-1.4283,-1.4875,-1.5354,-1.5745,-1.6614,-1.6875,-1.6595,-1.5818,-1.5337,-1.5337,-1.5337,-1.5432,-1.5439,-1.6936,-1.7692,-1.7785,-1.845,-1.8827,-1.8827,-1.8827,-1.8827,-1.8827,-1.8827,-1.8827,-1.8827,-1.8827,-1.8827,-1.8827,-1.8827,-1.8827,-1.8735,0.0,0.0,0.0,0.0,0.0,0.0,0.0,-1.4436,0.0,0.0,0.0,0.0,0.0,-1.6244,-1.6959,0.0,0.0,-1.8149,-1.6519,-1.6437,0.0,0.0,0.0,-1.4055,0.0,0.0,-1.3483,-1.3398,-1.3307,-1.3307,0.0,0.0,0.0,0.0,0.0,-1.423,0.0,0.0,0.0,0.0,0.0,-1.7137,-1.7627,0.0,-1.7934,-1.7865,-1.8556,-1.8827,0.0,-1.8542,-1.8064,-1.7785,-1.7978,-1.752,-1.7044,-1.7131,-1.6936,-1.6466,0.0,0.0,-1.588,-1.419,0.0,0.0,0.0,0.0,0.0,0.0,0.0,0.0,0.0,0.0,0.0,-1.2657,0.0,0.0,0.0,0.0,0.0,0.0,0.0,0.0,0.0,0.0,0.0,-1.4307,-1.5158,-1.595,-1.6851,-1.7239,-1.749,-1.7655,-1.6964,-1.6197,-1.5439,-1.5432,-1.5432,-1.5439,-1.648,-1.7225,-1.7692,-1.845,-1.8827,-1.8827,-1.8827,-1.8827,-1.8827,-1.8827,-1.8827,-1.8827,-1.8827,-1.8827,-1.8827,-1.8827,-1.8827,-1.8735,-1.5205,0.0,0.0,0.0,0.0,0.0,0.0,0.0,0.0,0.0,-1.5929,0.0,-1.7279,0.0,-1.8241,0.0,-1.8948,-1.8541,-1.6601,-1.6772,0.0,-1.5621,-1.5054,0.0,0.0,0.0,0.0,-1.4146,-1.373,-1.3568,0.0,0.0,0.0,0.0,0.0,0.0,0.0,0.0,-1.7087,0.0,0.0,-1.7152,0.0,0.0,-1.746,-1.7591,0.0,-1.8827,-1.8827,-1.8827,-1.845,-1.8164,-1.8635,-1.8172,-1.752,-1.7978,-1.7598,-1.7037,-1.685,-1.7124,0.0,-1.5432,-1.5432,0.0,-1.3811,0.0,-1.3431,0.0,0.0,0.0,0.0,0.0,0.0,0.0,-1.2764,0.0,0.0,-1.2953,0.0,0.0,0.0,0.0,0.0,0.0,-1.3715,-1.4004,-1.5053,-1.6043,0.0,-1.733,-1.7872,-1.802,-1.7523,-1.6954,-1.619,-1.6008,-1.5724,-1.5439,-1.6204,-1.6864,-1.7326,-1.8071,-1.8542,-1.8827,-1.8827,-1.8827,-1.8827,-1.8827,-1.8827,-1.8827,-1.8827,-1.8827,-1.8827,-1.8827,-1.8458,-1.7986,0.0,0.0,0.0,0.0,-1.4821,0.0,0.0,0.0,-1.5536,0.0,-1.7382,-1.7785,-1.8903,-1.9788,-1.9963,-1.9018,-1.9747,0.0,-1.6935,-1.7594,0.0,0.0,-1.678,-1.7107,-1.7997,0.0,0.0,0.0,0.0,-1.3822,-1.4088,0.0,0.0,0.0,-1.3828,0.0,-1.6102,-1.6538,-1.7648,-1.9049,-1.7788,-1.7078,-1.6823,-1.7154,-1.7492,-1.7878,-1.8542,-1.8827,-1.8827,-1.8827,-1.8827,-1.8827,-1.8827,-1.8827,-1.8827,-1.8827,-1.8827,-1.8643,-1.7971,-1.7785,-1.7505,-1.6473,-1.6285,0.0,0.0,0.0,-1.4567,0.0,0.0,0.0,0.0,0.0,0.0,0.0,0.0,0.0,0.0,0.0,0.0,0.0,0.0,0.0,0.0,-1.3061,-1.3263,-1.3491,-1.4801,0.0,0.0,-1.7036,-1.8058,-1.7721,-1.7714,-1.78,-1.7692,-1.6951,-1.6292,-1.5439,-1.6204,-1.6588,-1.6581,-1.7326,-1.8071,-1.8735,-1.8735,-1.8735,-1.8827,-1.8827,-1.8827,-1.8827,-1.8827,-1.8827,-1.8827,-1.8827,-1.7893,-1.6864,-1.6393,-1.6277,-1.6137,0.0,-1.599,-1.6095,0.0,0.0,0.0,0.0,-1.8372,-1.9,-2.043,-2.1231,-2.1165,-1.9991,-2.0547,0.0,0.0,0.0,0.0,-1.8301,-1.7261,-1.7107,-1.7997,-1.6206,0.0,-1.5394,0.0,0.0,-1.4088,0.0,0.0,0.0,0.0,0.0,-1.5675,-1.6096,-1.6949,-1.7966,-1.7866,-1.7491,0.0,0.0,-1.7956,-1.8342,-1.9088,-1.9096,-1.8827,-1.8827,-1.8827,-1.8827,-1.8827,-1.8827,-1.8827,-1.8827,-1.8827,-1.8735,-1.8542,-1.8542,-1.8257,-1.7304,-1.7016,-1.6734,0.0,0.0,0.0,0.0,0.0,0.0,0.0,0.0,0.0,0.0,0.0,0.0,0.0,0.0,0.0,-1.2861,0.0,0.0,0.0,-1.3019,-1.3342,-1.3805,-1.4277,0.0,0.0,0.0,-1.7819,-1.8073,-1.865,-1.8527,-1.7692,-1.7505,-1.7044,-1.6298,-1.6487,-1.6588,-1.6588,-1.677,-1.7326,-1.7971,-1.7971,-1.8257,-1.8827,-1.8827,-1.8827,-1.8827,-1.8827,-1.8827,-1.8827,-1.8827,-1.8164,-1.7505,-1.7246,0.0,0.0,-1.6984,0.0,0.0,-1.7025,0.0,0.0,-1.878,-1.9088,0.0,-2.1145,-2.2004,-2.2101,-2.1098,-2.1405,0.0,-1.9404,0.0,0.0,-1.9325,-1.893,-1.893,-1.9423,-1.8035,0.0,-1.669,0.0,0.0,-1.4503,0.0,0.0,0.0,0.0,-1.4606,0.0,-1.7064,-1.7733,-1.7987,-1.8523,0.0,0.0,-1.8629,-1.9118,-1.9621,-2.0085,-1.9637,-1.8827,-1.8827,-1.8827,-1.8827,-1.8827,-1.8827,-1.8827,-1.8827,-1.8827,-1.8827,-1.8827,-1.8827,-1.8635,-1.8064,-1.7963,-1.7684,-1.6835,-1.6648,-1.656,0.0,-1.619,-1.6001,0.0,0.0,0.0,0.0,0.0,0.0,0.0,0.0,0.0,0.0,-1.2856,0.0,0.0,-1.2981,-1.3155,-1.3352,-1.3876,0.0,0.0,0.0,-1.7216,-1.7508,-1.8165,-1.8364,-1.8164,-1.7777,-1.7404,-1.7044,-1.7044,-1.6958,-1.6588,-1.6588,-1.6951,-1.7692,-1.7692,-1.8164,-1.8827,-1.8827,-1.8827,-1.8827,-1.8827,-1.8635,-1.835,-1.835,-1.7885,-1.7232,0.0,0.0,0.0,0.0,0.0,0.0,0.0,-1.7188,0.0,-1.9464,0.0,-2.0246,-2.1507,-2.2446,-2.2777,-2.2176,0.0,-2.1538,-2.0256,-2.0827,-2.0914,-2.0256,-2.0827,-2.1165,-2.1165,-2.0343,0.0,0.0,0.0,0.0,0.0,0.0,0.0,0.0,0.0,0.0,0.0,-1.841,-1.8937,-1.8353,-1.947,-1.9815,-1.978,-1.992,-2.0421,-2.0988,-2.0907,-2.0093,-1.9012,-1.9012,-1.892,-1.892,-1.892,-1.8827,-1.8827,-1.8827,-1.8827,-1.8827,-1.8827,-1.8827,-1.8827,-1.8827,-1.8827,-1.8635,-1.7971,-1.7878,-1.7692,-1.7052,-1.6864,-1.677,-1.6473,0.0,0.0,0.0,0.0,0.0,0.0,0.0,0.0,0.0,0.0,0.0,0.0,0.0,0.0,0.0,0.0,0.0,0.0,0.0,-1.6581,-1.677,-1.7217,-1.787,-1.8635,-1.787,-1.7584,-1.7692,-1.7692,-1.7326,-1.6588,-1.6588,-1.6951,-1.7598,-1.7692,-1.8164,-1.8827,-1.8827,-1.8735,-1.8635,-1.8635,-1.8164,-1.7598,-1.7598,-1.7037,-1.6581,0.0,0.0,0.0,0.0,0.0,-1.9186,-1.9866,-1.9719,-1.9875,-2.0961,-2.1278,-2.1745,-2.2606,-2.2916,-2.2777,-2.2176,-2.2101,0.0,0.0,0.0,0.0,-2.17,-2.1395,-2.1165,-2.1165,-2.0343,-1.9464,0.0,0.0,0.0,0.0,0.0,0.0,0.0,0.0,0.0,-1.6952,-1.7529,0.0,-1.8377,-1.9667,-2.0056,-1.9894,-2.058,-2.0845,-2.0907,-2.0555,-2.0292,-2.0019,-2.0019,-1.9737,-1.9463,-1.9463,-1.9188,-1.8827,-1.8827,-1.8827,-1.8827,-1.8827,-1.8827,-1.8827,-1.8827,-1.8827,-1.8735,-1.8643,-1.8635,-1.8542,-1.8458,-1.8458,-1.8172,-1.7598,0.0,0.0,0.0,0.0,0.0,0.0,0.0,0.0,0.0,0.0,-1.3522,0.0,0.0,0.0,0.0,0.0,0.0,0.0,0.0,-1.6662,0.0,-1.8164,-1.835,0.0,0.0,-1.8257,-1.7692,-1.7692,-1.7326,-1.6588,-1.6588,-1.6676,-1.6864,-1.7412,-1.8164,-1.8827,-1.8827,-1.845,-1.7878,-1.7878,-1.7419,-1.677,-1.677,-1.6292,-1.5724,0.0,0.0,0.0,0.0,0.0,0.0,0.0,-2.1527,0.0,-2.1441,-2.1517,-2.1756,-2.2134,-2.2692,-2.2852,-2.2628,-2.2553,-2.2553,-2.2553,-2.2317,-2.2241,-2.2553,-2.2317,0.0,-2.2155,-2.1745,-2.0807,-1.9404,0.0,0.0,0.0,0.0,0.0,0.0,0.0,-1.6899,0.0,0.0,0.0,-1.9454,-2.0549,-2.0971,-2.082,-2.1203,-2.1365,-2.1365,-2.1105,-2.1015,-2.0925,-2.0473,-2.0102,-1.992,-1.9646,-1.9463,-1.9188,-1.892,-1.8827,-1.8827,-1.8827,-1.8827,-1.8827,-1.8827,-1.8827,-1.8827,-1.8827,-1.8827,-1.8827,-1.8827,-1.8827,-1.8542,-1.7878,-1.6756,0.0,0.0,0.0,0.0,0.0,0.0,0.0,0.0,0.0,0.0,0.0,0.0,0.0,0.0,0.0,0.0,0.0,0.0,-1.6662,0.0,0.0,0.0,-1.8257,0.0,-1.8064,-1.8257,-1.8257,-1.7885,-1.7138,-1.7138,-1.7138,-1.7232,-1.7505,-1.8164,-1.8735,-1.8357,-1.8064,-1.7692,-1.7318,-1.6958,-1.6588,-1.6109,-1.5724,-1.5439,0.0,-2.002,0.0,0.0,-2.0857,0.0,-2.215,-2.2778,-2.28,-2.1842,-2.1838,-2.189,-2.189,-2.2778,-2.3318,-2.3318,-2.322,-2.3154,-2.3154,-2.3056,-2.3001,-2.3001,-2.3001,-2.3001,-2.3001,-2.3001,-2.222,0.0,0.0,0.0,0.0,0.0,0.0,0.0,0.0,0.0,0.0,0.0,-2.061,-2.0889,-2.1454,-2.1741,-2.1741,-2.1741,-2.1741,-2.1741,-2.1741,-2.1741,-2.1562,-2.0835,-2.0564,-2.0374,-2.0002,-1.982,-1.9646,-1.9096,-1.9004,-1.892,-1.8827,-1.8827,-1.8827,-1.8827,-1.8827,-1.8827,-1.8827,-1.8827,-1.8827,-1.8827,-1.8827,-1.8542,-1.7878,-1.7232,0.0,0.0,0.0,0.0,0.0,0.0,0.0,0.0,0.0,0.0,-1.4771,0.0,0.0,0.0,0.0,0.0,-1.4555,0.0,0.0,0.0,0.0,-1.7684,-1.8357,0.0,-1.7963,-1.8542,-1.8735,-1.845,-1.7692,-1.7878,-1.7878,-1.7692,-1.7878,-1.8257,-1.8735,-1.7971,-1.7598,-1.7412,-1.6669,-1.6204,-1.6015,-1.5439,-1.5153,-1.5153,0.0,0.0,0.0,0.0,0.0,0.0,-2.2558,-2.3262,-2.3427,-2.2896,-2.3232,-2.3503,-2.3503,-2.3994,-2.4344,-2.4344,-2.3929,-2.3656,-2.3656,-2.3252,-2.3001,-2.3001,-2.3001,-2.3001,-2.3001,-2.3001,-2.2542,0.0,0.0,-1.9761,0.0,0.0,0.0,0.0,0.0,0.0,0.0,-2.1325,-2.1774,-2.253,-2.1909,-2.1741,-2.1741,-2.1741,-2.1741,-2.1741,-2.1741,-2.1741,-2.1651,-2.1553,-2.1275,-2.0907,-2.0907,-2.0555,-2.011,-1.9646,-1.9554,-1.9463,-1.8912,-1.8827,-1.8827,-1.8827,-1.8827,-1.8827,-1.8827,-1.8827,-1.8827,-1.8827,-1.8827,-1.8542,-1.7878,-1.7598,-1.7419,0.0,0.0,0.0,0.0,0.0,0.0,0.0,0.0,0.0,0.0,-1.449,0.0,0.0,-1.419,0.0,0.0,0.0,0.0,-1.7692,-1.7692,-1.7412,-1.677,-1.8079,-1.835,-1.7785,-1.845,-1.845,-1.7692,-1.8357,-1.835,-1.7785,-1.845,-1.8735,-1.8735,-1.7971,-1.7326,-1.6581,-1.5818,-1.5057,-1.449,-1.4388,-1.4388,-1.4388,0.0,0.0,0.0,0.0,0.0,0.0,0.0,-2.417,-2.4115,-2.3919,-2.4061,-2.4181,-2.4181,-2.4366,-2.4486,-2.4486,-2.4301,-2.4181,-2.4181,-2.3711,-2.3438,-2.3438,-2.3154,-2.3001,-2.3001,-2.3001,-2.2617,0.0,0.0,0.0,0.0,0.0,0.0,0.0,0.0,-2.172,-2.2215,-2.2224,-2.2422,-2.2715,-2.2008,-2.1741,-2.1741,-2.1741,-2.1741,-2.1741,-2.1741,-2.1741,-2.1741,-2.1741,-2.1553,-2.1365,-2.1087,-2.0907,-2.0645,-2.0192,-2.0011,-2.0011,-1.9745,-1.9745,-1.9654,-1.9371,-1.9279,-1.9188,-1.8827,-1.8827,-1.8827,-1.8827,-1.8827,-1.8735,-1.845,-1.7971,-1.7785,-1.7893,0.0,0.0,0.0,0.0,0.0,0.0,0.0,0.0,0.0,0.0,0.0,0.0,0.0,0.0,0.0,0.0,0.0,-1.7044,0.0,-1.7978,-1.7232,-1.8265,-1.8635,-1.835,-1.8635,-1.8643,-1.8357,-1.8643,-1.8643,-1.835,-1.8643,-1.8542,-1.8071,-1.7326,-1.6574,-1.5818,-1.5057,-1.4586,-1.4298,-1.4298,-1.4298,-1.4298,-2.4595,0.0,-2.3633,0.0,-2.4117,-2.4138,-2.5127,-2.5059,-2.4886,-2.4891,-2.4902,-2.4847,-2.4705,-2.4825,-2.4902,-2.4902,-2.477,-2.4694,-2.4694,-2.4224,-2.3886,-2.3733,-2.3394,0.0,-2.3001,-2.3001,-2.2692,-2.2145,-2.1499,0.0,0.0,0.0,0.0,0.0,-2.2271,-2.2794,-2.2975,-2.3063,-2.3135,-2.3047,-2.2087,-2.1741,-2.1741,-2.1741,-2.1741,-2.1741,-2.1741,-2.1741,-2.1741,-2.1741,-2.1741,-2.1642,-2.1275,-2.1177,-2.1087,-2.0645,-2.0464,-2.0464,-2.0382,-2.0292,-2.0201,-1.9737,-1.9637,-1.9463,-1.892,-1.8827,-1.8827,-1.8827,-1.8827,-1.8827,-1.8827,-1.835,-1.8164,-1.845,0.0,0.0,0.0,-1.8635,0.0,0.0,-1.7145,-1.6676,-1.6857,-1.535,0.0,0.0,0.0,0.0,0.0,0.0,0.0,0.0,0.0,0.0,-1.7692,-1.845,-1.8827,-1.8827,-1.8827,-1.8827,-1.8827,-1.8827,-1.8827,-1.8827,-1.8542,-1.8257,-1.7971,-1.6958,-1.6298,-1.5724,-1.4962,-1.4484,-1.4298,-1.4298,-1.4298,-1.4298,-2.6299,-2.5381,-2.4781,-2.5604,-2.5194,-2.5037,-2.5699,-2.5766,-2.5795,-2.5902,-2.5884,-2.5699,-2.5218,-2.56,-2.5884,-2.5884,-2.5448,-2.5164,-2.5164,-2.4738,-2.4257,0.0,0.0,-2.3493,-2.3012,-2.3001,-2.3001,-2.3001,0.0,0.0,-2.1987,0.0,-2.139,-2.2333,-2.3053,-2.3813,-2.4473,-2.3947,-2.38,-2.3714,-2.2246,-2.1741,-2.1741,-2.1741,-2.1741,-2.1741,-2.1741,-2.1741,-2.1741,-2.1741,-2.1741,-2.1741,-2.1731,-2.1731,-2.1642,-2.1087,-2.0988,-2.0907,-2.0473,-2.0292,-2.0201,-1.9737,-1.9637,-1.9463,-1.892,-1.8827,-1.8827,-1.8827,-1.8827,-1.8827,-1.8827,-1.8827,-1.8542,-1.7878,0.0,0.0,0.0,-1.8357,0.0,-1.7785,-1.7044,-1.6864,-1.7598,-1.6278,0.0,0.0,0.0,0.0,0.0,0.0,0.0,-1.7692,-1.7692,0.0,-1.7692,-1.845,-1.8827,-1.8827,-1.8827,-1.8827,-1.8827,-1.8827,-1.8827,-1.8735,-1.8064,-1.8164,-1.8643,-1.7239,-1.6581,-1.6487,-1.5724,-1.4962,-1.4298,-1.4298,-1.4298,-1.4298,-2.8567,-2.7607,-2.6971,-2.7597,-2.6966,-2.6438,-2.6691,-2.6445,-2.6266,-2.6351,-2.6052,-2.5913,-2.6068,-2.5964,-2.5895,0.0,-2.5764,-2.5666,0.0,-2.5218,-2.488,-2.4716,-2.4082,-2.3656,-2.3504,-2.3176,-2.3001,-2.3001,0.0,0.0,0.0,-2.1878,-2.2172,-2.2788,-2.3332,-2.3964,-2.4451,-2.4115,-2.3944,-2.3714,-2.2784,-2.2185,-2.1741,-2.1741,-2.1741,-2.1741,-2.1741,-2.1741,-2.1741,-2.1741,-2.1741,-2.1741,-2.1741,-2.1741,-2.1642,-2.1553,-2.1463,-2.1454,-2.1284,-2.1284,-2.1105,-2.0637,-2.0275,-1.992,-1.9463,-1.9096,-1.8827,-1.8827,-1.8827,-1.8827,-1.8827,-1.8827,-1.8735,-1.845,-1.8643,0.0,-1.845,0.0,-1.7885,-1.7512,-1.6574,-1.6393,-1.7326,-1.6386,0.0,0.0,0.0,0.0,0.0,0.0,0.0,0.0,-1.7885,0.0,-1.7692,-1.845,-1.8827,-1.8827,-1.8827,-1.8827,-1.8827,-1.8827,-1.8827,-1.8827,-1.8542,-1.8257,-1.7978,-1.7505,-1.7044,-1.6581,-1.6298,-1.6109,-1.5913,-1.5913,-1.5534,-1.5153,-3.0177,-2.9426,-2.8875,-2.9139,-2.8513,-2.7932,-2.7855,-2.7348,-2.6951,-2.6775,-2.6539,-2.6456,-2.6775,-2.6539,0.0,-2.5895,-2.5895,-2.5895,-2.5895,-2.5622,-2.536,-2.5175,-2.4596,-2.4104,-2.3733,-2.3427,0.0,-2.3001,-2.2531,-2.2231,-2.2231,-2.2439,-2.2734,-2.3023,-2.3514,-2.3908,-2.4168,-2.3895,-2.3635,-2.3493,-2.2717,-2.2097,-2.1741,-2.1741,-2.1741,-2.1741,-2.1741,-2.1741,-2.1741,-2.1741,-2.1741,-2.1741,-2.1741,-2.1741,-2.1741,-2.1741,-2.1741,-2.1741,-2.1741,-2.1741,-2.1553,-2.0916,-2.0555,-2.0201,-1.9729,-1.9188,-1.8827,-1.9096,-1.892,-1.8827,-1.8827,-1.8827,-1.8827,-1.8827,-1.8827,-1.8735,-1.8743,0.0,-1.78,0.0,0.0,0.0,0.0,-1.6857,-1.6763,0.0,0.0,0.0,0.0,0.0,-1.7326,-1.7426,-1.8365,-1.8542,-1.8164,-1.8542,-1.8827,-1.8827,-1.8827,-1.8827,-1.8827,-1.8827,-1.8827,-1.8735,-1.8542,-1.8257,-1.8071,-1.7785,-1.7412,-1.7044,-1.7044,-1.6864,-1.6588,-1.6588,-1.6103,-1.5439,-3.1307,-3.0771,-3.0393,-3.0393,-2.9871,-2.9341,-2.887,-2.8339,-2.7788,-2.7348,-2.7185,-2.7185,-2.7267,-2.7185,-2.6857,-2.6063,0.0,0.0,-2.5895,-2.5895,-2.5699,-2.524,-2.5196,-2.4749,-2.3842,-2.3766,-2.3493,-2.3001,-2.3001,-2.3001,-2.3001,-2.3001,-2.3001,-2.3023,-2.3482,-2.37,-2.371,-2.3299,-2.3096,-2.2988,-2.2108,-2.1756,-2.1695,-2.1695,-2.1713,-2.1741,-2.1741,-2.1741,-2.1741,-2.1741,-2.1741,-2.1741,-2.1741,-2.1741,-2.1741,-2.1741,-2.1741,-2.1741,-2.1741,-2.1741,-2.1463,-2.0654,-2.0382,-2.0201,-1.9737,-1.9279,-1.9004,-1.9463,-1.9188,-1.8827,-1.8827,-1.8827,-1.8827,-1.8827,-1.8827,-1.8743,-1.8574,-1.8481,-1.8195,0.0,0.0,0.0,-1.7692,-1.7692,-1.7963,0.0,0.0,0.0,0.0,0.0,-1.7274,-1.8696,-1.8764,-1.8756,-1.8756,-1.8756,-1.8756,-1.8756,-1.8756,-1.8756,-1.8756,-1.8756,-1.8756,-1.8664,-1.7995,-1.8095,-1.8664,-1.7995,-1.7725,-1.7747,-1.7747,-1.7304,-1.677,-1.677,-1.6292,-1.5527,0.0,0.0,-3.0996,-3.0996,-3.0469,-2.9793,-2.8949,-2.8645,-2.8419,-2.7788,-2.7441,-2.736,-2.7708,-2.7441,-2.7103,-2.694,-2.6528,-2.6218,-2.5895,-2.5895,-2.5852,-2.5732,-2.5371,-2.5065,-2.4836,-2.4104,-2.3493,-2.3001,-2.3001,-2.3001,-2.3001,-2.3001,-2.3001,-2.3001,-2.3121,-2.3372,-2.3667,-2.3584,-2.3228,-2.2654,-2.2423,-2.1901,-2.1255,-2.1255,-2.1456,-2.1741,-2.1741,-2.1741,-2.1741,-2.1741,-2.1741,-2.1741,-2.1741,-2.1741,-2.1741,-2.1741,-2.1741,-2.1741,-2.1741,-2.1741,-2.1651,-2.1374,-2.1096,-2.0727,-2.0283,-2.0019,-1.992,-1.9646,-1.9463,-1.9279,-1.892,-1.8827,-1.8827,-1.8827,-1.8658,-1.8566,-1.8481,-1.8001,-1.7621,0.0,-1.7333,-1.7326,-1.7986,-1.7986,-1.7887,0.0,0.0,-1.75,-1.7242,-1.687,-1.7251,-1.8414,-1.816,-1.8025,-1.8025,-1.8025,-1.8025,-1.8025,-1.8025,-1.8025,-1.8025,-1.8025,-1.8025,-1.8017,-1.784,-1.784,-1.8017,-1.784,-1.7901,-1.8143,-1.8143,-1.8216,-1.8265,-1.8265,-1.7792,-1.7217,-3.2182,-3.1936,-3.1629,-3.1629,-3.1158,-3.0545,-3.0012,-2.9406,-2.8961,-2.8657,-2.8087,-2.7846,-2.8122,-2.7938,-2.7684,-2.7534,-2.7115,-2.661,-2.6218,-2.6135,-2.6052,-2.5895,-2.5644,-2.5404,-2.5175,-2.4661,-2.405,-2.3329,-2.311,-2.3001,-2.3001,-2.3001,-2.3001,-2.3001,-2.3001,-2.3143,-2.3329,-2.3317,-2.2998,-2.2522,-2.2168,-2.1733,-2.1278,-2.0927,-2.0979,-2.1181,-2.1181,-2.1181,-2.1209,-2.1392,-2.1447,-2.1484,-2.1676,-2.1741,-2.1741,-2.1741,-2.1741,-2.1741,-2.1741,-2.1741,-2.1642,-2.1454,-2.1006,-2.0645,-2.0645,-2.0464,-2.0201,-2.0011,-1.9737,-1.9463,-1.892,-1.8827,-1.8827,-1.8827,-1.8658,-1.8481,-1.8481,-1.8001,-1.7807,-1.8009,-1.7815,-1.784,-1.814,-1.8216,-1.7985,-1.7466,-1.7435,0.0,-1.7167,-1.7021,-1.7272,-1.8049,-1.7874,-1.7771,-1.7771,-1.7771,-1.7771,-1.7771,-1.7771,-1.7771,-1.7771,-1.7771,-1.7771,-1.7771,-1.7771,-1.7771,-1.7771,-1.7771,-1.7882,-1.8057,-1.8057,-1.8176,-1.8343,-1.8343,-1.7985,-1.7574,-3.2182,-3.2182,-3.2182,-3.2182,-3.1703,-3.1307,-3.1233,-3.0317,-2.9639,-2.9574,-2.904,-2.8669,-2.8669,-2.859,-2.8351,-2.8042,-2.7615,-2.7185,-2.661,-2.661,-2.6445,-2.6146,-2.6063,-2.5782,-2.5365,-2.5289,-2.4694,-2.3733,-2.3307,-2.3078,-2.3001,-2.3001,-2.3001,-2.3001,-2.3001,-2.3001,-2.3023,-2.2817,-2.2678,-2.2553,-2.1838,-2.1545,-2.1355,-2.0764,-2.055,-2.0521,-2.0521,-2.0521,-2.0567,-2.0906,-2.1016,-2.108,-2.1438,-2.1548,-2.1548,-2.1548,-2.1548,-2.1575,-2.1704,-2.1741,-2.1642,-2.1177,-2.0826,-2.0645,-2.0997,-2.0826,-2.0473,-2.0292,-2.0011,-1.9554,-1.892,-1.8827,-1.8827,-1.8743,-1.8566,-1.8481,-1.8481,0.0,-1.8103,-1.8403,-1.8448,-1.8383,-1.8255,-1.8216,-1.8073,-1.7723,-1.7691,-1.7676,-1.762,-1.735,-1.7326,-1.7604,-1.7612,-1.7612,-1.7612,-1.7612,-1.7612,-1.7612,-1.7612,-1.7612,-1.7612,-1.7612,-1.7612,-1.7612,-1.7612,-1.7612,-1.7612,-1.7612,-1.7644,-1.7691,-1.7691,-1.7723,-1.7771,-1.7771,-1.7609,-1.7326,-3.2182,-3.2182,-3.2182,-3.2182,-3.2096,-3.1863,-3.1307,-3.1071,-3.0771,-3.0241,-2.9639,-2.9263,-2.9263,-2.8816,-2.851,-2.8431,-2.8351,-2.7926,-2.7185,-2.7103,-2.7103,-2.7021,-2.661,-2.6412,-2.6333,-2.5617,-2.4694,-2.3733,-2.3656,-2.3405,-2.3001,-2.3001,-2.3001,-2.3001,-2.3001,-2.3001,-2.3001,-2.3003,-2.266,-2.2216,-2.206,-2.1597,-2.0886,-2.0795,-2.0623,-2.0521,-2.0521,-2.0521,-2.053,-2.0585,-2.0613,-2.0622,-2.0686,-2.0714,-2.0714,-2.0714,-2.0714,-2.086,-2.1548,-2.1741,-2.1651,-2.1642,-2.1553,-2.1463,-2.1553,-2.1553,-2.1284,-2.0473,-2.0201,-1.9928,-1.9012,-1.8827,-1.8743,-1.8566,-1.8373,-1.8179,-1.8179,0.0,-1.775,-1.7939,-1.7951,-1.7914,-1.7858,-1.7858,-1.7715,-1.7382,-1.7358,-1.7223,-1.6913,-1.6849,-1.6841,-1.6889,-1.6897,-1.6897,-1.6897,-1.6897,-1.6897,-1.6897,-1.6897,-1.6897,-1.6897,-1.6897,-1.6897,-1.6897,-1.6897,-1.6897,-1.6897,-1.6897,-1.708,-1.7358,-1.7358,-1.7525,-1.7771,-1.7771,-1.7715,-1.7675,-3.2182,-3.2182,-3.2182,-3.2182,-3.2182,-3.2096,-3.1776,-3.1455,-3.1071,-3.0846,-2.9947,-2.9484,-2.9871,-2.904,-2.8657,-2.8961,-2.8657,-2.8351,-2.7926,-2.7696,-2.7441,-2.7185,-2.6775,-2.6362,-2.6218,-2.5497,-2.4956,-2.4508,-2.3984,-2.3613,-2.3383,-2.3121,-2.3001,-2.3001,-2.3001,-2.3001,-2.3001,-2.3001,-2.2852,-2.2553,-2.2252,-2.1845,-2.1467,-2.1154,-2.0967,-2.0822,-2.05,-2.0348,-2.0304,-2.0209,-2.02,-2.0237,-2.0448,-2.0521,-2.0521,-2.0521,-2.0668,-2.0915,-2.1291,-2.1566,-2.1741,-2.1741,-2.1741,-2.1741,-2.1741,-2.1741,-2.1463,-2.0473,-2.0292,-2.0019,-1.9012,-1.8827,-1.8735,-1.8574,-1.8218,-1.8002,-1.8002,-1.7702,-1.7575,-1.784,-1.7787,-1.7699,-1.7525,-1.7509,-1.7366,-1.7008,-1.6984,-1.6913,-1.6746,-1.673,-1.673,-1.673,-1.673,-1.673,-1.673,-1.673,-1.673,-1.673,-1.673,-1.673,-1.673,-1.673,-1.673,-1.673,-1.673,-1.673,-1.673,-1.673,-1.6833,-1.6984,-1.6984,-1.708,-1.7215,-1.7215,-1.7334,-1.7509,-3.2182,-3.2182,-3.2182,-3.2182,-3.2182,-3.2182,-3.2182,-3.1776,-3.1455,-3.1455,-3.0482,-3.0012,-3.0469,-2.9574,-2.904,-2.9341,-2.8961,-2.8669,-2.851,-2.8203,-2.7869,-2.751,-2.694,-2.6456,-2.6063,-2.5617,-2.5284,-2.5175,-2.4432,-2.3951,-2.3722,-2.334,-2.311,-2.3001,-2.3001,-2.3001,-2.3001,-2.3001,-2.3001,-2.2927,-2.2478,-2.2262,-2.2025,-2.1558,-2.1318,-2.1165,-2.0624,-2.0313,-2.0215,-1.999,-1.9869,-1.9833,-2.0145,-2.0237,-2.0237,-2.0237,-2.0521,-2.0851,-2.0943,-2.1209,-2.1456,-2.1456,-2.1456,-2.1456,-2.1456,-2.1456,-2.1192,-2.0384,-2.0214,-1.9847,-1.8854,-1.8672,-1.8581,-1.8323,0.0,-1.7737,-1.7737,-1.7531,-1.74,-1.766,-1.758,-1.7429,-1.7183,-1.7151,-1.7032,-1.6754,-1.673,-1.673,-1.673,-1.673,-1.673,-1.673,-1.673,-1.673,-1.673,-1.673,-1.673,-1.673,-1.673,-1.673,-1.673,-1.673,-1.673,-1.673,-1.673,-1.673,-1.673,-1.673,-1.673,-1.673,-1.673,-1.673,-1.673,-1.673,-1.6913,-1.7151,-3.2182,-3.2182,-3.2182,-3.2182,-3.2182,-3.2182,-3.2182,-3.2169,-3.2096,-3.2096,-3.1542,-3.1071,-3.1145,-3.0545,-2.9947,-2.9419,-2.9341,-2.9118,-2.851,-2.851,-2.8431,-2.8431,-2.7603,-2.694,-2.6445,-2.6019,-2.5622,-2.5175,-2.5109,-2.4607,-2.3733,-2.3689,-2.3438,-2.3001,-2.3001,-2.3001,-2.3001,-2.3001,-2.3001,-2.3001,-2.2927,-2.2628,-2.2101,-2.2025,-2.1711,-2.1165,-2.1165,-2.0702,-2.0167,-2.0205,-1.9822,-1.9356,-1.9384,-1.9393,-1.9393,-1.9393,-1.9687,-2.0099,-2.0466,-2.0585,-2.0613,-2.0613,-2.0613,-2.0613,-2.0613,-2.0613,-2.0443,-1.9942,-1.9856,-1.9505,-1.8626,-1.8452,-1.8191,-1.7588,0.0,0.0,-1.7469,-1.7173,-1.704,-1.731,-1.7016,-1.6802,-1.6778,-1.6778,-1.6762,-1.673,-1.673,-1.673,-1.673,-1.673,-1.673,-1.673,-1.673,-1.673,-1.673,-1.673,-1.673,-1.673,-1.673,-1.673,-1.673,-1.673,-1.673,-1.673,-1.673,-1.673,-1.673,-1.673,-1.673,-1.673,-1.673,-1.673,-1.673,-1.673,-1.6754,-1.6778,-3.2182,-3.2182,-3.2182,-3.2182,-3.2182,-3.2182,-3.2182,-3.2182,-3.2182,-3.2182,-3.1629,-3.1381,-3.1776,-3.0934,-3.0241,-2.9947,-2.9651,-2.9118,-2.851,-2.851,-2.8351,-2.8122,-2.7788,-2.7452,-2.6928,-2.6539,-2.6202,-2.6013,-2.5469,-2.4989,-2.4607,-2.4006,-2.3624,-2.3438,-2.3132,-2.3001,-2.3001,-2.3001,-2.3001,-2.3001,-2.3001,-2.2852,-2.2628,-2.2628,-2.2553,-2.2241,-2.1863,-2.1558,-2.1328,-2.0934,-2.0702,-2.0391,-2.0001,-2.0157,-2.0391,-2.0001,-1.9729,-1.9577,-1.9723,-2.0136,-2.0521,-2.0521,-2.0521,-2.0521,-2.0521,-2.0521,-2.0352,-1.9938,-1.9768,-1.9589,-1.8981,-1.8629,-1.8284,-1.7866,0.0,-1.7298,-1.711,-1.6899,-1.6846,-1.6945,-1.6818,-1.673,-1.673,-1.673,-1.673,-1.673,-1.673,-1.673,-1.673,-1.673,-1.673,-1.673,-1.673,-1.673,-1.673,-1.673,-1.673,-1.673,-1.673,-1.673,-1.673,-1.673,-1.673,-1.673,-1.673,-1.673,-1.673,-1.673,-1.673,-1.673,-1.673,-1.673,-1.673,-1.673,-1.673,-1.673,-3.2182,-3.2182,-3.2182,-3.2182,-3.2182,-3.2182,-3.2182,-3.2182,-3.2182,-3.2182,-3.1776,-3.1703,-3.2169,-3.1408,-3.0784,-3.062,-3.0024,-2.9419,-2.8803,-2.859,-2.8351,-2.8122,-2.7962,-2.7719,-2.7441,-2.694,-2.6693,-2.6693,-2.6121,-2.5713,-2.5385,-2.4569,-2.3952,-2.3711,-2.322,-2.3001,-2.3001,-2.3001,-2.3001,-2.3001,-2.3001,-2.3001,-2.3001,-2.3001,-2.3001,-2.2927,-2.2553,-2.2252,-2.2025,-2.1634,-2.1395,-2.1088,-2.0624,-2.0857,-2.1088,-2.0624,-2.0079,-1.9608,-1.9608,-1.9866,-2.0136,-2.0136,-2.0136,-2.0136,-2.0136,-2.0136,-2.0053,-1.9731,-1.9647,-1.9481,-1.9063,-1.8718,-1.838,-1.7965,-1.76,-1.7187,-1.6836,-1.6716,-1.673,-1.673,-1.673,-1.673,-1.673,-1.673,-1.673,-1.673,-1.673,-1.673,-1.673,-1.673,-1.673,-1.673,-1.673,-1.673,-1.673,-1.673,-1.673,-1.673,-1.673,-1.673,-1.673,-1.673,-1.673,-1.673,-1.673,-1.673,-1.673,-1.673,-1.673,-1.673,-1.673,-1.673,-1.673,-1.673,-1.673,-1.673,-3.2182,-3.2182,-3.2182,-3.2182,-3.2182,-3.2182,-3.2182,-3.2182,-3.2182,-3.2182,-3.2182,-3.2182,-3.2182,-3.2182,-3.1936,-3.1233,-3.062,-3.0024,-2.9419,-2.8816,-2.851,-2.851,-2.8122,-2.7893,-2.7893,-2.7452,-2.7185,-2.7185,-2.7185,-2.6759,-2.5777,-2.5296,-2.4581,-2.3711,-2.322,-2.3001,-2.3001,-2.3001,-2.3001,-2.3001,-2.3001,-2.3001,-2.3001,-2.3001,-2.3001,-2.3001,-2.3001,-2.2628,-2.2111,-2.2111,-2.1711,-2.1242,-2.1242,-2.1242,-2.1165,-2.1242,-2.0702,-2.0245,-2.0245,-1.9775,-1.9301,-1.9301,-1.9301,-1.9301,-1.9301,-1.9301,-1.9301,-1.9301,-1.9301,-1.9152,-1.8772,-1.87,-1.8451,-1.7554,-1.7392,-1.7229,-1.6738,-1.673,-1.673,-1.673,-1.673,-1.673,-1.673,-1.673,-1.673,-1.673,-1.673,-1.673,-1.673,-1.673,-1.673,-1.673,-1.673,-1.673,-1.673,-1.673,-1.673,-1.673,-1.673,-1.673,-1.673,-1.673,-1.673,-1.673,-1.673,-1.673,-1.673,-1.673,-1.673,-1.673,-1.673,-1.673,-1.673,-1.673,-1.673,-1.673,-3.2182,-3.2182,-3.2182,-3.2182,-3.2182,-3.2182,-3.2182,-3.2182,-3.2182,-3.2182,-3.2182,-3.2182,-3.2182,-3.2182,-3.1936,-3.1233,-3.1009,-3.0482,-2.9496,-2.8816,-2.851,-2.851,-2.8363,-2.8351,-2.8351,-2.7869,-2.7708,-2.7708,-2.736,-2.7023,-2.677,-2.5937,-2.5392,-2.5057,-2.4209,-2.3677,-2.3446,-2.3446,-2.3224,-2.3001,-2.3001,-2.3001,-2.3001,-2.3001,-2.3001,-2.3001,-2.3001,-2.2852,-2.2703,-2.2703,-2.2628,-2.2467,-2.2467,-2.1852,-2.1318,-2.1711,-2.1405,-2.0934,-2.0934,-2.0391,-1.9854,-1.9381,-1.9301,-1.9301,-1.9301,-1.9301,-1.9301,-1.9301,-1.9301,-1.9222,-1.9152,-1.8922,-1.862,-1.8371,-1.7806,-1.731,-1.7229,-1.6902,-1.673,-1.673,-1.673,-1.673,-1.673,-1.673,-1.673,-1.673,-1.673,-1.673,-1.673,-1.673,-1.673,-1.673,-1.673,-1.673,-1.673,-1.673,-1.673,-1.673,-1.673,-1.673,-1.673,-1.673,-1.673,-1.673,-1.673,-1.673,-1.673,-1.673,-1.673,-1.673,-1.673,-1.673,-1.673,-1.673,-1.673,-1.673,-3.2182,-3.2182,-3.2182,-3.2182,-3.2182,-3.2182,-3.2182,-3.2182,-3.2182,-3.2182,-3.2182,-3.2182,-3.2182,-3.2182,-3.2023,-3.1629,-3.1381,-3.0696,-2.9496,-2.904,-2.8736,-2.851,-2.851,-2.851,-2.851,-2.8283,-2.8122,-2.8122,-2.7846,-2.7603,-2.7418,-2.641,-2.5858,-2.567,-2.4648,-2.397,-2.3593,-2.3593,-2.3372,-2.3001,-2.3001,-2.3001,-2.3001,-2.3001,-2.3001,-2.3001,-2.3001,-2.3001,-2.3001,-2.3001,-2.3001,-2.3001,-2.3001,-2.2467,-2.2004,-2.2327,-2.2014,-2.1558,-2.1558,-2.1088,-2.0547,-2.0157,-1.9687,-1.9301,-1.9301,-1.9301,-1.9301,-1.9301,-1.9301,-1.9301,-1.9301,-1.9073,-1.8851,-1.87,-1.829,-1.7878,-1.7635,-1.7392,-1.7139,-1.6984,-1.6984,-1.6894,-1.673,-1.673,-1.673,-1.673,-1.673,-1.673,-1.673,-1.673,-1.673,-1.673,-1.673,-1.673,-1.673,-1.673,-1.673,-1.673,-1.673,-1.673,-1.673,-1.673,-1.673,-1.673,-1.673,-1.673,-1.673,-1.673,-1.673,-1.673,-1.673,-1.673,-1.673,-1.673,-1.673,-1.673,-3.2182,-3.2182,-3.2182,-3.2182,-3.2182,-3.2182,-3.2182,-3.2182,-3.2182,-3.2182,-3.2182,-3.2182,-3.2182,-3.2182,-3.2182,-3.2182,-3.1616,-3.0696,-2.9639,-2.9496,-2.9184,-2.859,-2.8657,-2.8669,-2.859,-2.851,-2.851,-2.851,-2.851,-2.8283,-2.795,-2.6924,-2.62,-2.5747,-2.4768,-2.4089,-2.3677,-2.3604,-2.3372,-2.3001,-2.3001,-2.3001,-2.3001,-2.3001,-2.3001,-2.3001,-2.3001,-2.3001,-2.3001,-2.3001,-2.3001,-2.3001,-2.3001,-2.3001,-2.3001,-2.3001,-2.2628,-2.2176,-2.2176,-2.1711,-2.1242,-2.1242,-2.0391,-1.945,-1.9381,-1.9381,-1.9381,-1.9301,-1.9301,-1.9301,-1.9301,-1.9301,-1.9152,-1.8772,-1.8692,-1.8531,-1.8121,-1.804,-1.7878,-1.7473,-1.7473,-1.731,-1.6902,-1.6812,-1.6738,-1.673,-1.673,-1.673,-1.673,-1.673,-1.673,-1.673,-1.673,-1.673,-1.673,-1.673,-1.673,-1.673,-1.673,-1.673,-1.673,-1.673,-1.673,-1.673,-1.673,-1.673,-1.673,-1.673,-1.673,-1.673,-1.673,-1.6738,-1.6738,-1.673,-1.6738,-1.6738,-3.2182,-3.2182,-3.2182,-3.2182,-3.2182,-3.2182,-3.2182,-3.2182,-3.2182,-3.2182,-3.2182,-3.2182,-3.2182,-3.2182,-3.2182,-3.2182,-3.1616,-3.1071,-3.0846,-3.0393,-2.9871,-2.9263,-2.9639,-2.9716,-2.9184,-2.8736,-2.851,-2.851,-2.851,-2.8431,-2.8339,-2.7693,-2.7102,-2.6598,-2.5648,-2.4777,-2.4043,-2.3751,-2.3372,-2.3001,-2.3001,-2.3001,-2.3001,-2.3001,-2.3001,-2.3001,-2.3001,-2.3001,-2.3001,-2.3001,-2.3001,-2.3001,-2.3001,-2.3001,-2.3001,-2.3001,-2.2927,-2.2777,-2.2777,-2.2392,-2.1873,-2.1873,-2.1328,-2.0624,-2.0079,-2.001,-1.9844,-1.9381,-1.9301,-1.9301,-1.9301,-1.9301,-1.9301,-1.9152,-1.8922,-1.87,-1.8531,-1.8201,-1.7959,-1.7878,-1.7878,-1.7797,-1.7716,-1.7473,-1.7066,-1.6738,-1.673,-1.673,-1.673,-1.673,-1.673,-1.673,-1.673,-1.673,-1.673,-1.673,-1.673,-1.673,-1.673,-1.673,-1.673,-1.673,-1.673,-1.673,-1.673,-1.673,-1.673,-1.673,-1.673,-1.673,-1.673,-1.6894,-1.7229,-1.682,-1.6902,-1.7229,-3.2182,-3.2182,-3.2182,-3.2182,-3.2182,-3.2182,-3.2182,-3.2182,-3.2182,-3.2182,-3.2182,-3.2182,-3.2182,-3.2182,-3.2182,-3.2182,-3.1863,-3.1542,-3.122,-3.0921,-3.0469,-2.9871,-3.0088,-3.0165,-2.9871,-2.9484,-2.9184,-2.8961,-2.8657,-2.851,-2.8498,-2.7969,-2.744,-2.6836,-2.6137,-2.5175,-2.42,-2.397,-2.3519,-2.3001,-2.3001,-2.3001,-2.3001,-2.3001,-2.3001,-2.3001,-2.3001,-2.3001,-2.3001,-2.3001,-2.3001,-2.3001,-2.3001,-2.3001,-2.3001,-2.3001,-2.3001,-2.3001,-2.3001,-2.2777,-2.2553,-2.2553,-2.2317,-2.1852,-2.0857,-2.0391,-2.0089,-1.9775,-1.9539,-1.9301,-1.9301,-1.9301,-1.9301,-1.9301,-1.9152,-1.9002,-1.9002,-1.8754,-1.8514,-1.8362,-1.8371,-1.8201,-1.7716,-1.7716,-1.7392,-1.6738,-1.6902,-1.6902,-1.673,-1.673,-1.673,-1.673,-1.673,-1.673,-1.673,-1.673,-1.673,-1.673,-1.673,-1.673,-1.673,-1.673,-1.673,-1.673,-1.673,-1.673,-1.673,-1.673,-1.6812,-1.7066,-1.7066,-1.7147,-1.7392,-1.731,-1.7392,-1.7392,-3.2182,-3.2182,-3.2182,-3.2182,-3.2182,-3.2182,-3.2182,-3.2182,-3.2182,-3.2182,-3.2182,-3.2182,-3.2182,-3.2182,-3.2182,-3.2182,-3.2182,-3.1936,-3.1381,-3.1381,-3.1084,-3.0469,-3.0558,-3.0558,-3.0469,-3.0317,-3.0012,-2.9419,-2.8895,-2.859,-2.8498,-2.8065,-2.7572,-2.7043,-2.6404,-2.5512,-2.4388,-2.4235,-2.3824,-2.3224,-2.3224,-2.315,-2.3075,-2.3075,-2.3075,-2.3001,-2.3001,-2.3001,-2.3001,-2.3001,-2.3001,-2.3001,-2.3001,-2.3001,-2.3001,-2.3001,-2.3001,-2.3001,-2.3001,-2.3001,-2.3001,-2.3001,-2.3001,-2.2767,-2.1776,-2.1011,-2.0479,-2.0401,-1.9844,-1.946,-1.9608,-1.946,-1.9301,-1.946,-1.9381,-1.9301,-1.9301,-1.9301,-1.9152,-1.8851,-1.8772,-1.8531,-1.7716,-1.7878,-1.7797,-1.6902,-1.7147,-1.7229,-1.6738,-1.673,-1.673,-1.673,-1.673,-1.673,-1.682,-1.682,-1.6812,-1.6894,-1.6894,-1.6902,-1.682,-1.6894,-1.6894,-1.6894,-1.6894,-1.6894,-1.6894,-1.6894,-1.7147,-1.7473,-1.7473,-1.7473,-1.7554,-1.7878,-1.7716,-1.7392,-3.2182,-3.2182,-3.2182,-3.2182,-3.2182,-3.2182,-3.2182,-3.2182,-3.2182,-3.2182,-3.2182,-3.2182,-3.2182,-3.2182,-3.2182,-3.2182,-3.2182,-3.2169,-3.2096,-3.2096,-3.1776,-3.1071,-3.1629,-3.1703,-3.1071,-3.0545,-3.0012,-2.9419,-2.9341,-2.904,-2.851,-2.8438,-2.8126,-2.7519,-2.6664,-2.5906,-2.5253,-2.4519,-2.4116,-2.4043,-2.4043,-2.3824,-2.3519,-2.3519,-2.3298,-2.3001,-2.3001,-2.3001,-2.3001,-2.3001,-2.3001,-2.3001,-2.3001,-2.3001,-2.3001,-2.3001,-2.3001,-2.3001,-2.3001,-2.3001,-2.3001,-2.3001,-2.3001,-2.2927,-2.2767,-2.2241,-2.1711,-2.1165,-2.0547,-2.0235,-2.0857,-2.0079,-1.946,-2.0001,-1.9618,-1.9301,-1.9301,-1.9301,-1.9301,-1.9231,-1.9222,-1.9073,-1.8531,-1.854,-1.821,-1.7392,-1.7392,-1.7229,-1.6738,-1.673,-1.673,-1.673,-1.673,-1.6902,-1.731,-1.731,-1.7473,-1.7789,-1.7789,-1.7635,-1.731,-1.7635,-1.7789,-1.7789,-1.7789,-1.7789,-1.7789,-1.7789,-1.7878,-1.7959,-1.7959,-1.7959,-1.7959,-1.7959,-1.7716,-1.7392,-3.2182,-3.2182,-3.2182,-3.2182,-3.2182,-3.2182,-3.2182,-3.2182,-3.2182,-3.2182,-3.2182,-3.2182,-3.2182,-3.2182,-3.2182,-3.2182,-3.2182,-3.2182,-3.2182,-3.2182,-3.2096,-3.1776,-3.2023,-3.2096,-3.1776,-3.1482,-3.0872,-2.9871,-2.9263,-2.8736,-2.851,-2.851,-2.8222,-2.7705,-2.7234,-2.6522,-2.5444,-2.5075,-2.4672,-2.42,-2.42,-2.4116,-2.3897,-2.3677,-2.3519,-2.3298,-2.3075,-2.3001,-2.3001,-2.3001,-2.3001,-2.3001,-2.3001,-2.3001,-2.3001,-2.3001,-2.3001,-2.3001,-2.3001,-2.3001,-2.3001,-2.3001,-2.3001,-2.3001,-2.3001,-2.2777,-2.2402,-2.1863,-2.1165,-2.0857,-2.1165,-2.0779,-2.0313,-2.0245,-2.0001,-1.9696,-1.9381,-1.9301,-1.9301,-1.9301,-1.9301,-1.9152,-1.8772,-1.8922,-1.8674,-1.7797,-1.7968,-1.7878,-1.7465,-1.7465,-1.7465,-1.7465,-1.7465,-1.7546,-1.7716,-1.7716,-1.7797,-1.804,-1.829,-1.8129,-1.7716,-1.7959,-1.804,-1.804,-1.804,-1.804,-1.804,-1.804,-1.8121,-1.8371,-1.8371,-1.8523,-1.8674,-1.8442,-1.829,-1.8129]},{"header":{"parameterUnit":"m.s-1","parameterCategory":1,"la1":30.6,"la2":28.766,"lo1":-90.7593,"lo2":-88.6598,"dy":0.0162,"dx":0.0183,"nx":116,"ny":114,"refTime":"2023-07-30T06:00:00:Z","depth":0,"parameterNumber":3,"parameterNumberName":"V-component_of_WINDS"},"data":[0.0,0.0,0.0,0.0,0.0,0.0,0.0,0.0,0.0,0.0,0.0,0.0,0.0,0.0,0.0,0.0,0.0,0.0,0.0,0.0,0.0,0.0,0.0,0.0,0.0,0.0,0.0,0.0,0.0,0.0,0.0,0.0,0.0,0.0,0.0,0.0,0.0,0.0,0.0,0.0,0.0,0.0,0.0,0.0,0.0,0.0,0.0,0.0,0.0,0.0,0.0,0.0,0.0,0.0,0.0,0.0,0.0,0.0,0.0,0.0,0.0,0.0,0.0,0.0,0.0,0.0,0.0,0.0,0.0,0.0,0.0,0.0,0.0,0.0,0.0,0.0,0.0,0.0,0.0,0.0,0.0,0.0,0.0,0.0,0.0,0.0,0.0,0.0,0.0,0.0,0.0,0.0,0.0,0.0,0.0,0.0,0.0,0.0,0.0,0.0,0.0,0.0,0.0,0.0,0.0,0.0,0.0,0.0,0.0,0.0,0.0,0.0,0.0,0.0,0.0,0.0,0.0,0.0,0.0,0.0,0.0,0.0,0.0,0.0,0.0,0.0,0.0,0.0,0.0,0.0,0.0,0.0,0.0,0.0,0.0,0.0,0.0,0.0,0.0,0.0,0.0,0.0,0.0,0.0,0.0,0.0,0.0,0.0,0.0,0.0,0.0,0.0,0.0,0.0,0.0,0.0,0.0,0.0,0.0,0.0,0.0,0.0,0.0,0.0,0.0,0.0,0.0,0.0,0.0,0.0,0.0,0.0,0.0,0.0,0.0,0.0,0.0,0.0,0.0,0.0,0.0,0.0,0.0,0.0,0.0,0.0,0.0,0.0,0.0,0.0,0.0,0.0,0.0,0.0,0.0,0.0,0.0,0.0,0.0,0.0,0.0,0.0,0.0,0.0,0.0,0.0,0.0,0.0,0.0,0.0,0.0,0.0,0.0,0.0,0.0,0.0,0.0,0.0,0.0,0.0,0.0,0.0,0.0,0.0,0.0,0.0,0.0,0.0,0.0,0.0,0.0,0.0,0.0,0.0,0.0,0.0,0.0,0.0,0.0,0.0,0.0,0.0,0.0,0.0,0.0,0.0,0.0,0.0,0.0,0.0,0.0,0.0,0.0,0.0,0.0,0.0,0.0,0.0,0.0,0.0,0.0,0.0,0.0,0.0,0.0,0.0,0.0,0.0,0.0,0.0,0.0,0.0,0.0,0.0,0.0,0.0,0.0,0.0,0.0,0.0,0.0,0.0,0.0,0.0,0.0,0.0,0.0,0.0,0.0,0.0,0.0,0.0,0.0,0.0,0.0,0.0,0.0,0.0,0.0,0.0,0.0,0.0,0.0,0.0,0.0,0.0,0.0,0.0,0.0,0.0,0.0,0.0,0.0,0.0,0.0,0.0,0.0,0.0,0.0,0.0,0.0,0.0,0.0,0.0,0.0,0.0,0.0,0.0,0.0,0.0,0.0,0.0,0.0,0.0,0.0,0.0,0.0,0.0,0.0,0.0,0.0,0.0,0.0,0.0,0.0,0.0,0.0,0.0,0.0,0.0,0.0,0.0,0.0,0.0,0.0,0.0,0.0,0.0,0.0,0.0,0.0,0.0,0.0,0.0,0.0,0.0,0.0,0.0,0.0,0.0,0.0,0.0,0.0,0.0,0.0,0.0,0.0,0.0,0.0,0.0,0.0,0.0,0.0,0.0,0.0,0.0,0.0,0.0,0.0,0.0,0.0,0.0,0.0,0.0,0.0,0.0,0.0,0.0,0.0,0.0,0.0,0.0,0.0,0.0,0.0,0.0,0.0,0.0,0.0,0.0,0.0,0.0,0.0,0.0,0.0,0.0,0.0,0.0,0.0,0.0,0.0,0.0,0.0,0.0,0.0,0.0,0.0,0.0,0.0,0.0,0.0,0.0,0.0,0.0,0.0,0.0,0.0,0.0,0.0,0.0,0.0,0.0,0.0,0.0,0.0,0.0,0.0,0.0,0.0,0.0,0.0,0.0,0.0,0.0,0.0,0.0,0.0,0.0,0.0,0.0,0.0,0.0,0.0,0.0,0.0,0.0,0.0,0.0,0.0,0.0,0.0,0.0,0.0,0.0,0.0,0.0,0.0,0.0,0.0,0.0,0.0,0.0,0.0,0.0,0.0,0.0,0.0,0.0,0.0,0.0,0.0,0.0,0.0,0.0,0.0,0.0,0.0,0.0,0.0,0.0,0.0,0.0,0.0,0.0,0.0,0.0,0.0,0.0,0.0,0.0,0.0,0.0,0.0,0.0,0.0,0.0,0.0,0.0,0.0,0.0,0.0,0.0,0.0,0.0,0.0,0.0,0.0,0.0,0.0,0.0,0.0,0.0,0.0,0.0,0.0,0.0,0.0,0.0,0.0,0.0,0.0,0.0,0.0,0.0,0.0,0.0,0.0,0.0,0.0,0.0,0.0,0.0,0.0,0.0,0.0,0.0,0.0,0.0,0.0,0.0,0.0,0.0,0.0,0.0,0.0,0.0,0.0,0.0,0.0,0.0,0.0,0.0,0.0,0.0,0.0,0.0,0.0,0.0,0.0,0.0,0.0,0.0,0.0,0.0,0.0,0.0,0.0,0.0,0.0,0.0,0.0,0.0,0.0,0.0,0.0,0.0,0.0,0.0,0.0,0.0,0.0,0.0,0.0,0.0,0.0,0.0,0.0,0.0,0.0,0.0,0.0,0.0,0.0,0.0,0.0,0.0,0.0,0.0,0.0,0.0,0.0,0.0,0.0,0.0,0.0,0.0,0.0,0.0,0.0,0.0,0.0,0.0,0.0,0.0,0.0,0.0,0.0,0.0,0.0,0.0,0.0,0.0,0.0,0.0,0.0,0.0,0.0,0.0,0.0,0.0,0.0,0.0,0.0,0.0,0.0,0.0,0.0,0.0,0.0,0.0,0.0,0.0,0.0,0.0,0.0,0.0,0.0,0.0,0.0,0.0,0.0,0.0,0.0,0.0,0.0,0.0,0.0,0.0,0.0,0.0,0.0,0.0,0.0,0.0,0.0,0.0,0.0,0.0,0.0,0.0,0.0,0.0,0.0,0.0,0.0,0.0,0.0,0.0,0.0,0.0,0.0,0.0,0.0,0.0,0.0,0.0,0.0,0.0,0.0,0.0,0.0,0.0,0.0,0.0,0.0,0.0,0.0,0.0,0.0,0.0,0.0,0.0,0.0,0.0,0.0,0.0,0.0,0.0,0.0,0.0,0.0,0.0,0.0,0.0,0.0,0.0,0.0,0.0,0.0,0.0,0.0,0.0,0.0,0.0,0.0,0.0,0.0,0.0,0.0,0.0,0.0,0.0,0.0,0.0,0.0,0.0,0.0,0.0,0.0,0.0,0.0,0.0,0.0,0.0,0.0,0.0,0.0,0.0,0.0,0.0,0.0,0.0,0.0,0.0,0.0,0.0,0.0,0.0,0.0,0.0,0.0,0.0,0.0,0.0,0.0,0.0,0.0,0.0,0.0,0.0,0.0,0.0,0.0,0.0,0.0,0.0,0.0,0.0,0.0,0.0,0.0,0.0,0.0,0.0,0.0,0.0,0.0,0.0,0.0,0.0,0.0,0.0,0.0,0.0,0.0,0.0,0.0,0.0,0.0,0.0,0.0,0.0,0.0,0.0,0.0,0.0,0.0,0.0,0.0,0.0,0.0,0.0,0.0,0.0,0.0,0.0,0.0,0.0,0.0,0.0,0.0,0.0,0.0,0.0,0.0,0.0,0.0,0.0,0.0,0.0,0.0,0.0,0.0,0.0,0.0,0.0,0.0,0.0,0.0,0.0,0.0,0.0,0.0,0.0,0.0,0.0,0.0,0.0,0.0,0.0,0.0,0.0,0.0,0.0,0.0,0.0,0.0,0.0,0.0,0.0,0.0,0.0,0.0,0.0,0.0,0.0,0.0,0.0,0.0,0.0,0.0,0.0,0.0,0.0,0.0,0.0,0.0,0.0,0.0,0.0,0.0,0.0,0.0,0.0,0.0,0.0,0.0,0.0,0.0,0.0,0.0,0.0,0.0,0.0,0.0,0.0,0.0,0.0,0.0,0.0,0.0,0.0,0.0,0.0,0.0,0.0,0.0,0.0,0.0,0.0,0.0,0.0,0.0,0.0,0.0,0.0,0.0,0.0,0.0,0.0,0.0,0.0,0.0,0.0,0.0,0.0,0.0,0.0,0.0,0.0,0.0,0.0,0.0,0.0,0.0,0.0,0.0,0.0,0.0,0.0,0.0,0.0,0.0,0.0,0.0,0.0,0.0,0.0,0.0,0.0,0.0,0.0,0.0,0.0,0.0,0.0,0.0,0.0,0.0,0.0,0.0,0.0,0.0,0.0,0.0,0.0,0.0,0.0,0.0,0.0,0.0,0.0,0.0,0.0,0.0,0.0,0.0,0.0,0.0,0.0,0.0,0.0,0.0,0.0,0.0,0.0,0.0,0.0,0.0,0.0,0.0,0.0,0.0,0.0,0.0,0.0,0.0,0.0,0.0,0.0,0.0,0.0,0.0,0.0,0.0,0.0,0.0,0.0,0.0,0.0,0.0,0.0,0.0,0.0,0.0,0.0,0.0,0.0,0.0,0.0,0.0,0.0,0.0,0.0,0.0,0.0,0.0,0.0,0.0,0.0,0.0,0.0,0.0,0.0,0.0,0.0,0.0,0.0,0.0,0.0,0.0,0.0,0.0,0.0,0.0,0.0,0.0,0.0,0.0,0.0,0.0,0.0,0.0,0.0,0.0,0.0,0.0,0.0,0.0,0.0,0.0,0.0,0.0,0.0,0.0,0.0,0.0,0.0,0.0,0.0,0.0,0.0,0.0,0.0,0.0,0.0,0.0,0.0,0.0,0.0,0.0,0.0,0.0,0.0,0.0,0.0,0.0,0.0,0.0,0.0,0.0,0.0,0.0,0.0,0.0,0.0,0.0,0.0,0.0,0.0,0.0,0.0,0.0,0.0,0.0,0.0,0.0,0.0,0.0,0.0,0.0,0.0,0.0,0.0,0.0,0.0,0.0,0.0,0.0,0.0,0.0,0.0,0.0,0.0,0.0,0.0,0.0,0.0,0.0,0.0,0.0,0.0,0.0,0.0,0.0,0.0,0.0,0.0,0.0,0.0,0.0,0.0,0.0,0.0,0.0,0.0,0.0,0.0,0.0,0.0,0.0,0.0,0.0,0.0,0.0,0.0,0.0,0.0,0.0,0.0,0.0,0.0,0.0,0.0,0.0,0.0,0.0,0.0,0.0,0.0,0.0,0.0,0.0,0.0,0.0,0.0,0.0,0.0,0.0,0.0,0.0,0.0,0.0,0.0,0.0,0.0,0.0,0.0,0.0,0.0,0.0,0.0,0.0,0.0,0.0,0.0,0.0,0.0,0.0,0.0,0.0,0.0,0.0,0.0,0.0,0.0,0.0,0.0,0.0,0.0,0.0,0.0,0.0,0.0,0.0,0.0,0.0,0.0,0.0,0.0,0.0,0.0,0.0,0.0,0.0,0.0,0.0,0.0,0.0,0.0,0.0,0.0,0.0,0.0,0.0,0.0,0.0,0.0,0.0,0.0,0.0,0.0,0.0,0.0,0.0,0.0,0.0,0.0,0.0,0.0,0.0,0.0,0.0,0.0,0.0,0.0,0.0,0.0,0.0,0.0,0.0,0.0,0.0,0.0,0.0,0.0,0.0,0.0,0.0,0.0,0.0,0.0,0.0,0.0,0.0,0.0,0.0,0.0,0.0,0.0,0.0,0.0,0.0,0.0,0.0,0.0,0.0,0.0,0.0,0.0,0.0,0.0,0.0,0.0,0.0,0.0,0.0,0.0,0.0,0.0,0.0,0.0,0.0,0.0,0.0,0.0,0.0,0.0,0.0,0.0,0.0,0.0,0.0,0.0,0.0,0.0,0.0,0.0,0.0,0.0,0.0,0.0,0.0,0.0,0.0,0.0,0.0,0.0,0.0,0.0,0.0,0.0,0.0,0.0,0.0,0.0,0.0,0.0,0.0,0.0,0.0,0.0,0.0,0.0,0.0,0.0,0.0,0.0,0.0,0.0,0.0,0.0,0.0,0.0,0.0,0.0,0.0,0.0,0.0,0.0,-3.3968,0.0,0.0,0.0,0.0,0.0,0.0,0.0,0.0,0.0,0.0,0.0,0.0,0.0,0.0,0.0,0.0,0.0,0.0,0.0,0.0,0.0,0.0,0.0,0.0,0.0,0.0,0.0,0.0,0.0,0.0,0.0,0.0,0.0,0.0,0.0,0.0,0.0,0.0,0.0,0.0,0.0,0.0,0.0,0.0,0.0,0.0,0.0,0.0,0.0,0.0,0.0,0.0,0.0,0.0,0.0,0.0,0.0,0.0,0.0,0.0,0.0,0.0,0.0,0.0,0.0,0.0,0.0,0.0,0.0,0.0,0.0,0.0,0.0,0.0,0.0,0.0,0.0,0.0,0.0,0.0,0.0,0.0,0.0,0.0,0.0,0.0,0.0,0.0,0.0,0.0,0.0,0.0,0.0,0.0,0.0,0.0,0.0,0.0,0.0,0.0,0.0,0.0,0.0,0.0,0.0,0.0,0.0,0.0,0.0,0.0,0.0,0.0,0.0,0.0,0.0,0.0,-3.4715,0.0,0.0,0.0,0.0,0.0,0.0,0.0,0.0,0.0,0.0,0.0,0.0,0.0,0.0,0.0,0.0,0.0,0.0,0.0,0.0,0.0,0.0,0.0,0.0,0.0,0.0,0.0,0.0,0.0,0.0,0.0,0.0,0.0,0.0,0.0,0.0,0.0,0.0,0.0,0.0,0.0,0.0,0.0,0.0,0.0,0.0,0.0,0.0,0.0,0.0,0.0,0.0,0.0,0.0,0.0,0.0,0.0,0.0,0.0,0.0,0.0,0.0,0.0,0.0,0.0,0.0,0.0,0.0,0.0,0.0,0.0,0.0,0.0,0.0,0.0,0.0,0.0,0.0,0.0,0.0,0.0,0.0,0.0,0.0,0.0,0.0,0.0,0.0,0.0,0.0,0.0,0.0,0.0,0.0,0.0,0.0,0.0,0.0,0.0,0.0,0.0,0.0,0.0,0.0,0.0,0.0,0.0,0.0,-3.8986,-3.9054,-3.9073,-3.9876,-4.0255,-4.0179,-3.878,-3.7238,-3.5684,-3.5371,0.0,0.0,0.0,0.0,0.0,0.0,0.0,0.0,0.0,0.0,0.0,0.0,0.0,0.0,0.0,0.0,0.0,0.0,0.0,0.0,0.0,0.0,0.0,0.0,0.0,0.0,0.0,0.0,0.0,0.0,0.0,0.0,0.0,0.0,0.0,0.0,0.0,0.0,-3.4079,-3.4961,-3.5397,-3.5405,-3.5162,0.0,0.0,0.0,0.0,0.0,0.0,0.0,0.0,0.0,0.0,0.0,0.0,0.0,0.0,0.0,0.0,0.0,0.0,0.0,0.0,0.0,0.0,0.0,0.0,0.0,0.0,0.0,0.0,0.0,0.0,0.0,0.0,0.0,0.0,0.0,0.0,0.0,0.0,0.0,0.0,0.0,0.0,0.0,-3.5096,-3.4517,0.0,0.0,0.0,0.0,0.0,0.0,0.0,0.0,0.0,0.0,0.0,0.0,0.0,-3.9286,-3.9276,-4.0141,-4.0578,-4.0578,-4.1274,-4.1621,-4.1629,-4.2453,-4.2815,-4.2808,-4.2576,0.0,-3.9965,-3.8494,0.0,0.0,0.0,0.0,0.0,0.0,0.0,0.0,0.0,0.0,0.0,0.0,0.0,0.0,0.0,0.0,0.0,0.0,0.0,0.0,0.0,0.0,0.0,0.0,0.0,0.0,0.0,0.0,0.0,0.0,0.0,0.0,0.0,0.0,0.0,0.0,-3.4282,-3.4687,-3.4665,-3.5047,-3.5223,-3.5187,-3.507,-3.5187,-3.5463,-3.5463,0.0,0.0,0.0,0.0,0.0,0.0,0.0,0.0,0.0,0.0,0.0,0.0,0.0,0.0,0.0,0.0,0.0,0.0,0.0,0.0,0.0,0.0,0.0,0.0,0.0,0.0,0.0,0.0,0.0,0.0,0.0,0.0,0.0,0.0,0.0,0.0,0.0,0.0,0.0,-3.4665,-3.5177,-3.5314,-3.5613,-3.5671,0.0,0.0,0.0,0.0,0.0,0.0,0.0,0.0,0.0,-3.9796,-4.0615,-4.1053,-4.1003,-4.1856,-4.2291,-4.2257,-4.262,-4.2782,-4.2802,-4.3647,-4.404,-4.4059,-4.4504,-4.4299,-4.349,-4.1354,-4.0221,-3.9731,0.0,0.0,0.0,0.0,-3.8746,-3.8746,0.0,0.0,0.0,0.0,0.0,0.0,0.0,0.0,0.0,0.0,0.0,0.0,0.0,0.0,0.0,-3.1804,0.0,0.0,0.0,0.0,0.0,0.0,0.0,0.0,0.0,0.0,0.0,0.0,-3.4936,-3.5209,-3.5105,-3.5105,-3.5185,-3.5304,-3.5304,-3.5477,-3.5776,-3.5743,-3.5892,0.0,0.0,0.0,0.0,0.0,0.0,0.0,0.0,0.0,0.0,0.0,0.0,0.0,0.0,0.0,0.0,0.0,0.0,0.0,0.0,0.0,0.0,0.0,0.0,0.0,0.0,0.0,0.0,0.0,0.0,0.0,0.0,0.0,0.0,0.0,0.0,0.0,0.0,-3.5444,-3.5935,-3.6183,-3.6547,-3.6708,0.0,0.0,0.0,0.0,0.0,0.0,-3.9349,-4.0602,-4.1353,-4.1528,-4.2373,-4.2798,-4.2749,-4.3594,-4.3995,-4.3943,-4.3943,-4.3943,-4.3962,-4.462,-4.491,-4.4949,-4.5529,-4.58,-4.562,-4.3369,-4.2078,-4.15,-4.1082,-4.0888,-4.0898,-4.0908,-4.0908,-4.0888,0.0,0.0,0.0,0.0,0.0,0.0,0.0,0.0,0.0,0.0,0.0,0.0,0.0,0.0,-3.2649,-3.2649,-3.2672,-3.2359,0.0,0.0,0.0,0.0,0.0,0.0,0.0,0.0,0.0,-3.5235,-3.5155,-3.5105,-3.5105,-3.5105,-3.5556,-3.6435,-3.6435,-3.6353,-3.627,-3.6325,-3.6816,-3.7532,0.0,0.0,0.0,0.0,0.0,0.0,0.0,0.0,0.0,0.0,0.0,0.0,0.0,0.0,0.0,0.0,0.0,0.0,0.0,0.0,0.0,0.0,0.0,0.0,0.0,0.0,0.0,0.0,0.0,0.0,0.0,0.0,0.0,0.0,0.0,0.0,0.0,0.0,0.0,-3.7226,-3.8447,0.0,0.0,0.0,0.0,-4.0587,-4.0743,-4.115,-4.1966,-4.2031,-4.2416,-4.3249,-4.406,-4.4465,-4.4465,-4.5291,-4.5678,-4.5664,-4.5664,-4.5664,-4.5684,-4.5722,-4.5742,-4.5742,-4.578,-4.58,-4.5678,-4.4027,-4.3307,-4.3128,-4.1519,-4.0888,-4.0904,-4.0898,-4.0898,-4.0888,0.0,0.0,0.0,0.0,0.0,0.0,0.0,0.0,0.0,0.0,0.0,0.0,0.0,-3.2634,-3.3413,-3.3413,-3.3838,-3.3781,-3.3026,0.0,0.0,0.0,0.0,0.0,0.0,0.0,-3.5273,-3.5174,-3.5122,-3.5391,-3.5944,-3.5944,-3.6347,-3.7072,-3.7072,-3.7357,-3.7831,-3.7412,-3.7441,-3.774,-3.7447,-3.7098,0.0,0.0,0.0,0.0,0.0,0.0,0.0,0.0,0.0,0.0,0.0,0.0,0.0,0.0,0.0,0.0,0.0,0.0,0.0,0.0,0.0,0.0,0.0,0.0,0.0,0.0,0.0,0.0,0.0,0.0,0.0,0.0,0.0,0.0,0.0,0.0,0.0,-3.9557,-4.0529,0.0,-4.0092,-4.0295,-4.0597,-4.0888,-4.1937,-4.2684,-4.2951,-4.3967,-4.4659,-4.495,-4.5254,-4.5428,-4.5374,-4.5699,-4.6125,-4.6631,-4.6631,-4.6922,-4.7463,-4.7463,-4.7463,-4.7463,-4.7463,-4.7463,-4.7424,-4.6853,-4.5957,-4.4886,-4.4298,-4.4059,-4.4052,-4.4047,-4.4047,-4.4136,0.0,0.0,0.0,0.0,0.0,0.0,0.0,0.0,0.0,0.0,0.0,-3.1986,-3.2244,-3.3396,-3.4166,-3.4166,-3.4623,-3.4603,-3.3872,0.0,0.0,0.0,0.0,0.0,0.0,-3.5277,-3.5226,-3.5105,-3.5391,-3.5794,-3.6348,-3.6615,-3.7129,-3.7826,-3.7826,-3.83,-3.9079,-3.8613,-3.8479,-3.8478,-3.821,-3.7871,-3.7473,0.0,0.0,0.0,0.0,0.0,0.0,0.0,0.0,0.0,0.0,0.0,0.0,0.0,0.0,0.0,0.0,0.0,0.0,0.0,0.0,0.0,0.0,0.0,0.0,0.0,0.0,0.0,0.0,0.0,0.0,0.0,0.0,0.0,0.0,0.0,-4.0558,-4.0869,-4.1876,-4.2338,-4.1809,-4.2003,-4.2294,-4.2524,-4.361,-4.4257,-4.4208,-4.5267,-4.597,-4.6225,-4.628,-4.6416,-4.667,-4.6726,-4.7016,-4.754,-4.754,-4.7831,-4.8392,-4.8392,-4.8392,-4.8392,-4.8392,-4.8392,-4.8392,-4.8392,-4.7715,-4.667,-4.667,-4.667,-4.667,-4.667,-4.667,-4.6748,0.0,0.0,0.0,0.0,0.0,0.0,0.0,0.0,0.0,0.0,-3.2201,-3.2985,-3.3705,-3.4471,-3.4908,-3.4908,-3.4908,-3.4622,-3.3974,-3.4716,0.0,0.0,0.0,0.0,-3.5277,-3.5277,-3.5226,-3.5088,-3.5964,-3.6348,-3.6253,-3.7049,-3.7883,-3.8757,-3.8757,-3.9172,-3.9889,-3.9889,-3.9889,-3.9835,-3.9203,-3.8993,-3.9018,0.0,0.0,0.0,0.0,0.0,0.0,0.0,0.0,0.0,0.0,0.0,0.0,0.0,0.0,0.0,0.0,0.0,0.0,0.0,0.0,0.0,0.0,0.0,0.0,0.0,0.0,0.0,0.0,0.0,0.0,0.0,0.0,0.0,-3.8665,-4.0626,-4.1873,-4.115,-4.2496,-4.347,-4.3478,-4.4233,-4.5034,-4.5775,-4.5838,-4.5838,-4.5877,-4.5877,-4.6264,-4.7115,-4.7134,-4.754,-4.8392,-4.8392,-4.8411,-4.843,-4.843,-4.845,-4.8488,-4.8488,-4.8488,-4.8488,-4.8488,-4.8488,-4.8488,-4.8488,-4.8488,-4.8469,-4.8411,-4.8392,-4.8392,-4.8392,-4.8411,-4.843,0.0,0.0,0.0,0.0,0.0,0.0,0.0,0.0,0.0,0.0,-3.2172,-3.2985,-3.3705,-3.4471,-3.4908,-3.4908,-3.4908,-3.4832,-3.4713,0.0,0.0,0.0,0.0,0.0,-3.5145,-3.5141,-3.5089,-3.4964,-3.5818,-3.652,-3.7087,-3.794,-3.8774,-3.957,-3.957,-3.9702,-3.9889,-3.9889,-3.9889,-3.9892,-3.9707,-3.9354,-3.8917,0.0,0.0,0.0,0.0,0.0,0.0,0.0,0.0,0.0,0.0,0.0,0.0,0.0,0.0,0.0,0.0,0.0,0.0,0.0,0.0,0.0,0.0,0.0,0.0,0.0,0.0,0.0,0.0,0.0,0.0,0.0,0.0,-4.2302,-4.205,-4.261,-4.34,-4.4344,-4.4854,-4.5131,-4.515,-4.5363,-4.5847,-4.667,-4.6728,-4.7018,-4.7657,-4.7695,-4.7792,-4.8043,-4.8043,-4.8159,-4.8392,-4.8392,-4.872,-4.9339,-4.9339,-4.9649,-5.021,-5.021,-5.021,-5.021,-5.021,-5.021,-5.021,-5.021,-5.021,-5.0094,-4.8875,-4.8392,-4.8392,-4.8392,-4.8798,-4.9339,0.0,0.0,0.0,0.0,0.0,0.0,0.0,0.0,0.0,0.0,-3.2386,-3.3102,-3.4165,-3.4642,-3.4908,-3.4908,-3.4945,-3.502,-3.5091,0.0,0.0,0.0,0.0,-3.5162,-3.502,-3.5019,-3.4982,-3.4908,-3.6102,-3.6936,-3.7428,-3.8641,-3.9456,-3.9889,-3.9889,-3.9889,-3.9889,-3.9889,-3.9889,-3.9889,-3.9889,-3.9692,-3.9395,-3.9375,-3.8918,-3.8314,-3.8246,-3.8016,-3.7668,-3.7187,0.0,0.0,0.0,0.0,0.0,0.0,0.0,0.0,0.0,0.0,0.0,0.0,0.0,0.0,0.0,0.0,0.0,0.0,0.0,0.0,0.0,0.0,0.0,0.0,-4.2576,-4.3849,-4.4206,-4.4293,-4.4641,-4.553,-4.6005,-4.6248,-4.6248,-4.6641,-4.7096,-4.7599,-4.7637,-4.7869,-4.8372,-4.8392,-4.8566,-4.8933,-4.8933,-4.9107,-4.9436,-4.9455,-4.9707,-5.021,-5.021,-5.043,-5.0825,-5.0825,-5.0771,-5.0699,-5.0699,-5.0699,-5.0699,-5.0699,-5.0699,0.0,0.0,0.0,0.0,0.0,-4.9765,-5.0194,0.0,0.0,0.0,0.0,0.0,0.0,0.0,0.0,0.0,0.0,0.0,-3.3258,-3.4737,-3.4908,-3.4851,-3.4775,-3.4963,-3.5127,0.0,0.0,0.0,-3.5092,-3.5075,-3.502,-3.4889,-3.4908,-3.4908,-3.4908,-3.6576,-3.739,-3.7428,-3.9134,-3.9889,-3.9889,-3.9889,-3.9889,-3.9889,-3.9889,-3.9889,-3.9889,-3.9889,-3.9977,-4.0061,-3.9998,-3.9623,-3.9088,-3.8975,-3.8499,-3.7926,-3.7775,0.0,0.0,0.0,0.0,0.0,0.0,0.0,0.0,0.0,0.0,0.0,0.0,0.0,0.0,0.0,0.0,0.0,0.0,0.0,0.0,0.0,0.0,0.0,0.0,-4.3932,-4.4746,-4.5534,-4.5781,-4.5796,-4.5592,-4.6432,-4.7039,-4.7075,-4.7886,-4.843,-4.8546,-4.8546,-4.8585,-4.8667,0.0,0.0,0.0,0.0,-5.0124,-5.0839,-5.0839,-5.0839,-5.0839,-5.0839,-5.0771,-5.0682,-5.0682,-5.0567,-5.0404,-5.0404,-5.0404,-5.0404,-5.0404,-5.0404,-5.0425,-5.0717,-5.0839,-5.0839,-5.0839,-5.0839,-5.0822,0.0,0.0,0.0,0.0,0.0,0.0,0.0,0.0,0.0,-3.2308,-3.268,-3.3258,-3.4737,-3.4908,-3.4643,-3.3998,-3.4603,-3.5056,0.0,0.0,-3.5073,-3.5092,-3.5001,-3.4927,-3.4908,-3.4908,-3.4908,-3.4908,-3.6576,-3.739,-3.7428,-3.9134,-3.9889,-3.9889,-3.9889,-3.9889,-3.9889,-3.9889,-3.9889,-3.9889,-3.9889,-3.9911,-3.9954,-3.9933,-3.9859,-3.9728,-3.9707,-3.9612,-3.9387,-3.8765,-3.8575,-3.846,-3.7715,0.0,0.0,0.0,0.0,0.0,0.0,0.0,0.0,0.0,0.0,0.0,0.0,0.0,0.0,0.0,0.0,0.0,0.0,0.0,0.0,-4.3926,-4.5225,-4.6396,-4.7147,-4.7371,-4.7242,-4.6679,-4.7351,-4.7923,-4.8095,-4.828,-4.8682,-4.9397,-4.9455,-4.9679,-5.0217,-5.0256,-5.0259,-5.0258,-5.0277,-5.0354,-5.0508,-5.0508,-5.0508,-5.0508,0.0,0.0,-5.0446,-5.0446,-5.0425,-5.0404,-5.0404,-5.0404,-5.0404,-5.0404,-5.0404,-5.0404,-5.0467,-5.0508,-5.0508,-5.0508,-5.0508,-5.0488,0.0,0.0,0.0,0.0,0.0,0.0,0.0,0.0,0.0,0.0,-3.2072,-3.2535,-3.3665,-3.38,-3.3629,-3.3246,-3.3968,0.0,0.0,-3.5073,-3.5039,-3.5001,-3.4927,-3.4908,-3.4908,-3.4908,-3.4908,-3.4908,-3.6576,-3.739,-3.7428,-3.9134,-3.9889,-3.9889,-3.9889,-3.9889,-3.9889,-3.9889,-3.9889,-3.9889,-3.9889,-3.9889,-3.9889,-3.9889,-3.9889,-3.9889,-3.9889,-3.9889,-3.9835,-3.9461,-3.9349,-3.9311,-3.8994,-3.9204,-3.949,0.0,0.0,0.0,0.0,0.0,0.0,0.0,0.0,0.0,0.0,0.0,0.0,0.0,0.0,-4.1827,0.0,0.0,-4.4327,-4.5149,-4.6249,-4.7129,-4.7514,-4.7986,-4.7999,-4.725,-4.8028,-4.8645,-4.8645,-4.9105,-4.9584,-5.0027,-5.0046,-5.0202,-5.0528,-5.0547,-5.0507,-5.0404,-5.0404,-5.0404,-5.0404,-5.0404,-5.0404,-5.0404,-5.0404,-5.0361,-5.0291,-5.0291,-5.0245,-5.0149,-5.0149,-5.0149,-5.0149,-5.0149,-5.0149,-5.0149,-5.0149,-5.0249,-5.0404,-5.0404,-5.0404,-5.0383,0.0,0.0,0.0,0.0,0.0,0.0,0.0,0.0,0.0,0.0,-3.1506,-3.1804,-3.2611,-3.2691,-3.2749,0.0,0.0,0.0,0.0,-3.5073,-3.502,-3.4889,-3.4908,-3.4908,-3.4908,-3.4908,-3.4908,-3.4908,-3.6424,-3.7239,-3.7428,-3.8963,-3.9759,-3.9889,-3.9889,-3.9889,-3.9889,-3.9889,-3.9889,-3.9889,-3.9889,-3.9889,-3.9889,-3.9889,-3.9889,-3.9889,-3.9889,-3.9911,-3.9911,-3.9911,-4.0025,-4.0198,-4.0283,-4.0895,-4.1431,-4.0712,-4.1457,0.0,0.0,0.0,0.0,0.0,0.0,0.0,0.0,0.0,-4.2048,-4.2872,-4.3024,-4.3273,-4.4095,-4.4853,-4.5605,-4.6411,-4.7169,-4.77,-4.7851,-4.8529,-4.8719,-4.7965,-4.8781,-4.9341,-4.919,-4.9915,-5.0404,-5.0404,-5.0404,-5.0383,-5.0361,-5.0361,-5.0339,-5.0294,-5.0294,-5.0294,-5.0294,-5.0294,-5.0294,-5.0294,-5.0294,-5.0245,-5.0139,-5.0139,-5.0038,-4.9898,-4.9898,-4.9898,-4.9898,-4.9898,-4.9898,-4.9898,-4.9898,-5.007,-5.0294,-5.0294,-5.0294,-5.0272,0.0,0.0,0.0,0.0,0.0,0.0,0.0,0.0,0.0,0.0,0.0,0.0,0.0,0.0,0.0,0.0,0.0,0.0,-3.4997,-3.5001,-3.4927,-3.4908,-3.4908,-3.4908,-3.4908,-3.4908,-3.4908,-3.4908,-3.5855,-3.6689,-3.7409,-3.8376,-3.921,-3.9889,-3.9889,-3.9889,-3.9889,-3.9889,-3.9889,-3.9889,-3.9889,-3.9889,-3.9889,-3.9889,-3.9889,-3.9889,-3.9889,-3.9933,-3.9975,-3.9911,-4.0444,-4.1133,-4.1089,-4.1724,-4.2305,-4.1512,0.0,-4.1532,-4.0718,-4.1104,-4.1702,-4.1625,-4.2087,-4.2584,0.0,0.0,-4.2812,-4.369,-4.3862,-4.4111,-4.4932,-4.5684,-4.6449,-4.7305,-4.8061,-4.8799,-4.9519,-4.9848,-4.9917,-4.9641,-4.9898,-5.013,-5.0227,-5.0325,-5.0404,-5.0404,-5.0404,-5.0358,-5.0236,-5.0236,-5.0139,-4.9959,-4.9959,-4.9959,-4.9959,-4.9959,-4.9959,-4.9959,-4.9959,-4.9959,-4.9933,-4.9933,-4.9906,-4.9898,-4.9898,-4.9898,-4.9898,-4.9898,-4.9898,-4.9898,-4.9898,-4.9906,-4.9959,-4.9959,-4.9959,-4.9959,0.0,0.0,0.0,0.0,0.0,0.0,0.0,0.0,0.0,0.0,0.0,0.0,0.0,0.0,0.0,0.0,0.0,0.0,-3.4289,-3.428,-3.4415,-3.4889,-3.4908,-3.4908,-3.4908,-3.4908,-3.4908,-3.4908,-3.5761,-3.6367,-3.6727,-3.8054,-3.8869,-3.921,-3.9702,-3.9889,-3.9889,-3.9889,-3.9889,-3.9889,-3.9889,-3.9889,-3.9889,-3.9889,-3.9889,-3.9968,-4.0507,-4.0395,0.0,0.0,-4.1383,-4.1459,-4.2379,-4.2591,-4.249,-4.2172,-4.2179,0.0,-4.2392,-4.2336,0.0,0.0,-4.3113,-4.3338,-4.3338,-4.3719,-4.4306,-4.5137,-4.5646,-4.6235,-4.7091,-4.7479,-4.7966,0.0,-4.9212,-4.95,-4.9841,-4.9959,-4.9986,-4.9925,-4.9959,-5.0063,-5.01,-5.01,-5.01,-5.01,-5.01,-5.0076,-5.0012,-5.0031,-4.9986,-4.9879,-4.9898,-4.9898,-4.9898,-4.9898,-4.9898,-4.9898,-4.9898,-4.9898,-4.9898,-4.9898,-4.9898,-4.9898,-4.9898,-4.9898,-4.9898,-4.9898,-4.9898,-4.9898,-4.9898,-4.9898,-4.9898,-4.9898,-4.9898,-4.9898,0.0,0.0,0.0,0.0,0.0,0.0,0.0,0.0,0.0,0.0,0.0,0.0,0.0,0.0,0.0,0.0,0.0,0.0,0.0,-3.3785,-3.4092,-3.487,-3.4908,-3.4908,-3.4908,-3.4908,-3.4908,-3.4908,-3.5533,-3.595,-3.6215,-3.7428,-3.8264,-3.8738,-3.9304,-3.9702,-3.9889,-3.9889,-3.9889,-3.9889,-3.9889,-3.9889,-3.9889,-3.9889,-3.9911,-4.0008,-4.0703,-4.0572,0.0,0.0,-4.1677,-4.154,-4.269,-4.2803,-4.2487,-4.2324,-4.2158,-4.2199,-4.2957,0.0,0.0,-4.3618,-4.3954,-4.4159,-4.4406,-4.4938,-4.5694,-4.6683,-4.734,-4.8003,-4.8856,-4.9026,-4.9216,-4.9803,-4.9898,-4.9898,-4.9898,-4.9898,-4.9898,-4.9898,-4.9898,-4.9898,-4.9898,-4.9898,-4.9898,-4.9898,-4.9898,-4.9898,-4.9898,-4.9898,-4.9898,-4.9898,-4.9898,-4.9898,-4.9898,-4.9898,-4.9898,-4.9898,-4.9898,-4.9898,-4.9898,-4.9898,-4.9898,-4.9898,-4.9898,-4.9898,-4.9898,-4.9898,-4.9898,-4.9898,-4.9898,-4.9898,-4.9898,-4.9898,-4.9898,-4.9898,0.0,0.0,0.0,0.0,0.0,0.0,0.0,0.0,0.0,0.0,0.0,0.0,0.0,0.0,0.0,0.0,0.0,0.0,0.0,-3.3838,-3.4129,-3.487,-3.4908,-3.4908,-3.4908,-3.4908,-3.4908,-3.4908,-3.4927,-3.5363,-3.6196,-3.6234,-3.7125,-3.87,-3.8738,-3.9172,-3.9889,-3.9889,-3.9889,-3.9889,-3.9889,-3.9889,-3.9889,-3.9889,-3.9933,-3.9996,-4.0115,0.0,0.0,0.0,-4.0768,-4.1396,-4.1373,-4.1941,0.0,-4.1663,-4.0922,0.0,0.0,0.0,-4.2883,-4.3618,-4.4345,-4.5085,-4.5918,-4.6146,-4.662,-4.8268,-4.8628,-4.8894,-4.9709,-4.9841,-4.986,-4.9898,-4.9898,-4.9898,-4.9898,-4.9898,-4.9898,-4.9898,-4.9898,-4.9898,0.0,-4.9898,-4.9898,-4.9898,-4.9898,-4.9898,-4.9898,-4.9898,-4.9898,-4.9898,-4.9898,-4.9898,-4.9898,-4.9898,-4.9898,-4.9898,-4.9898,-4.9898,-4.9898,-4.9898,-4.9898,-4.9898,-4.9898,-4.9898,-4.9898,-4.9898,-4.9898,-4.9898,-4.9898,-4.9898,-4.9898,-4.9898,-4.9898,-4.9898,0.0,0.0,0.0,0.0,0.0,0.0,0.0,0.0,0.0,0.0,0.0,0.0,0.0,0.0,0.0,0.0,0.0,0.0,0.0,-3.2746,-3.3348,-3.4148,-3.4642,-3.4908,-3.4908,-3.4908,-3.4908,-3.4908,-3.4908,-3.504,-3.5344,-3.5931,-3.65,-3.7087,-3.8186,-3.885,-3.9134,-3.9683,-3.9889,-3.9889,-3.9889,-3.9889,-3.9911,-3.9954,-3.9975,-4.0017,0.0,0.0,0.0,0.0,0.0,-4.1491,-4.2001,-4.2003,-4.1758,-4.159,-4.1323,-4.138,0.0,0.0,-4.3618,-4.4341,-4.5147,-4.5843,-4.6127,-4.7055,-4.8003,-4.8572,-4.8745,-4.8853,-4.9119,-4.9157,-4.9157,-4.9157,-4.9572,-4.9898,-4.9898,-4.9898,-4.9898,-4.9898,-4.9898,0.0,0.0,0.0,0.0,-4.9898,-4.9898,-4.9898,-4.9898,-4.9898,-4.9898,-4.9898,-4.9898,-4.9898,-4.9898,-4.9898,-4.9898,-4.9898,-4.9898,-4.9898,-4.9898,-4.9898,-4.9898,-4.9898,-4.9898,-4.9898,-4.9898,-4.9898,-4.9898,-4.9898,-4.9898,-4.9898,-4.9898,-4.9898,-4.9898,-4.9898,0.0,0.0,0.0,0.0,0.0,0.0,0.0,0.0,0.0,0.0,0.0,0.0,0.0,0.0,0.0,0.0,0.0,0.0,0.0,0.0,-3.2676,-3.38,-3.4261,-3.466,-3.4964,-3.4964,-3.4964,-3.4964,-3.4945,-3.4927,-3.4946,-3.5496,-3.5893,-3.6234,-3.7315,-3.815,-3.8738,-3.9248,-3.9646,-3.9933,-3.9933,-3.9954,-3.9994,-4.0036,-4.0057,0.0,0.0,0.0,0.0,0.0,0.0,0.0,-4.2406,-4.2103,-4.1513,-4.1877,-4.1724,-4.1818,0.0,-4.3824,-4.4045,-4.5109,-4.5786,-4.6354,-4.6961,-4.7927,-4.8761,-4.9064,-4.896,-4.8808,-4.8814,-4.8585,-4.8376,-4.84,-4.8783,-4.9226,-4.9478,-4.9497,-4.9591,-4.9887,-4.9898,-4.9898,0.0,0.0,0.0,-4.9898,-4.9898,-4.9898,-4.9898,-4.9898,-4.9898,-4.9898,-4.9898,-4.9898,-4.9898,-4.9898,-4.9898,-4.9898,-4.9898,-4.9898,-4.9898,-4.9898,-4.9898,-4.9898,-4.9898,-4.9898,-4.9898,-4.9898,-4.9898,-4.9898,-4.9898,-4.9898,-4.9898,-4.9898,-4.9898,-4.9898,0.0,0.0,0.0,0.0,0.0,0.0,0.0,0.0,0.0,0.0,0.0,0.0,0.0,0.0,0.0,0.0,0.0,0.0,0.0,0.0,0.0,-3.3696,-3.3796,-3.4198,-3.5016,-3.5073,-3.5092,-3.5092,-3.502,-3.5001,-3.5001,-3.4945,-3.5363,-3.6159,-3.6197,-3.7088,-3.8586,-3.8681,-3.9176,-3.9939,-3.9977,-4.0057,-4.0117,-4.0098,0.0,0.0,0.0,0.0,0.0,0.0,0.0,0.0,0.0,0.0,-4.1705,-4.2522,-4.2158,-4.1871,-4.3437,-4.3852,-4.4227,-4.5811,-4.6222,-4.6676,-4.8325,-4.8723,-4.8951,-4.9698,-4.9276,-4.872,0.0,0.0,-4.7619,-4.7709,-4.7785,-4.8057,-4.8777,-4.8859,-4.9125,0.0,0.0,0.0,0.0,0.0,0.0,-4.9898,0.0,-4.9898,-4.9898,-4.9898,-4.9898,-4.9898,-4.9898,-4.9898,-4.9898,-4.9898,-4.9898,-4.9898,-4.9898,-4.9898,-4.9898,-4.9898,-4.9898,-4.9898,-4.9898,-4.9898,-4.9898,-4.9898,-4.9898,-4.9898,-4.9898,-4.9898,-4.9898,-4.9898,-4.9898,-4.9898,0.0,0.0,0.0,0.0,0.0,0.0,0.0,0.0,0.0,0.0,0.0,0.0,0.0,0.0,0.0,0.0,0.0,0.0,0.0,0.0,0.0,0.0,0.0,0.0,0.0,-3.4716,-3.502,-3.502,0.0,-3.5075,-3.5075,-3.5057,-3.5171,-3.5418,-3.6007,-3.6521,-3.6996,-3.8251,-3.8897,-3.9164,0.0,-4.0077,-4.0117,0.0,0.0,0.0,0.0,0.0,0.0,0.0,0.0,0.0,0.0,0.0,-4.2479,-4.3278,-4.3371,-4.3422,-4.4402,-4.4664,-4.4881,-4.5937,-4.6639,-4.7378,-4.8439,-4.9159,-4.9508,-4.9162,-4.8528,-4.7865,0.0,0.0,0.0,-4.7777,-4.8642,0.0,-4.9584,-4.9629,0.0,0.0,0.0,-4.9898,-4.9898,-4.9898,0.0,0.0,-4.9898,-4.9898,-4.9898,-4.9898,-4.9898,-4.9898,-4.9898,-4.9898,-4.9898,-4.9898,-4.9898,-4.9898,-4.9898,-4.9898,-4.9898,-4.9898,-4.9898,-4.9898,-4.9898,-4.9898,-4.9898,-4.9898,-4.9898,-4.9898,-4.9898,-4.9898,-4.9898,-4.9898,-4.9898,-4.9898,0.0,0.0,0.0,0.0,0.0,0.0,0.0,0.0,0.0,0.0,0.0,0.0,0.0,0.0,0.0,0.0,0.0,0.0,0.0,0.0,0.0,0.0,0.0,0.0,-3.3836,-3.4258,-3.4677,-3.5092,0.0,0.0,0.0,-3.511,-3.5092,-3.5111,-3.5568,-3.5969,-3.6369,-3.768,0.0,0.0,0.0,0.0,0.0,0.0,0.0,0.0,0.0,0.0,0.0,0.0,0.0,-4.3281,-4.3599,-4.3428,-4.3295,-4.4091,0.0,-4.3965,-4.4759,-4.4919,-4.5198,-4.6411,-4.7074,-4.765,-4.8548,-4.9098,-4.92,-4.8416,-4.7681,0.0,0.0,0.0,0.0,0.0,0.0,0.0,-4.9364,-4.9428,-4.9542,0.0,-4.9898,0.0,-4.9898,-4.9898,-4.9898,0.0,-4.9898,-4.9898,-4.9898,-4.9898,-4.9898,-4.9898,-4.9898,-4.9898,-4.9898,-4.9898,-4.9898,-4.9898,-4.9898,-4.9898,-4.9898,-4.9898,-4.9898,-4.9898,0.0,-4.9898,-4.9898,-4.9898,-4.9898,-4.9898,-4.9898,-4.9898,-4.9898,-4.9898,-4.9898,-4.9898,0.0,0.0,0.0,0.0,0.0,0.0,0.0,0.0,0.0,0.0,0.0,0.0,0.0,0.0,0.0,0.0,0.0,0.0,0.0,0.0,0.0,0.0,0.0,0.0,0.0,-3.3701,-3.4196,-3.5009,0.0,0.0,0.0,0.0,0.0,0.0,0.0,0.0,0.0,0.0,0.0,0.0,0.0,0.0,0.0,0.0,0.0,0.0,0.0,0.0,0.0,0.0,-4.2436,-4.4018,-4.4699,-4.4471,-4.4068,-4.4782,-4.4497,-4.4094,-4.4749,-4.4895,-4.5293,-4.698,-4.7397,-4.765,-4.8599,-4.8789,-4.8549,-4.7634,0.0,-4.644,-4.6451,0.0,-4.6517,-4.6736,0.0,-4.8095,-4.8827,-4.8948,-4.9176,-4.983,-4.9898,-4.9898,-4.9898,-4.9898,-4.9898,-4.9898,-4.9898,-4.9898,-4.9898,-4.9898,-4.9898,-4.9898,-4.9898,-4.9898,-4.9898,-4.9898,-4.9898,-4.9898,-4.9898,-4.9898,-4.9898,-4.9898,-4.9898,-4.9898,-4.9898,-4.9898,-4.9898,-4.9898,-4.9898,-4.9898,-4.9898,-4.9898,-4.9898,-4.9898,-4.9898,-4.9898,0.0,0.0,0.0,0.0,0.0,0.0,0.0,0.0,0.0,0.0,-2.5979,0.0,0.0,0.0,0.0,0.0,0.0,0.0,0.0,0.0,0.0,0.0,0.0,0.0,0.0,0.0,0.0,0.0,0.0,0.0,0.0,0.0,0.0,0.0,0.0,0.0,0.0,0.0,0.0,0.0,0.0,0.0,0.0,0.0,0.0,0.0,0.0,0.0,0.0,0.0,-4.243,-4.3814,-4.3919,-4.4294,-4.473,-4.4881,-4.4825,-4.4749,-4.4876,-4.4895,-4.5293,-4.698,-4.7397,-4.765,-4.8599,-4.8789,0.0,0.0,0.0,-4.6393,-4.5803,-4.6225,0.0,-4.7496,0.0,0.0,0.0,0.0,-4.9754,0.0,0.0,0.0,0.0,0.0,0.0,0.0,0.0,-4.9898,-4.9898,-4.9898,-4.9898,-4.9898,-4.9898,-4.9898,-4.9898,-4.9898,-4.9898,-4.9898,-4.9898,-4.9898,-4.9898,-4.9898,-4.9898,-4.9898,-4.9898,0.0,-4.9898,-4.9898,-4.9898,-4.9898,-4.9898,-4.9898,-4.9898,-4.9898,-4.9898,-4.9898,0.0,0.0,0.0,0.0,0.0,0.0,0.0,0.0,0.0,0.0,-2.5543,-2.611,0.0,0.0,0.0,0.0,0.0,0.0,0.0,0.0,0.0,0.0,0.0,0.0,0.0,0.0,0.0,0.0,0.0,0.0,0.0,0.0,0.0,0.0,0.0,0.0,0.0,0.0,0.0,0.0,0.0,0.0,0.0,0.0,0.0,0.0,0.0,0.0,0.0,0.0,-4.1743,-4.316,-4.3568,-4.4251,-4.4895,-4.4895,-4.4895,-4.4895,-4.4895,-4.4895,-4.5198,-4.6449,-4.7093,-4.7422,-4.7523,0.0,0.0,0.0,0.0,-4.5858,-4.5496,0.0,0.0,0.0,0.0,0.0,0.0,0.0,0.0,0.0,0.0,0.0,0.0,0.0,0.0,0.0,0.0,-4.9898,-4.9898,-4.9898,-4.9898,-4.9898,-4.9898,-4.9898,-4.9898,-4.9898,-4.9898,-4.9898,-4.9898,-4.9898,-4.9898,-4.9898,-4.9898,-4.9898,-4.9898,-4.9898,-4.9898,-4.9898,-4.9898,-4.9898,-4.9898,-4.9898,-4.9898,-4.9898,-4.9898,-4.9898,0.0,0.0,0.0,0.0,0.0,0.0,0.0,-2.534,-2.5274,-2.522,-2.5201,-2.545,-2.6136,-2.6943,-2.7848,0.0,0.0,0.0,0.0,0.0,0.0,0.0,0.0,0.0,0.0,0.0,0.0,0.0,0.0,0.0,0.0,0.0,0.0,0.0,0.0,0.0,0.0,0.0,0.0,0.0,0.0,0.0,0.0,0.0,0.0,0.0,0.0,0.0,0.0,0.0,-4.0981,-4.2322,-4.3152,-4.4099,-4.4919,-4.4919,-4.4919,-4.4919,-4.4895,-4.4895,-4.5103,-4.5975,-4.679,-4.7214,-4.6544,-4.7025,0.0,0.0,-4.5359,-4.5399,-4.5419,0.0,0.0,0.0,0.0,0.0,0.0,0.0,0.0,0.0,0.0,0.0,0.0,0.0,0.0,0.0,0.0,0.0,-4.9898,-4.9898,-4.9898,-4.9898,-4.9898,-4.9898,-4.9898,-4.9898,-4.9898,-4.9898,-4.9898,-4.9898,-4.9898,-4.9898,-4.9898,-4.9898,-4.9898,-4.9898,-4.9898,-4.9898,-4.9898,-4.9898,-4.9898,-4.9898,-4.9898,-4.9898,-4.9898,-4.9898,0.0,0.0,0.0,0.0,0.0,0.0,0.0,-2.534,-2.5303,-2.5292,-2.5241,-2.5209,-2.5241,-2.6013,-2.7154,0.0,0.0,0.0,0.0,0.0,0.0,0.0,0.0,0.0,0.0,0.0,0.0,0.0,0.0,0.0,0.0,0.0,0.0,0.0,0.0,0.0,0.0,0.0,0.0,0.0,0.0,0.0,0.0,0.0,0.0,0.0,0.0,0.0,0.0,0.0,0.0,-4.1513,-4.2284,-4.3653,-4.4991,-4.4991,0.0,0.0,-4.4919,-4.4895,-4.5103,-4.5975,-4.679,-4.7214,-4.6544,0.0,0.0,0.0,-4.5398,-4.5419,-4.5476,-4.5496,0.0,0.0,0.0,0.0,0.0,0.0,0.0,0.0,0.0,0.0,0.0,0.0,0.0,0.0,0.0,0.0,-4.9898,-4.9898,-4.9898,-4.9898,-4.9898,-4.9898,-4.9898,-4.9898,-4.9898,-4.9898,-4.9898,-4.9898,-4.9898,-4.9898,-4.9898,-4.9898,-4.9898,-4.9898,0.0,-4.9898,-4.9898,-4.9898,-4.9898,-4.9898,-4.9898,-4.9898,-4.9898,-4.9898,0.0,0.0,0.0,0.0,0.0,0.0,0.0,-2.5376,-2.5351,-2.5321,-2.5282,-2.5231,-2.5115,-2.5459,-2.6166,0.0,0.0,0.0,0.0,0.0,0.0,0.0,0.0,0.0,0.0,0.0,0.0,0.0,0.0,0.0,0.0,0.0,0.0,0.0,0.0,0.0,0.0,0.0,0.0,0.0,0.0,0.0,0.0,0.0,0.0,0.0,0.0,0.0,0.0,0.0,0.0,0.0,-4.1608,-4.2905,0.0,0.0,-4.4991,-4.4986,-4.4919,-4.4895,-4.499,-4.5331,-4.6076,-4.6524,-4.5784,0.0,0.0,-4.5547,-4.5359,-4.5418,-4.5419,-4.5419,-4.5534,0.0,0.0,0.0,0.0,0.0,0.0,0.0,0.0,0.0,0.0,0.0,0.0,0.0,0.0,0.0,-4.9898,-4.9898,-4.9898,-4.9898,-4.9898,-4.9898,-4.9898,-4.9898,-4.9898,-4.9898,-4.9898,-4.9898,-4.9898,-4.9898,-4.9898,-4.9898,-4.9898,-4.9898,0.0,-4.9898,-4.9898,-4.9898,-4.9898,-4.9898,-4.9898,-4.9898,-4.9898,-4.9898,0.0,0.0,0.0,0.0,0.0,0.0,-2.5412,-2.5393,-2.5387,-2.5312,-2.5331,-2.5292,-2.5149,-2.5198,-2.5592,-2.6431,0.0,0.0,0.0,0.0,0.0,0.0,0.0,0.0,0.0,0.0,0.0,-3.0877,0.0,0.0,0.0,0.0,0.0,0.0,0.0,0.0,0.0,0.0,0.0,0.0,0.0,0.0,0.0,0.0,0.0,0.0,0.0,0.0,0.0,0.0,0.0,0.0,0.0,0.0,0.0,0.0,-4.4848,-4.5014,-4.4943,-4.4938,-4.4895,-4.4895,-4.5607,-4.6098,0.0,0.0,0.0,-4.5449,-4.5529,-4.5666,-4.5437,-4.5591,-4.5707,-4.5551,0.0,0.0,0.0,0.0,0.0,0.0,0.0,0.0,0.0,0.0,0.0,0.0,0.0,0.0,-4.9898,-4.9898,-4.9898,-4.9898,-4.9898,-4.9898,-4.9898,-4.9898,-4.9898,-4.9898,-4.9898,-4.9898,-4.9898,-4.9898,-4.9898,-4.9898,-4.9898,-4.9898,0.0,-4.9898,-4.9898,-4.9898,-4.9898,-4.9898,-4.9898,-4.9898,-4.9898,-4.9898,0.0,0.0,0.0,0.0,0.0,0.0,0.0,-2.5404,-2.5376,-2.5313,-2.5361,-2.5351,-2.5203,-2.5332,-2.5697,-2.6443,0.0,0.0,0.0,0.0,0.0,0.0,0.0,0.0,0.0,0.0,0.0,-3.0109,-3.019,-3.0552,-3.1208,0.0,0.0,0.0,0.0,0.0,0.0,0.0,0.0,0.0,0.0,0.0,0.0,0.0,0.0,0.0,0.0,0.0,0.0,0.0,0.0,0.0,0.0,0.0,0.0,0.0,-4.4481,-4.5061,-4.5033,-4.4943,-4.4895,-4.4895,-4.5607,-4.6098,0.0,0.0,0.0,-4.5449,-4.5927,-4.6275,-4.5534,-4.6051,-4.6377,-4.5703,-4.555,0.0,0.0,0.0,0.0,0.0,0.0,0.0,0.0,0.0,0.0,0.0,0.0,0.0,-4.9898,-4.9898,-4.9898,-4.9898,-4.9898,-4.9898,-4.9898,-4.9898,-4.9898,-4.9898,-4.9898,-4.9898,-4.9898,-4.9898,-4.9898,-4.9898,-4.9898,-4.9898,0.0,-4.9898,-4.9898,-4.9898,-4.9898,-4.9898,-4.9898,-4.9898,-4.9898,-4.9898,0.0,0.0,0.0,0.0,0.0,0.0,0.0,-2.5397,-2.5379,-2.5313,-2.5361,-2.538,-2.5293,-2.5312,-2.5427,-2.5657,0.0,0.0,0.0,0.0,0.0,0.0,0.0,0.0,0.0,0.0,-3.0109,-3.0109,-3.0123,-3.0257,-3.0528,-3.1007,-3.1542,0.0,0.0,0.0,0.0,0.0,0.0,0.0,0.0,0.0,0.0,0.0,0.0,0.0,0.0,0.0,0.0,0.0,0.0,0.0,0.0,0.0,0.0,0.0,0.0,0.0,-4.5103,-4.5038,-4.5057,-4.5057,-4.5293,-4.549,-4.5227,0.0,-4.5581,-4.5354,-4.5548,-4.5837,-4.6165,-4.6033,-4.5956,-4.6358,-4.6434,0.0,0.0,0.0,0.0,0.0,0.0,0.0,0.0,0.0,0.0,0.0,0.0,0.0,-4.9898,-4.9898,-4.9898,-4.9898,-4.9898,-4.9898,-4.9898,-4.9898,-4.9898,-4.9898,-4.9898,-4.9898,-4.9898,-4.9898,-4.9898,-4.9898,-4.9898,-4.9898,-4.9898,-4.9898,-4.9898,-4.9898,-4.9898,-4.9898,-4.9898,-4.9898,-4.9898,-4.9898,0.0,0.0,0.0,0.0,0.0,0.0,0.0,-2.5361,-2.5351,-2.5312,-2.5332,-2.5341,-2.5303,-2.5293,-2.5417,-2.5725,0.0,0.0,0.0,0.0,0.0,0.0,0.0,0.0,0.0,-3.0199,-3.0152,-3.0142,-3.0142,-3.0157,-3.0157,-3.0632,-3.1001,-3.1397,-3.2714,0.0,0.0,0.0,0.0,0.0,0.0,0.0,-3.5058,0.0,0.0,0.0,0.0,0.0,0.0,0.0,0.0,0.0,0.0,0.0,0.0,0.0,-4.3937,0.0,0.0,-4.5125,-4.5103,-4.5103,-4.5148,0.0,0.0,0.0,-4.5297,-4.5297,-4.5587,-4.601,-4.6529,-4.6532,-4.6512,-4.6781,-4.6876,0.0,0.0,0.0,0.0,0.0,0.0,0.0,0.0,0.0,0.0,0.0,0.0,0.0,-4.9898,-4.9898,-4.9898,-4.9898,-4.9898,-4.9898,-4.9898,-4.9898,-4.9898,-4.9898,-4.9898,-4.9898,-4.9898,-4.9898,-4.9898,-4.9898,-4.9898,-4.9898,0.0,-4.9898,-4.9898,-4.9898,-4.9898,-4.9898,-4.9898,-4.9898,-4.9898,-4.9898,0.0,0.0,0.0,0.0,0.0,0.0,0.0,0.0,0.0,0.0,-2.5292,-2.5302,-2.5303,-2.5303,-2.56,0.0,0.0,0.0,0.0,0.0,0.0,0.0,0.0,0.0,0.0,-3.0292,-3.0286,-3.0218,-3.0199,-3.0171,-3.0109,-3.0171,-3.0591,-3.1363,-3.229,0.0,0.0,0.0,0.0,0.0,0.0,0.0,0.0,0.0,0.0,0.0,0.0,0.0,0.0,0.0,0.0,0.0,0.0,0.0,0.0,0.0,0.0,0.0,0.0,0.0,0.0,0.0,0.0,0.0,0.0,0.0,0.0,-4.5297,-4.595,-4.6548,-4.6665,-4.7376,-4.7722,-4.7087,-4.699,0.0,0.0,0.0,0.0,0.0,0.0,0.0,0.0,0.0,0.0,0.0,0.0,0.0,-4.9898,-4.9898,-4.9898,-4.9898,-4.9898,-4.9898,-4.9898,-4.9898,-4.9898,-4.9898,-4.9898,-4.9898,-4.9898,-4.9898,-4.9898,0.0,-4.9898,-4.9898,-4.9898,-4.9898,-4.9898,-4.9898,-4.9898,-4.9898,-4.9898,-4.9898,-4.9898,-4.9898,0.0,0.0,0.0,0.0,0.0,0.0,0.0,0.0,0.0,0.0,-2.5351,-2.537,-2.5313,-2.5303,-2.538,0.0,0.0,0.0,0.0,0.0,0.0,0.0,0.0,0.0,0.0,-3.033,-3.0279,-3.0286,-3.024,-3.0194,-3.018,-3.0194,-3.0294,-3.0548,-3.2087,0.0,0.0,0.0,0.0,0.0,0.0,0.0,0.0,0.0,0.0,0.0,-3.7585,-3.869,0.0,0.0,0.0,0.0,0.0,0.0,0.0,0.0,-4.2985,-4.4303,-4.4282,0.0,-4.5235,-4.5235,0.0,0.0,0.0,0.0,0.0,0.0,0.0,0.0,0.0,-4.6916,-4.7242,0.0,0.0,0.0,0.0,0.0,0.0,0.0,0.0,0.0,0.0,0.0,0.0,0.0,0.0,-4.9898,-4.9898,-4.9898,-4.9898,-4.9898,-4.9898,-4.9898,-4.9898,-4.9898,-4.9898,-4.9898,-4.9898,-4.9898,-4.9898,-4.9898,-4.9898,-4.9898,-4.9898,-4.9898,-4.9898,-4.9898,-4.9898,-4.9898,-4.9898,-4.9898,-4.9898,-4.9898,-4.9898,-4.9898,0.0,0.0,0.0,0.0,0.0,0.0,0.0,0.0,0.0,0.0,0.0,0.0,0.0,0.0,0.0,0.0,0.0,0.0,0.0,0.0,0.0,0.0,0.0,0.0,-3.0458,-3.0371,-3.0355,-3.0349,-3.0247,-3.0188,-3.0188,-3.0194,-3.018,-3.0233,-3.1991,0.0,0.0,0.0,0.0,0.0,-3.511,0.0,0.0,0.0,0.0,0.0,-3.7604,-3.8747,0.0,-4.0291,-4.031,-4.031,0.0,0.0,0.0,0.0,-4.2698,-4.4017,-4.4017,-4.4647,-4.5297,-4.5297,-4.5297,-4.5297,0.0,0.0,0.0,0.0,0.0,0.0,0.0,0.0,0.0,0.0,0.0,0.0,0.0,0.0,0.0,0.0,0.0,0.0,0.0,0.0,0.0,0.0,0.0,-4.9898,-4.9898,-4.9898,-4.9898,-4.9898,-4.9898,-4.9898,-4.9898,-4.9898,-4.9898,-4.9898,-4.9898,-4.9898,-4.9898,-4.9898,-4.9898,-4.9898,-4.9898,-4.9898,-4.9898,-4.9898,-4.9898,-4.9898,-4.9898,-4.9898,-4.9898,-4.9898,-4.9871,-4.9816,0.0,0.0,0.0,0.0,0.0,0.0,0.0,0.0,0.0,0.0,0.0,0.0,0.0,0.0,0.0,0.0,0.0,0.0,0.0,0.0,0.0,0.0,0.0,-3.051,-3.0488,-3.0417,-3.0394,-3.0386,-3.026,-3.0188,-3.0207,-3.0199,-3.0319,-3.0577,-3.2057,-3.3272,0.0,0.0,0.0,0.0,-3.5127,0.0,0.0,0.0,0.0,0.0,0.0,0.0,0.0,-4.031,-4.031,-4.031,-4.031,0.0,0.0,0.0,0.0,0.0,-4.3825,-4.4551,-4.5297,-4.5297,-4.5317,-4.5317,0.0,0.0,0.0,0.0,0.0,0.0,0.0,0.0,0.0,0.0,0.0,0.0,0.0,0.0,0.0,0.0,0.0,0.0,0.0,0.0,0.0,0.0,0.0,-4.9898,-4.9898,-4.9898,-4.9898,-4.9898,-4.9898,-4.9898,-4.9898,-4.9898,-4.9898,-4.9898,-4.9898,-4.9898,-4.9898,-4.9898,-4.9898,-4.9898,0.0,0.0,-4.9898,-4.9898,-4.9898,-4.9898,-4.9871,-4.9898,-4.9879,-4.9824,-4.9759,-4.9692,0.0,0.0,0.0,0.0,0.0,0.0,0.0,0.0,0.0,0.0,0.0,0.0,0.0,0.0,0.0,0.0,0.0,0.0,0.0,0.0,0.0,0.0,-3.0559,-3.053,-3.0421,-3.041,-3.0367,-3.0324,-3.0234,-3.0188,-3.0188,-3.0207,-3.0967,-3.2407,-3.2666,-3.3676,-3.5192,-3.5251,-3.5277,-3.528,-3.5209,0.0,0.0,0.0,0.0,0.0,0.0,0.0,0.0,-4.0272,-4.031,-4.031,-4.031,0.0,0.0,0.0,0.0,0.0,-4.2985,-4.4071,-4.5213,-4.5297,-4.5338,-4.5379,0.0,0.0,0.0,0.0,0.0,0.0,0.0,0.0,0.0,0.0,0.0,0.0,0.0,0.0,0.0,0.0,0.0,0.0,0.0,0.0,0.0,0.0,0.0,-4.9898,-4.9898,-4.9898,-4.9898,-4.9898,-4.9898,-4.9898,-4.9898,-4.9898,-4.9898,-4.9898,-4.9898,-4.9898,-4.9898,-4.9898,-4.9898,-4.9898,0.0,-4.9898,-4.9898,-4.9898,-4.9898,-4.9898,-4.9778,-4.9788,-4.9871,-4.9596,-4.9585,-4.9663,0.0,0.0,0.0,0.0,0.0,0.0,0.0,0.0,0.0,0.0,0.0,0.0,0.0,0.0,0.0,0.0,0.0,0.0,0.0,0.0,0.0,-3.0411,-3.05,-3.0519,-3.0458,-3.0433,-3.0386,-3.0343,-3.0292,-3.0234,-3.0207,-3.0672,-3.1303,-3.2096,-3.3063,-3.3921,-3.4683,-3.5143,-3.532,-3.5304,0.0,0.0,0.0,0.0,0.0,0.0,0.0,0.0,0.0,0.0,-4.031,-4.031,-4.031,0.0,0.0,0.0,0.0,0.0,-4.2679,-4.3652,-4.4662,-4.512,-4.5235,-4.5254,0.0,0.0,0.0,0.0,0.0,0.0,0.0,0.0,0.0,0.0,0.0,0.0,0.0,0.0,0.0,0.0,0.0,0.0,0.0,0.0,0.0,0.0,0.0,0.0,-4.9898,-4.9898,-4.9898,-4.9898,-4.9898,-4.9898,-4.9898,-4.9898,-4.9898,-4.9898,-4.9898,-4.9898,-4.9898,-4.9898,-4.9898,-4.9898,0.0,-4.9898,-4.9898,-4.9898,-4.9871,-4.9807,-4.9721,-4.9673,-4.9596,-4.9384,-4.934,-4.9371,0.0,0.0,0.0,0.0,0.0,0.0,0.0,0.0,0.0,0.0,0.0,0.0,0.0,0.0,0.0,0.0,0.0,0.0,0.0,0.0,-2.9764,-3.0367,-3.0458,-3.0479,-3.046,-3.0394,-3.0367,-3.0343,-3.0324,-3.0266,-3.0226,-3.1078,-3.1575,-3.18,-3.3403,-3.4184,-3.44,-3.5096,-3.5364,-3.5315,0.0,0.0,0.0,0.0,0.0,0.0,0.0,0.0,0.0,0.0,0.0,0.0,0.0,0.0,0.0,-4.031,-4.1036,-4.1953,-4.2622,-4.3539,-4.4454,-4.5061,0.0,0.0,-4.5125,0.0,0.0,0.0,0.0,0.0,0.0,0.0,0.0,0.0,0.0,0.0,0.0,0.0,0.0,0.0,0.0,0.0,0.0,0.0,0.0,0.0,0.0,0.0,-4.9898,-4.9898,-4.9898,-4.9898,-4.9898,-4.9898,-4.9898,-4.9898,-4.9898,-4.9898,-4.9898,-4.9898,-4.9898,-4.9898,-4.9898,-4.9898,-4.9871,-4.9871,-4.9879,-4.9824,-4.9759,-4.9692,-4.9604,-4.9464,-4.9289,-4.9211,-4.9179,-4.9113,0.0,0.0,0.0,0.0,0.0,0.0,0.0,0.0,0.0,0.0,0.0,0.0,0.0,0.0,0.0,0.0,0.0,0.0,0.0,0.0,-3.0348,-3.041,-3.0406,-3.0375,-3.0316,-3.0316,-3.0286,-3.0199,-3.0266,-3.0266,-3.0226,-3.104,-3.1872,-3.2727,-3.3667,-3.4592,-3.5397,-3.5393,-3.5398,-3.5398,-3.5315,0.0,0.0,0.0,0.0,0.0,0.0,0.0,0.0,0.0,0.0,0.0,0.0,0.0,-4.0307,-4.0362,-4.1494,-4.2737,-4.2776,-4.398,-4.522,-4.5194,0.0,0.0,-4.5213,0.0,0.0,0.0,0.0,0.0,0.0,0.0,0.0,0.0,0.0,0.0,0.0,0.0,0.0,0.0,0.0,0.0,0.0,0.0,0.0,0.0,0.0,0.0,-4.9898,-4.9898,-4.9898,-4.9898,-4.9898,-4.9898,-4.9898,-4.9898,-4.9898,-4.9898,-4.9898,-4.9898,-4.9898,-4.9898,-4.9898,-4.9879,-4.9778,-4.9807,-4.9898,-4.9548,-4.9555,-4.9663,-4.934,-4.9113,-4.8978,-4.9146,-4.9079,-4.8909,0.0,0.0,0.0,0.0,0.0,0.0,0.0,0.0,0.0,0.0,0.0,0.0,0.0,0.0,0.0,0.0,0.0,0.0,0.0,0.0,-3.0458,-3.0466,-3.0458,-3.0428,-3.0364,-3.0328,-3.0299,-3.0253,-3.0253,-3.0535,-3.1103,-3.1905,-3.2761,-3.3643,-3.4472,-3.5076,-3.5446,-3.546,-3.546,-3.546,-3.5398,-3.5691,0.0,0.0,0.0,0.0,0.0,0.0,0.0,0.0,-4.0379,-4.0398,-4.0362,-4.0362,-4.0457,-4.1048,-4.1626,-4.2335,-4.3331,-4.4038,-4.4628,-4.5123,0.0,0.0,0.0,0.0,0.0,0.0,0.0,0.0,0.0,0.0,0.0,0.0,0.0,0.0,0.0,0.0,0.0,0.0,0.0,0.0,0.0,0.0,0.0,0.0,0.0,0.0,-4.9898,-4.9898,-4.9871,-4.9778,-4.9778,-4.9731,-4.9596,-4.9596,-4.9596,-4.9596,-4.9731,-4.9702,-4.9596,-4.9596,-4.9596,-4.9596,-4.9537,-4.9537,-4.9596,-4.9427,-4.9402,-4.9371,-4.9113,-4.8978,-4.8909,-4.8978,-4.8978,-4.8909,0.0,0.0,0.0,0.0,0.0,0.0,0.0,0.0,0.0,0.0,0.0,0.0,0.0,0.0,0.0,0.0,0.0,0.0,0.0,-3.0141,-3.049,-3.0499,-3.053,-3.05,-3.0428,-3.0375,-3.0348,-3.0292,-3.0502,-3.0956,-3.1623,-3.268,-3.3504,-3.4155,-3.4966,-3.5364,-3.5427,-3.5493,-3.5493,-3.5493,-3.546,-3.5945,0.0,0.0,0.0,0.0,0.0,0.0,0.0,0.0,-4.043,-4.043,-4.0432,-4.0605,-4.0931,-4.1543,-4.2082,-4.2717,-4.3848,-4.4288,-4.4573,0.0,0.0,0.0,0.0,0.0,0.0,0.0,0.0,0.0,0.0,0.0,0.0,0.0,0.0,0.0,0.0,0.0,0.0,0.0,0.0,0.0,0.0,0.0,0.0,0.0,0.0,0.0,0.0,-4.9871,-4.9788,-4.9692,-4.9634,-4.9555,-4.9415,-4.9415,-4.9384,-4.9321,-4.9464,-4.9495,-4.9415,-4.9415,-4.9415,-4.9415,-4.9352,-4.9352,-4.9384,-4.9289,-4.9193,-4.9079,-4.8943,-4.8909,-4.8909,-4.8909,-4.8909,-4.8909,0.0,0.0,0.0,0.0,0.0,0.0,0.0,0.0,0.0,0.0,0.0,0.0,0.0,0.0,0.0,0.0,0.0,0.0,-3.0441,-3.05,-3.051,-3.0499,-3.0559,-3.0568,-3.0509,-3.05,-3.0428,-3.0292,-3.1096,-3.1544,-3.1661,-3.325,-3.4036,-3.4145,-3.5028,-3.5446,-3.5493,-3.5493,-3.5493,-3.5493,-3.5526,-3.5988,-3.6815,0.0,0.0,0.0,0.0,0.0,0.0,0.0,-4.0495,-4.0508,-4.0518,-4.1058,-4.1728,-4.18,-4.2905,-4.4135,-4.4286,-4.4843,0.0,0.0,0.0,0.0,0.0,0.0,0.0,0.0,0.0,0.0,0.0,0.0,0.0,0.0,0.0,0.0,0.0,0.0,0.0,0.0,0.0,0.0,0.0,0.0,0.0,0.0,0.0,0.0,0.0,-4.9759,-4.9692,-4.9692,-4.9506,-4.9415,-4.9415,-4.9415,-4.9321,-4.9197,-4.9197,-4.9276,-4.9415,-4.9415,-4.9415,-4.9384,-4.9244,-4.9276,-4.9384,-4.9027,-4.8909,-4.8909,-4.8909,-4.8909,-4.8909,-4.8909,-4.8909,-4.8909,0.0,0.0,0.0,0.0,0.0,0.0,0.0,0.0,0.0,0.0,0.0,0.0,0.0,0.0,0.0,0.0,0.0,0.0,-3.0375,-3.0519,-3.054,-3.0428,-3.055,-3.0577,-3.0579,-3.052,-3.046,-3.0371,-3.1218,-3.1936,-3.2532,-3.3621,-3.4466,-3.5109,-3.5345,-3.5474,-3.5493,-3.5493,-3.5493,-3.5565,-3.6122,-3.6853,-3.7719,0.0,0.0,0.0,0.0,0.0,0.0,0.0,0.0,0.0,-4.1223,-4.1588,-4.2011,-4.322,-4.3878,-4.4362,-4.4976,0.0,0.0,0.0,0.0,0.0,0.0,0.0,0.0,0.0,0.0,0.0,0.0,0.0,0.0,0.0,0.0,0.0,0.0,0.0,0.0,0.0,0.0,0.0,0.0,0.0,0.0,0.0,0.0,0.0,0.0,-4.9871,-4.9731,-4.9495,-4.9446,-4.9289,-4.9061,-4.9061,-4.9027,-4.8978,-4.8978,-4.9012,-4.9061,-4.9061,-4.9061,-4.9061,-4.9012,-4.8993,-4.9027,-4.8925,-4.8909,-4.8909,-4.8909,-4.8909,-4.8909,-4.8909,-4.8909,-4.8909,0.0,0.0,0.0,0.0,0.0,0.0,0.0,0.0,0.0,0.0,0.0,0.0,0.0,0.0,0.0,0.0,0.0,0.0,0.0,0.0,-3.0559,-3.0491,-3.053,-3.0559,-3.0569,-3.0859,-3.0993,-3.0951,-3.1796,-3.2632,-3.3467,-3.4321,-3.4995,-3.5501,-3.5501,-3.5501,-3.5493,-3.5493,-3.5493,-3.557,-3.6392,-3.7219,-3.8104,0.0,0.0,0.0,0.0,0.0,0.0,0.0,0.0,0.0,0.0,0.0,0.0,-4.3431,-4.3799,-4.3938,-4.4671,0.0,0.0,0.0,0.0,0.0,0.0,0.0,0.0,0.0,0.0,0.0,0.0,0.0,0.0,0.0,0.0,0.0,0.0,0.0,0.0,0.0,0.0,0.0,0.0,0.0,0.0,0.0,0.0,0.0,0.0,-4.9683,-4.9537,-4.9321,-4.9257,-4.9094,-4.8909,-4.8909,-4.8909,-4.8909,-4.8909,-4.8909,-4.8909,-4.8909,-4.8909,-4.8909,-4.8909,-4.8909,-4.8909,-4.8909,-4.8909,-4.8909,-4.8909,-4.8909,-4.8909,-4.8909,-4.8909,-4.8909,0.0,0.0,0.0,0.0,0.0,0.0,0.0,0.0,0.0,0.0,0.0,0.0,0.0,0.0,0.0,0.0,0.0,0.0,0.0,0.0,-3.0595,-3.0586,-3.0511,-3.05,-3.0499,-3.1332,-3.1835,-3.1911,-3.2725,-3.3523,-3.4318,-3.5123,-3.5515,-3.5515,-3.5515,-3.5509,-3.5493,-3.5493,-3.5493,-3.5584,-3.6469,-3.7296,-3.8104,-3.9046,0.0,0.0,0.0,0.0,0.0,0.0,0.0,0.0,-4.1527,-4.1797,-4.197,-4.2835,-4.3092,-4.3194,0.0,0.0,0.0,0.0,0.0,0.0,0.0,0.0,0.0,0.0,0.0,0.0,0.0,0.0,0.0,0.0,0.0,0.0,0.0,0.0,0.0,0.0,0.0,0.0,0.0,0.0,0.0,0.0,0.0,0.0,-4.9721,-4.9402,-4.9262,-4.9211,-4.9046,-4.8909,-4.8909,-4.8909,-4.8909,-4.8909,-4.8909,-4.8909,-4.8909,-4.8909,-4.8909,-4.8909,-4.8909,-4.8909,-4.8909,-4.8909,-4.8909,-4.8909,-4.8909,-4.8909,-4.8909,-4.8909,-4.8909,-4.8909,0.0,0.0,0.0,0.0,0.0,0.0,0.0,0.0,0.0,0.0,0.0,0.0,0.0,0.0,0.0,0.0,0.0,0.0,0.0,0.0,-3.055,-3.0436,-3.0428,-3.0417,-3.0421,-3.1279,-3.2031,-3.2659,-3.3573,-3.4118,-3.4318,-3.5186,-3.556,-3.5515,-3.5515,-3.5509,-3.5493,-3.5493,-3.5493,-3.5641,-3.7123,-3.7834,-3.8161,-3.9662,-4.0335,0.0,0.0,0.0,0.0,0.0,0.0,0.0,-4.1527,-4.1797,-4.197,-4.2835,-4.3386,-4.3732,0.0,0.0,0.0,0.0,0.0,0.0,0.0,0.0,0.0,0.0,0.0,0.0,0.0,0.0,0.0,0.0,0.0,0.0,0.0,0.0,0.0,0.0,0.0,0.0,0.0,0.0,0.0,0.0,0.0,0.0,-4.9871,-4.9673,-4.9525,-4.9352,-4.9211,-4.9046,-4.8909,-4.8909,-4.8909,-4.8909,-4.8909,-4.8909,-4.8909,-4.8909,-4.8909,-4.8909,-4.8909,-4.8909,-4.8909,-4.8909,-4.8909,-4.8909,-4.8909,-4.8909,-4.8909,-4.8909,-4.8909,-4.8909,0.0,0.0,0.0,0.0,0.0,0.0,0.0,0.0,0.0,0.0,0.0,0.0,0.0,0.0,0.0,0.0,0.0,0.0,0.0,0.0,0.0,-3.041,-3.0436,-3.0629,-3.1006,-3.1826,-3.2685,-3.3513,-3.4424,0.0,0.0,0.0,0.0,-3.5515,0.0,-3.5509,-3.5493,-3.5493,-3.5718,-3.6199,-3.7488,-3.8257,-3.8757,-4.0008,-4.0489,-4.0489,-4.0489,0.0,0.0,0.0,0.0,0.0,0.0,0.0,-4.1354,-4.222,-4.2384,-4.2412,0.0,0.0,0.0,0.0,0.0,0.0,0.0,0.0,0.0,0.0,0.0,0.0,0.0,0.0,0.0,0.0,0.0,0.0,0.0,0.0,0.0,0.0,0.0,0.0,0.0,0.0,0.0,0.0,0.0,-4.9712,-4.9788,-4.9476,-4.9289,-4.9289,-4.9146,-4.9012,-4.8909,-4.8909,-4.8909,-4.8909,-4.8909,-4.8909,-4.8909,-4.8909,-4.8909,-4.8909,-4.8909,-4.8909,-4.8909,-4.8909,-4.8909,-4.8909,-4.8909,-4.8909,-4.8909,-4.8909,-4.8909,-4.8909,0.0,0.0,0.0,0.0,0.0,0.0,0.0,0.0,0.0,0.0,0.0,0.0,0.0,0.0,0.0,0.0,0.0,0.0,0.0,0.0,0.0,0.0,-3.0444,-3.0783,-3.1468,-3.241,-3.3263,-3.3981,0.0,0.0,0.0,0.0,0.0,-3.5502,0.0,-3.5495,-3.5512,-3.5661,-3.6103,-3.6796,-3.7815,-3.8661,-3.9392,-4.0181,-4.0489,-4.0489,-4.0489,-4.0489,-4.0489,-4.0489,0.0,0.0,0.0,0.0,-4.0642,-4.1354,-4.1261,-4.1104,0.0,0.0,0.0,0.0,0.0,0.0,0.0,0.0,0.0,0.0,0.0,0.0,0.0,0.0,0.0,0.0,0.0,0.0,0.0,0.0,0.0,0.0,0.0,0.0,0.0,0.0,0.0,0.0,0.0,-4.9506,-4.9721,-4.9244,-4.9046,-4.9211,-4.9012,-4.8909,-4.8909,-4.8909,-4.8909,-4.8909,-4.8909,-4.8909,-4.8909,-4.8909,-4.8909,-4.8909,-4.8909,-4.8909,-4.8909,-4.8909,-4.8909,-4.8909,-4.8909,-4.8909,-4.8909,-4.8909,-4.8909,-4.8909,0.0,0.0,0.0,0.0,0.0,0.0,0.0,0.0,0.0,0.0,0.0,0.0,0.0,0.0,0.0,0.0,0.0,0.0,-3.0598,0.0,0.0,-3.0398,-3.0343,-3.04,-3.0571,-3.2103,-3.2994,-3.3152,0.0,0.0,0.0,0.0,0.0,-3.5502,0.0,0.0,-3.5565,-3.6238,-3.6603,-3.6853,-3.8469,-3.92,-3.9392,-4.0181,-4.0489,-4.0489,-4.0489,-4.0489,-4.0489,-4.0489,-4.0489,0.0,0.0,0.0,-4.0508,-4.0642,-4.1506,0.0,0.0,0.0,0.0,0.0,0.0,0.0,0.0,0.0,0.0,0.0,0.0,0.0,0.0,0.0,0.0,0.0,0.0,0.0,0.0,0.0,0.0,0.0,0.0,0.0,0.0,0.0,0.0,0.0,-4.9506,-4.9537,-4.9871,-4.9415,-4.9244,-4.9384,-4.9061,-4.8909,-4.8909,-4.8909,-4.8909,-4.8909,-4.8909,-4.8909,-4.8909,-4.8909,-4.8909,-4.8909,-4.8909,-4.8909,-4.8909,-4.8909,-4.8909,-4.8909,-4.8909,-4.8909,-4.8909,-4.8909,-4.8909,-4.8909,0.0,0.0,0.0,0.0,0.0,0.0,0.0,0.0,0.0,0.0,0.0,0.0,0.0,0.0,0.0,-3.0576,-3.0606,-3.0569,-3.0488,-3.0466,-3.0444,-3.041,-3.0414,-3.0868,-3.1854,-3.2538,-3.3416,0.0,0.0,0.0,0.0,-3.5495,-3.5495,0.0,0.0,0.0,0.0,0.0,0.0,-3.8219,-3.8988,-3.95,-3.9859,-4.0323,-4.0441,-4.0339,-4.0457,-4.0489,-4.0489,-4.0511,-4.0492,-4.0489,-4.0511,0.0,0.0,0.0,-4.1656,0.0,0.0,0.0,0.0,0.0,0.0,0.0,0.0,0.0,0.0,0.0,0.0,0.0,0.0,0.0,0.0,0.0,0.0,0.0,0.0,0.0,0.0,0.0,0.0,0.0,0.0,0.0,0.0,0.0,-4.9402,-4.9384,-4.9625,-4.9257,-4.9113,-4.9276,-4.9046,-4.8909,-4.8909,-4.8909,-4.8909,-4.8909,-4.8909,-4.8909,-4.8909,-4.8909,-4.8909,-4.8909,-4.8909,-4.8909,-4.8909,-4.8909,-4.8909,-4.8909,-4.8909,-4.8909,-4.8909,-4.8909,-4.8909,-4.8909,0.0,0.0,0.0,0.0,0.0,0.0,0.0,0.0,0.0,0.0,0.0,0.0,0.0,0.0,0.0,0.0,-3.0578,-3.053,-3.0433,-3.0466,-3.0552,-3.0717,-3.0786,-3.1493,-3.2968,-3.3145,0.0,0.0,0.0,0.0,-3.5489,-3.5501,-3.5493,0.0,-3.5493,0.0,0.0,0.0,0.0,0.0,0.0,0.0,0.0,-4.0356,-4.0321,-4.0233,-4.0441,-4.0489,-4.0489,-4.0495,-4.0511,-4.0508,-4.0495,-4.0665,0.0,0.0,0.0,0.0,0.0,0.0,0.0,0.0,0.0,0.0,0.0,0.0,0.0,0.0,0.0,0.0,0.0,0.0,0.0,0.0,0.0,0.0,0.0,0.0,0.0,0.0,0.0,0.0,0.0,0.0,0.0,0.0,-4.9211,-4.9193,-4.9384,-4.9094,-4.9012,-4.9179,-4.9012,-4.8909,-4.8909,-4.8909,-4.8909,-4.8909,-4.8909,-4.8909,-4.8909,-4.8909,-4.8909,-4.8909,-4.8909,-4.8909,-4.8909,-4.8909,-4.8909,-4.8909,-4.8909,-4.8909,-4.8909,-4.8909,-4.8909,-4.8909,0.0,0.0,0.0,0.0,0.0,0.0,0.0,0.0,0.0,0.0,0.0,0.0,-3.0263,-3.043,-3.0509,-3.0509,-3.051,-3.051,-3.0499,-3.0444,-3.0775,-3.1602,-3.1638,0.0,-3.2976,-3.3742,0.0,0.0,0.0,0.0,-3.5507,-3.5507,-3.5493,-3.5493,-3.5493,-3.5949,-3.6757,0.0,0.0,0.0,0.0,0.0,0.0,0.0,0.0,0.0,0.0,0.0,-4.0489,-4.0489,-4.0489,-4.0489,-4.0489,-4.1066,-4.1739,0.0,0.0,0.0,0.0,0.0,0.0,0.0,0.0,0.0,0.0,0.0,0.0,0.0,0.0,0.0,0.0,0.0,0.0,0.0,0.0,0.0,0.0,0.0,0.0,0.0,0.0,0.0,0.0,0.0,0.0,0.0,-4.9046,-4.9061,-4.9384,-4.9094,-4.9012,-4.9179,-4.9012,-4.8909,-4.8909,-4.8909,-4.8909,-4.8909,-4.8909,-4.8909,-4.8909,-4.8909,-4.8909,-4.8909,-4.8909,-4.8909,-4.8909,-4.8909,-4.8909,-4.8909,-4.8909,-4.8909,-4.8909,-4.8909,-4.8909,-4.8909,0.0,0.0,0.0,0.0,0.0,0.0,0.0,0.0,0.0,0.0,0.0,0.0,0.0,-3.049,-3.05,-3.05,-3.0491,-3.0481,-3.0439,-3.0937,-3.1357,-3.1696,-3.2281,-3.2968,-3.3742,-3.4075,0.0,0.0,0.0,-3.546,-3.5493,-3.5412,-3.5681,-3.6276,-3.6276,-3.6738,-3.7584,-3.845,0.0,0.0,0.0,0.0,0.0,0.0,0.0,0.0,0.0,0.0,0.0,-4.0844,-4.078,-4.0489,-4.0495,-4.1107,-4.1992,-4.3056,-4.4134,0.0,0.0,0.0,0.0,0.0,0.0,0.0,0.0,0.0,0.0,0.0,0.0,0.0,0.0,0.0,0.0,0.0,0.0,0.0,0.0,0.0,0.0,0.0,0.0,0.0,0.0,0.0,0.0,0.0,0.0,-4.8959,-4.9061,-4.8978,-4.8943,-4.9012,-4.8943,-4.8909,-4.8909,-4.8909,-4.8909,-4.8909,-4.8909,-4.8909,-4.8909,-4.8909,-4.8909,-4.8909,-4.8909,-4.8909,-4.8909,-4.8909,-4.8909,-4.8909,-4.8909,-4.8909,-4.8909,-4.8909,-4.8909,-4.8909,0.0,0.0,0.0,0.0,0.0,0.0,0.0,0.0,0.0,0.0,0.0,0.0,0.0,0.0,-3.0543,-3.081,-3.108,-3.121,-3.1181,-3.1719,-3.2161,-3.2462,-3.3089,-3.3795,-3.4551,-3.4353,0.0,0.0,0.0,0.0,0.0,-3.533,-3.5806,-3.6709,-3.6978,-3.7608,0.0,0.0,0.0,-4.0476,0.0,0.0,-3.9835,0.0,0.0,0.0,0.0,0.0,0.0,0.0,0.0,0.0,-4.1222,-4.1867,-4.2896,-4.4248,-4.5017,0.0,0.0,0.0,0.0,0.0,0.0,0.0,0.0,0.0,0.0,0.0,0.0,0.0,0.0,0.0,0.0,0.0,0.0,0.0,0.0,0.0,0.0,0.0,0.0,0.0,0.0,0.0,0.0,0.0,0.0,0.0,-4.8909,-4.8909,-4.8909,-4.8909,-4.8909,-4.8909,-4.8909,-4.8909,-4.8909,-4.8909,-4.8909,-4.8909,-4.8909,-4.8909,-4.8909,-4.8909,-4.8909,-4.8909,-4.8909,-4.8909,-4.8909,-4.8909,-4.8909,-4.8909,-4.8909,-4.8909,-4.8909,-4.8909,0.0,0.0,0.0,0.0,0.0,0.0,0.0,0.0,0.0,-3.0196,0.0,0.0,0.0,0.0,0.0,-3.147,-3.2254,-3.2699,-3.2707,-3.2711,-3.3123,-3.3957,-3.4078,-3.4496,-3.5293,-3.4534,0.0,0.0,0.0,0.0,0.0,0.0,-3.5829,-3.6776,-3.7567,-3.8462,-3.9335,0.0,-3.9784,-4.0449,0.0,-3.9791,-3.9804,0.0,0.0,0.0,-4.1034,-4.1418,0.0,0.0,0.0,0.0,0.0,0.0,0.0,0.0,0.0,0.0,0.0,0.0,0.0,0.0,0.0,0.0,0.0,0.0,0.0,0.0,0.0,0.0,0.0,0.0,0.0,0.0,0.0,0.0,0.0,0.0,0.0,0.0,0.0,0.0,0.0,0.0,0.0,0.0,-4.8909,-4.8909,-4.8909,-4.8909,-4.8909,-4.8909,-4.8909,-4.8909,-4.8909,-4.8909,-4.8909,-4.8909,-4.8909,-4.8874,-4.8855,-4.8874,-4.8874,-4.8855,-4.8874,-4.8874,-4.8855,-4.8909,-4.8909,-4.8909,-4.8909,-4.8909,-4.8909,-4.8909,-4.8909,-4.8909,0.0,0.0,0.0,0.0,0.0,0.0,0.0,0.0,0.0,0.0,0.0,0.0,-3.1035,-3.1647,-3.2125,-3.2344,-3.2584,-3.2699,-3.2703,-3.3291,-3.375,-3.3995,-3.4623,-3.5063,-3.5226,-3.5063,-3.5028,0.0,0.0,0.0,0.0,0.0,0.0,0.0,-3.8299,-3.9123,-3.9943,-3.9998,0.0,0.0,-3.9897,-3.9721,0.0,0.0,0.0,0.0,0.0,-4.1769,-4.1851,0.0,-4.253,-4.2604,0.0,0.0,0.0,0.0,0.0,0.0,-4.5213,0.0,0.0,0.0,0.0,0.0,0.0,0.0,0.0,0.0,0.0,0.0,0.0,0.0,0.0,0.0,0.0,0.0,0.0,0.0,0.0,0.0,0.0,0.0,0.0,0.0,0.0,0.0,-4.8909,-4.8909,-4.8909,-4.8909,-4.8909,-4.8909,-4.8909,-4.8909,-4.8909,-4.8909,-4.8785,-4.855,-4.855,-4.8439,-4.8267,-4.8439,-4.8439,-4.8267,-4.8458,-4.8439,-4.8288,-4.8714,-4.8909,-4.8909,-4.8909,-4.8909,-4.8909,-4.8909,-4.875,-4.855,0.0,0.0,0.0,0.0,0.0,0.0,0.0,0.0,0.0,0.0,0.0,0.0,-3.1768,-3.2661,-3.3195,-3.3163,-3.3468,-3.3639,-3.3623,-3.4096,-3.4382,-3.4435,-3.4893,-3.5143,-3.5126,-3.4835,-3.48,0.0,0.0,0.0,0.0,0.0,0.0,0.0,0.0,0.0,0.0,0.0,0.0,0.0,-3.9728,0.0,0.0,-3.9642,-3.9955,0.0,0.0,0.0,-4.2333,-4.2999,-4.3277,0.0,0.0,0.0,0.0,0.0,0.0,0.0,0.0,0.0,0.0,0.0,0.0,0.0,-4.4796,-4.4745,-4.4613,0.0,0.0,0.0,0.0,0.0,0.0,0.0,0.0,0.0,0.0,0.0,0.0,0.0,0.0,0.0,0.0,-4.8909,-4.8909,-4.8909,-4.8909,-4.8909,-4.8909,-4.8909,-4.8909,-4.8909,-4.8909,-4.8909,-4.8909,-4.8909,-4.875,-4.8383,-4.8383,-4.8269,-4.7992,-4.8172,-4.8132,-4.7974,-4.7805,-4.762,-4.7503,-4.7537,-4.7905,-4.8514,-4.8514,-4.8514,-4.8514,-4.8514,-4.8402,-4.8231,0.0,0.0,0.0,0.0,0.0,0.0,0.0,0.0,0.0,0.0,-3.145,-3.1808,-3.253,-3.3456,-3.3989,-3.3938,-3.4565,-3.4964,-3.4889,-3.4908,-3.4927,-3.4983,-3.5001,-3.5001,-3.5001,-3.4299,-3.4318,-3.5134,0.0,0.0,0.0,0.0,0.0,0.0,0.0,0.0,0.0,0.0,0.0,-4.0158,-3.9552,-3.9333,0.0,0.0,-4.0108,0.0,-4.2103,-4.2686,-4.286,-4.3664,-4.4132,0.0,0.0,0.0,0.0,0.0,-4.5125,0.0,0.0,0.0,0.0,0.0,0.0,0.0,-4.4632,-4.4659,-4.4613,-4.417,0.0,0.0,0.0,0.0,0.0,0.0,0.0,0.0,0.0,0.0,0.0,0.0,0.0,0.0,-4.863,-4.8723,-4.8779,-4.8779,-4.8853,-4.8909,-4.8909,-4.8909,-4.8909,-4.8909,-4.8909,-4.8909,-4.8909,-4.8909,-4.8694,-4.8254,-4.8254,-4.8009,-4.7678,-4.7678,-4.7638,-4.7601,-4.6913,-4.6603,-4.6509,-4.5781,-4.6385,-4.7718,-4.7718,-4.7718,-4.7718,-4.7718,-4.7718,-4.7678,-2.9206,0.0,0.0,0.0,0.0,0.0,0.0,0.0,0.0,0.0,-3.2581,-3.3148,-3.3299,-3.4131,-3.4699,-3.4699,-3.4832,-3.4927,-3.4908,-3.4908,-3.4908,-3.4927,-3.4927,-3.4927,-3.4927,-3.4775,-3.5116,-3.597,0.0,0.0,0.0,0.0,0.0,0.0,0.0,0.0,0.0,0.0,0.0,-3.9622,-3.9345,0.0,-3.9275,-3.9771,-4.0276,-4.0877,-4.2046,-4.2754,-4.3153,-4.3437,-4.3638,-4.3825,0.0,0.0,0.0,0.0,0.0,0.0,0.0,0.0,0.0,0.0,0.0,0.0,-4.4914,-4.4919,-4.4895,0.0,0.0,0.0,0.0,0.0,0.0,0.0,0.0,0.0,0.0,0.0,0.0,0.0,0.0,0.0,-4.6977,-4.7553,-4.7924,-4.7924,-4.8537,-4.8909,-4.8909,-4.8909,-4.8909,-4.8909,-4.8909,-4.8909,-4.8909,-4.8909,-4.8416,-4.7427,-4.7201,-4.6582,-4.5662,-4.5685,-4.5503,-4.5269,-4.5382,-4.5269,-4.5036,-4.4874,-4.5314,-4.6079,-4.6079,-4.6079,-4.6079,-4.6079,-4.5906,-4.5667,-2.9344,0.0,0.0,0.0,0.0,0.0,0.0,0.0,0.0,0.0,-3.3537,-3.4107,-3.4107,-3.4563,-3.4848,-3.4848,-3.4849,-3.4849,-3.4849,-3.4849,-3.5,-3.5376,-3.5434,-3.5644,-3.6041,-3.6019,-3.6247,-3.6763,0.0,0.0,0.0,0.0,0.0,0.0,0.0,0.0,0.0,0.0,-3.9806,-3.9939,-3.9258,0.0,-3.9386,-3.979,-4.0472,-4.1324,-4.2231,-4.2832,-4.3196,-4.3069,-4.3353,0.0,0.0,-4.4065,-4.4393,0.0,-4.4495,-4.4486,0.0,0.0,0.0,-4.4712,0.0,0.0,0.0,-4.4796,-4.4796,0.0,0.0,0.0,0.0,0.0,0.0,0.0,0.0,0.0,0.0,0.0,0.0,0.0,0.0,0.0,-4.6494,-4.6865,-4.7107,-4.7107,-4.7478,-4.7701,-4.7701,-4.7701,-4.7701,-4.7701,-4.7701,-4.7701,-4.7701,-4.7701,-4.7272,-4.6415,-4.6264,-4.5733,-4.4863,-4.4845,-4.4778,-4.4589,-4.4366,-4.4223,-4.4036,-4.3625,-4.3655,-4.4032,-4.4786,-4.5093,-4.5093,-4.5093,-4.4993,-4.4845,-2.9455,0.0,0.0,0.0,0.0,0.0,0.0,0.0,0.0,-3.3406,-3.4167,-3.4623,-3.4623,0.0,0.0,0.0,-3.4958,-3.5052,0.0,0.0,-3.5396,-3.6073,-3.6155,-3.6478,-3.7137,-3.7092,-3.7209,-3.7489,0.0,0.0,0.0,0.0,0.0,0.0,0.0,0.0,0.0,0.0,0.0,-4.0067,0.0,-3.9252,-3.9717,-4.0092,-4.0751,-4.1607,-4.2364,-4.2806,-4.3013,-4.2788,-4.3123,-4.366,-4.3526,-4.366,0.0,0.0,0.0,0.0,0.0,0.0,0.0,0.0,0.0,-4.4745,0.0,0.0,0.0,0.0,0.0,0.0,0.0,0.0,0.0,0.0,0.0,0.0,0.0,0.0,0.0,0.0,0.0,0.0,-4.6062,-4.6211,-4.6359,-4.6494,-4.6527,-4.6527,-4.6494,-4.6494,-4.6494,-4.6494,-4.6494,-4.6494,-4.6494,-4.6442,-4.6059,-4.5423,-4.5328,-4.4925,-4.4228,-4.4161,-4.4178,-4.4125,-4.3536,-4.3268,-4.3233,-4.2555,-4.2287,-4.2412,-4.3679,-4.4178,-4.4178,-4.4178,-4.4178,-4.4178,-3.021,-3.0087,0.0,0.0,0.0,0.0,0.0,0.0,0.0,0.0,0.0,0.0,0.0,0.0,0.0,0.0,0.0,0.0,-3.6118,0.0,0.0,-3.6774,-3.6846,-3.6906,-3.6929,-3.6977,-3.7399,-3.8193,0.0,0.0,0.0,0.0,0.0,0.0,-3.9305,0.0,0.0,0.0,-3.9073,0.0,-3.9399,-3.9922,0.0,-4.1142,-4.1312,-4.1239,-4.2083,-4.2369,-4.2432,0.0,-4.2939,-4.3321,0.0,-4.3646,-4.3744,0.0,0.0,0.0,0.0,0.0,0.0,0.0,-4.4659,0.0,0.0,0.0,-4.477,-4.477,0.0,0.0,0.0,0.0,0.0,0.0,0.0,0.0,0.0,0.0,0.0,0.0,0.0,0.0,0.0,-4.5115,-4.581,-4.6438,-4.6559,-4.6541,-4.6494,-4.6494,-4.6494,-4.6494,-4.6494,-4.6494,-4.6494,-4.6202,-4.5657,-4.4888,-4.4414,-4.3743,-4.2904,-4.266,-4.2555,-4.2555,-4.2465,-4.243,-4.2412,-4.2323,-4.2287,-4.2305,-4.2483,-4.2555,-4.2555,-4.2555,-4.2555,-4.2555,-3.083,0.0,0.0,0.0,0.0,0.0,0.0,0.0,0.0,0.0,0.0,0.0,0.0,0.0,0.0,0.0,0.0,-3.6119,0.0,0.0,0.0,0.0,0.0,0.0,-3.8219,-3.8219,-3.8439,-3.894,-3.8864,0.0,0.0,0.0,0.0,0.0,-3.9129,0.0,-3.9192,0.0,0.0,0.0,0.0,0.0,0.0,-4.1441,-4.1515,-4.1841,-4.2162,-4.2287,-4.2328,0.0,-4.2844,0.0,0.0,0.0,0.0,0.0,0.0,0.0,0.0,0.0,0.0,0.0,0.0,0.0,-4.4613,0.0,-4.4693,0.0,0.0,0.0,0.0,0.0,0.0,0.0,-4.4325,0.0,0.0,0.0,0.0,0.0,0.0,0.0,0.0,0.0,0.0,-4.5026,-4.4962,-4.4897,-4.4831,-4.4798,-4.4798,-4.4798,-4.4981,-4.5045,-4.5045,-4.4911,-4.4494,-4.3869,-4.3615,-4.315,-4.2454,-4.2351,-4.2287,-4.2287,-4.2287,-4.2287,-4.2287,-4.2287,-4.2287,-4.2287,-4.2287,-4.2287,-4.2287,-4.2287,-4.2287,-4.2287,-3.1692,0.0,0.0,0.0,0.0,0.0,0.0,0.0,0.0,0.0,0.0,0.0,-3.5449,-3.5653,0.0,0.0,-3.6214,-3.6372,0.0,0.0,-3.7014,0.0,0.0,0.0,0.0,0.0,-3.9129,-3.9245,-3.9183,0.0,0.0,0.0,0.0,0.0,0.0,-3.8844,-3.8902,0.0,0.0,-4.0495,-4.0577,-4.1307,-4.2312,-4.1676,-4.1787,-4.2287,-4.2287,-4.2287,-4.2328,-4.2391,-4.2711,0.0,-4.2652,0.0,0.0,0.0,0.0,0.0,-4.4109,0.0,0.0,0.0,0.0,0.0,0.0,0.0,0.0,0.0,0.0,0.0,0.0,0.0,0.0,0.0,0.0,-4.4467,0.0,0.0,0.0,0.0,0.0,0.0,0.0,0.0,-4.4289,-4.4371,-4.4193,-4.4011,-4.3944,-4.3842,-4.3716,-4.3495,-4.3763,-4.3892,-4.3892,-4.3892,-4.3697,-4.3304,-4.3142,-4.2844,-4.2391,-4.2328,-4.2287,-4.2287,-4.2287,-4.2287,-4.2287,-4.2287,-4.2287,-4.2287,-4.2287,-4.2287,-4.2287,-4.2287,-4.2287,-4.2328,-3.3045,-3.2552,0.0,0.0,0.0,0.0,0.0,0.0,0.0,0.0,0.0,0.0,0.0,0.0,0.0,0.0,0.0,-3.6921,-3.7506,0.0,-3.7736,0.0,0.0,-3.8658,0.0,0.0,-3.8979,-3.8939,-3.8997,-3.8997,0.0,0.0,0.0,0.0,0.0,-3.8615,-3.8585,-3.8419,-3.8679,-3.9319,-4.0041,-4.0798,-4.1589,0.0,-4.2269,-4.2287,-4.2287,0.0,0.0,-4.2595,-4.2711,0.0,0.0,0.0,0.0,0.0,0.0,0.0,0.0,0.0,0.0,-4.4393,0.0,0.0,0.0,0.0,-4.4685,0.0,0.0,0.0,0.0,0.0,0.0,-4.349,0.0,0.0,0.0,0.0,0.0,0.0,0.0,0.0,0.0,-4.4373,-4.4662,-4.5301,-4.5111,-4.4909,-4.4773,-4.4437,-4.3962,-4.3233,-4.3461,-4.3612,-4.3612,-4.3612,-4.3579,-4.3597,-4.2995,-4.2711,-4.2673,-4.2432,-4.2287,-4.2287,-4.2287,-4.2287,-4.2287,-4.2287,-4.2287,-4.2287,-4.2287,-4.2287,-4.2287,-4.2287,-4.2287,-4.2328,0.0,0.0,0.0,0.0,0.0,0.0,0.0,-3.5286,0.0,0.0,0.0,0.0,0.0,-3.6061,-3.6162,0.0,0.0,-3.6803,-3.7542,-3.7578,0.0,0.0,0.0,-3.8615,0.0,0.0,-3.8881,-3.891,-3.8921,-3.8921,0.0,0.0,0.0,0.0,0.0,-3.8572,0.0,0.0,0.0,0.0,0.0,-4.163,-4.2294,0.0,-4.225,-4.1833,-4.2172,-4.2287,0.0,-4.2391,-4.2555,-4.2673,-4.2613,-4.2824,-4.2995,-4.2939,-4.2995,-4.3178,0.0,0.0,-4.3334,-4.3999,0.0,0.0,0.0,0.0,0.0,0.0,0.0,0.0,0.0,0.0,0.0,-4.4139,0.0,0.0,0.0,0.0,0.0,0.0,0.0,0.0,0.0,0.0,0.0,-4.5376,-4.5634,-4.5674,-4.537,-4.5203,-4.4687,-4.3697,-4.3907,-4.3904,-4.3597,-4.3579,-4.3579,-4.3597,-4.3214,-4.2902,-4.2711,-4.2432,-4.2287,-4.2287,-4.2287,-4.2287,-4.2287,-4.2287,-4.2287,-4.2287,-4.2287,-4.2287,-4.2287,-4.2287,-4.2287,-4.2328,-3.4557,0.0,0.0,0.0,0.0,0.0,0.0,0.0,0.0,0.0,-3.5988,0.0,-3.6227,0.0,-3.5993,0.0,-3.6399,-3.6586,-3.7506,-3.7451,0.0,-3.7946,-3.8216,0.0,0.0,0.0,0.0,-3.8603,-3.8773,-3.8851,0.0,0.0,0.0,0.0,0.0,0.0,0.0,0.0,-3.9297,0.0,0.0,-4.1666,0.0,0.0,-4.2152,-4.1949,0.0,-4.2287,-4.2287,-4.2287,-4.2432,-4.2534,-4.2351,-4.2552,-4.2824,-4.2613,-4.275,-4.2976,-4.305,-4.2921,0.0,-4.3579,-4.3579,0.0,-4.414,0.0,-4.4277,0.0,0.0,0.0,0.0,0.0,0.0,0.0,-4.4515,0.0,0.0,-4.444,0.0,0.0,0.0,0.0,0.0,0.0,-4.5212,-4.545,-4.5649,-4.5621,0.0,-4.5147,-4.4515,-4.3505,-4.3645,-4.3597,-4.3303,-4.3391,-4.3495,-4.3597,-4.3339,-4.3087,-4.2882,-4.2573,-4.2391,-4.2287,-4.2287,-4.2287,-4.2287,-4.2287,-4.2287,-4.2287,-4.2287,-4.2287,-4.2287,-4.2287,-4.245,-4.2631,0.0,0.0,0.0,0.0,-3.5782,0.0,0.0,0.0,-3.705,0.0,-3.7064,-3.6872,-3.6312,-3.5882,-3.583,-3.634,-3.5994,0.0,-3.7377,-3.7094,0.0,0.0,-3.7469,-3.7321,-3.69,0.0,0.0,0.0,0.0,-3.8762,-3.8707,0.0,0.0,0.0,-3.878,0.0,-3.7935,-3.8726,-3.9177,-3.9493,-4.0909,-4.0978,-4.0365,-4.1158,-4.1969,-4.2634,-4.2391,-4.2287,-4.2287,-4.2287,-4.2287,-4.2287,-4.2287,-4.2287,-4.2287,-4.2287,-4.2287,-4.2369,-4.2595,-4.2673,-4.2788,-4.3196,-4.3267,0.0,0.0,0.0,-4.3855,0.0,0.0,0.0,0.0,0.0,0.0,0.0,0.0,0.0,0.0,0.0,0.0,0.0,0.0,0.0,0.0,-4.4449,-4.4776,-4.5544,-4.5217,0.0,0.0,-4.4381,-4.3595,-4.2783,-4.2765,-4.2709,-4.2711,-4.3032,-4.3286,-4.3597,-4.3339,-4.3214,-4.3196,-4.2882,-4.2573,-4.2328,-4.2328,-4.2328,-4.2287,-4.2287,-4.2287,-4.2287,-4.2287,-4.2287,-4.2287,-4.2287,-4.267,-4.3087,-3.5972,-3.656,-3.7112,0.0,-3.7218,-3.7237,0.0,0.0,0.0,0.0,-3.6649,-3.6305,-3.5565,-3.5161,-3.5224,-3.5881,-3.5588,0.0,0.0,0.0,0.0,-3.6706,-3.7228,-3.7321,-3.69,-3.7721,0.0,-3.8101,0.0,0.0,-3.8707,0.0,0.0,0.0,0.0,0.0,-3.9041,-3.984,-4.0418,-4.0831,-4.1088,-4.1207,0.0,0.0,-4.1794,-4.2436,-4.2127,-4.2145,-4.2287,-4.2287,-4.2287,-4.2287,-4.2287,-4.2287,-4.2287,-4.2287,-4.2287,-4.2328,-4.2391,-4.2391,-4.2494,-4.2828,-4.2922,-4.3032,0.0,0.0,0.0,0.0,0.0,0.0,0.0,0.0,0.0,0.0,0.0,0.0,0.0,0.0,0.0,-4.4487,0.0,0.0,0.0,-4.5031,-4.5405,-4.5511,-4.5979,0.0,0.0,0.0,-4.4663,-4.3632,-4.3409,-4.3122,-4.2711,-4.2788,-4.2995,-4.3304,-4.3232,-4.3214,-4.3214,-4.3123,-4.2882,-4.2595,-4.2595,-4.2494,-4.2287,-4.2287,-4.2287,-4.2287,-4.2287,-4.2287,-4.2287,-4.2287,-4.2534,-4.2788,-3.6567,0.0,0.0,-3.7484,0.0,0.0,-3.7358,0.0,0.0,-3.6464,-3.6281,0.0,-3.5191,-3.4706,-3.4691,-3.5287,-3.5102,0.0,-3.6113,0.0,0.0,-3.6155,-3.6364,-3.6364,-3.6147,-3.6773,0.0,-3.7487,0.0,0.0,-3.8533,0.0,0.0,0.0,0.0,-3.9328,0.0,-4.02,-4.0784,-4.1121,-4.0882,0.0,0.0,-4.0877,-4.1233,-4.1839,-4.164,-4.1874,-4.2287,-4.2287,-4.2287,-4.2287,-4.2287,-4.2287,-4.2287,-4.2287,-4.2287,-4.2287,-4.2287,-4.2287,-4.2351,-4.2555,-4.2577,-4.2693,-4.3014,-4.3087,-4.3142,0.0,-4.3303,-4.3373,0.0,0.0,0.0,0.0,0.0,0.0,0.0,0.0,0.0,0.0,-4.4468,0.0,0.0,-4.4899,-4.5133,-4.5076,-4.5387,0.0,0.0,0.0,-4.427,-4.3609,-4.3318,-4.3001,-4.2534,-4.2655,-4.2808,-4.2995,-4.2995,-4.305,-4.3214,-4.3214,-4.3032,-4.2711,-4.2711,-4.2534,-4.2287,-4.2287,-4.2287,-4.2287,-4.2287,-4.2351,-4.2454,-4.2454,-4.2652,-4.292,0.0,0.0,0.0,0.0,0.0,0.0,0.0,-3.7283,0.0,-3.6036,0.0,-3.5603,-3.4925,-3.4399,-3.425,-3.4643,0.0,-3.4975,-3.562,-3.5357,-3.5328,-3.562,-3.5357,-3.5224,-3.5224,-3.5593,0.0,0.0,0.0,0.0,0.0,0.0,0.0,0.0,0.0,0.0,0.0,-4.0397,-4.0843,-4.098,-4.0591,-4.0403,-4.0332,-4.0394,-4.0734,-4.1192,-4.1255,-4.1657,-4.2205,-4.2205,-4.2246,-4.2246,-4.2246,-4.2287,-4.2287,-4.2287,-4.2287,-4.2287,-4.2287,-4.2287,-4.2287,-4.2287,-4.2287,-4.2351,-4.2595,-4.2634,-4.2711,-4.3013,-4.3087,-4.3123,-4.3196,0.0,0.0,0.0,0.0,0.0,0.0,0.0,0.0,0.0,0.0,0.0,0.0,0.0,0.0,0.0,0.0,0.0,0.0,0.0,-4.3196,-4.3123,-4.2884,-4.2616,-4.2351,-4.2616,-4.2714,-4.2711,-4.2711,-4.2882,-4.3214,-4.3214,-4.3032,-4.275,-4.2711,-4.2534,-4.2287,-4.2287,-4.2328,-4.2351,-4.2351,-4.2534,-4.275,-4.275,-4.2976,-4.3196,0.0,0.0,0.0,0.0,0.0,-3.6274,-3.5839,-3.5942,-3.5856,-3.5232,-3.5065,-3.48,-3.4317,-3.4134,-3.425,-3.4643,-3.4691,0.0,0.0,0.0,0.0,-3.4897,-3.5085,-3.5224,-3.5224,-3.5593,-3.6036,0.0,0.0,0.0,0.0,0.0,0.0,0.0,0.0,0.0,-4.1178,-4.206,0.0,-4.1034,-4.1233,-4.0894,-4.0342,-4.0829,-4.1133,-4.1255,-4.1453,-4.1604,-4.1736,-4.1736,-4.1849,-4.1977,-4.1977,-4.2103,-4.2287,-4.2287,-4.2287,-4.2287,-4.2287,-4.2287,-4.2287,-4.2287,-4.2287,-4.2328,-4.2369,-4.2351,-4.2391,-4.245,-4.245,-4.2552,-4.275,0.0,0.0,0.0,0.0,0.0,0.0,0.0,0.0,0.0,0.0,-4.4229,0.0,0.0,0.0,0.0,0.0,0.0,0.0,0.0,-4.3124,0.0,-4.2534,-4.2454,0.0,0.0,-4.2494,-4.2711,-4.2711,-4.2882,-4.3214,-4.3214,-4.316,-4.3087,-4.2826,-4.2534,-4.2287,-4.2287,-4.2432,-4.2634,-4.2634,-4.2844,-4.3123,-4.3123,-4.3286,-4.3495,0.0,0.0,0.0,0.0,0.0,0.0,0.0,-3.4958,0.0,-3.4988,-3.4941,-3.4816,-3.4577,-3.4284,-3.4201,-3.4349,-3.4399,-3.4399,-3.4399,-3.4529,-3.4578,-3.4399,-3.4529,0.0,-3.461,-3.48,-3.5323,-3.6113,0.0,0.0,0.0,0.0,0.0,0.0,0.0,-4.1052,0.0,0.0,0.0,-4.1248,-4.1216,-4.0937,-4.0642,-4.0949,-4.1041,-4.1041,-4.1198,-4.1244,-4.129,-4.1515,-4.1675,-4.1762,-4.1892,-4.1977,-4.2103,-4.2246,-4.2287,-4.2287,-4.2287,-4.2287,-4.2287,-4.2287,-4.2287,-4.2287,-4.2287,-4.2287,-4.2287,-4.2287,-4.2287,-4.2391,-4.2634,-4.3087,0.0,0.0,0.0,0.0,0.0,0.0,0.0,0.0,0.0,0.0,0.0,0.0,0.0,0.0,0.0,0.0,0.0,0.0,-4.3124,0.0,0.0,0.0,-4.2494,0.0,-4.2555,-4.2494,-4.2494,-4.2652,-4.2957,-4.2957,-4.2957,-4.292,-4.2788,-4.2534,-4.2328,-4.2472,-4.2555,-4.2711,-4.2864,-4.305,-4.3214,-4.3375,-4.3495,-4.3597,0.0,-3.5932,0.0,0.0,-3.5407,0.0,-3.4937,-3.4578,-3.4447,-3.4785,-3.4949,-3.5032,-3.5032,-3.4742,-3.457,-3.457,-3.4424,-3.4327,-3.4327,-3.4182,-3.4101,-3.4101,-3.4101,-3.4101,-3.4101,-3.4101,-3.4545,0.0,0.0,0.0,0.0,0.0,0.0,0.0,0.0,0.0,0.0,0.0,-4.1338,-4.122,-4.0995,-4.0888,-4.0888,-4.0888,-4.0888,-4.0888,-4.0888,-4.0888,-4.0982,-4.1335,-4.1471,-4.1542,-4.1701,-4.1788,-4.1892,-4.2145,-4.2187,-4.2246,-4.2287,-4.2287,-4.2287,-4.2287,-4.2287,-4.2287,-4.2287,-4.2287,-4.2287,-4.2287,-4.2287,-4.2391,-4.2634,-4.292,0.0,0.0,0.0,0.0,0.0,0.0,0.0,0.0,0.0,0.0,-4.3828,0.0,0.0,0.0,0.0,0.0,-4.3818,0.0,0.0,0.0,0.0,-4.2693,-4.2472,0.0,-4.2577,-4.2391,-4.2328,-4.2432,-4.2711,-4.2634,-4.2634,-4.2711,-4.2634,-4.2494,-4.2328,-4.2595,-4.275,-4.2826,-4.3142,-4.3339,-4.341,-4.3597,-4.3697,-4.3697,0.0,0.0,0.0,0.0,0.0,0.0,-3.558,-3.5312,-3.4897,-3.4266,-3.4769,-3.5175,-3.5175,-3.574,-3.6092,-3.6092,-3.5477,-3.5072,-3.5072,-3.4473,-3.4101,-3.4101,-3.4101,-3.4101,-3.4101,-3.4101,-3.4382,0.0,0.0,-3.7361,0.0,0.0,0.0,0.0,0.0,0.0,0.0,-4.0533,-4.0737,-4.0436,-4.0776,-4.0888,-4.0888,-4.0888,-4.0888,-4.0888,-4.0888,-4.0888,-4.0935,-4.0965,-4.1088,-4.1255,-4.1255,-4.1453,-4.1692,-4.1892,-4.1934,-4.1977,-4.2228,-4.2287,-4.2287,-4.2287,-4.2287,-4.2287,-4.2287,-4.2287,-4.2287,-4.2287,-4.2287,-4.2391,-4.2634,-4.275,-4.2844,0.0,0.0,0.0,0.0,0.0,0.0,0.0,0.0,0.0,0.0,-4.3942,0.0,0.0,-4.3999,0.0,0.0,0.0,0.0,-4.2711,-4.2711,-4.2826,-4.3123,-4.2591,-4.2454,-4.2673,-4.2432,-4.2432,-4.2711,-4.2472,-4.2454,-4.2673,-4.2432,-4.2328,-4.2328,-4.2595,-4.2882,-4.3196,-4.3461,-4.373,-4.3942,-4.3955,-4.3955,-4.3955,0.0,0.0,0.0,0.0,0.0,0.0,0.0,-3.5833,-3.5752,-3.5461,-3.5671,-3.5849,-3.5849,-3.6125,-3.6303,-3.6303,-3.6027,-3.5849,-3.5849,-3.5153,-3.4748,-3.4748,-3.4327,-3.4101,-3.4101,-3.4101,-3.4333,0.0,0.0,0.0,0.0,0.0,0.0,0.0,0.0,-3.959,-3.9067,-4.0092,-4.0451,-4.0355,-4.0745,-4.0888,-4.0888,-4.0888,-4.0888,-4.0888,-4.0888,-4.0888,-4.0888,-4.0888,-4.0965,-4.1041,-4.1163,-4.1255,-4.1408,-4.1631,-4.1719,-4.1719,-4.1866,-4.1866,-4.1909,-4.2019,-4.2061,-4.2103,-4.2287,-4.2287,-4.2287,-4.2287,-4.2287,-4.2328,-4.2432,-4.2595,-4.2673,-4.267,0.0,0.0,0.0,0.0,0.0,0.0,0.0,0.0,0.0,0.0,0.0,0.0,0.0,0.0,0.0,0.0,0.0,-4.2995,0.0,-4.2613,-4.292,-4.2512,-4.2351,-4.2454,-4.2351,-4.2369,-4.2472,-4.2369,-4.2369,-4.2454,-4.2369,-4.2391,-4.2573,-4.2882,-4.3178,-4.3461,-4.373,-4.391,-4.4005,-4.4005,-4.4005,-4.4005,-3.3698,0.0,-3.471,0.0,-3.5255,-3.5619,-3.6053,-3.6291,-3.6551,-3.6902,-3.6918,-3.6837,-3.6627,-3.6805,-3.6918,-3.6918,-3.6724,-3.661,-3.661,-3.5914,-3.5412,-3.5185,-3.4683,0.0,-3.4101,-3.4101,-3.4284,-3.4593,-3.5958,0.0,0.0,0.0,0.0,0.0,-3.8381,-3.8505,-3.8238,-3.9547,-4.007,-4.0121,-4.068,-4.0888,-4.0888,-4.0888,-4.0888,-4.0888,-4.0888,-4.0888,-4.0888,-4.0888,-4.0888,-4.0918,-4.1088,-4.1117,-4.1163,-4.1408,-4.1498,-4.1498,-4.156,-4.1604,-4.1648,-4.1849,-4.1874,-4.1977,-4.2246,-4.2287,-4.2287,-4.2287,-4.2287,-4.2287,-4.2287,-4.2454,-4.2534,-4.2432,0.0,0.0,0.0,-4.2351,0.0,0.0,-4.2975,-4.316,-4.3069,-4.3649,0.0,0.0,0.0,0.0,0.0,0.0,0.0,0.0,0.0,0.0,-4.2711,-4.2432,-4.2287,-4.2287,-4.2287,-4.2287,-4.2287,-4.2287,-4.2287,-4.2287,-4.2391,-4.2494,-4.2595,-4.305,-4.3304,-4.3495,-4.3763,-4.3923,-4.4005,-4.4005,-4.4005,-4.4005,-3.4743,-3.5419,-3.5889,-3.5403,-3.5648,-3.6091,-3.6702,-3.6798,-3.7183,-3.8222,-3.8375,-3.81,-3.7388,-3.7954,-3.8375,-3.8375,-3.7728,-3.7307,-3.7307,-3.6675,-3.5963,0.0,0.0,-3.4829,-3.4117,-3.4101,-3.4101,-3.4101,0.0,0.0,-3.6233,0.0,-3.7424,-3.609,-3.7619,-3.756,-3.6453,-3.8698,-3.961,-3.9662,-4.0549,-4.0888,-4.0888,-4.0888,-4.0888,-4.0888,-4.0888,-4.0888,-4.0888,-4.0888,-4.0888,-4.0888,-4.0871,-4.0871,-4.0918,-4.1163,-4.1192,-4.1255,-4.1515,-4.1604,-4.1648,-4.1849,-4.1874,-4.1977,-4.2246,-4.2287,-4.2287,-4.2287,-4.2287,-4.2287,-4.2287,-4.2287,-4.2391,-4.2634,0.0,0.0,0.0,-4.2472,0.0,-4.2673,-4.2995,-4.3087,-4.275,-4.3249,0.0,0.0,0.0,0.0,0.0,0.0,0.0,-4.2711,-4.2711,0.0,-4.2711,-4.2432,-4.2287,-4.2287,-4.2287,-4.2287,-4.2287,-4.2287,-4.2287,-4.2328,-4.2555,-4.2534,-4.2369,-4.2938,-4.3196,-4.3232,-4.3495,-4.3763,-4.4005,-4.4005,-4.4005,-4.4005,-3.3007,-3.3789,-3.4522,-3.485,-3.5462,-3.6222,-3.7076,-3.7419,-3.7687,-3.7985,-3.8262,-3.8238,-3.7753,-3.8133,-3.8391,0.0,-3.8197,-3.8051,0.0,-3.7388,-3.6886,-3.6643,-3.5704,-3.5072,-3.4845,-3.436,-3.4101,-3.4101,0.0,0.0,0.0,-3.6231,-3.6006,-3.4758,-3.5756,-3.6206,-3.6421,-3.7854,-3.8883,-3.9662,-4.0271,-4.0648,-4.0888,-4.0888,-4.0888,-4.0888,-4.0888,-4.0888,-4.0888,-4.0888,-4.0888,-4.0888,-4.0888,-4.0888,-4.0918,-4.0965,-4.1012,-4.0995,-4.1105,-4.1105,-4.1198,-4.1391,-4.1569,-4.1762,-4.1977,-4.2145,-4.2287,-4.2287,-4.2287,-4.2287,-4.2287,-4.2287,-4.2328,-4.2432,-4.2369,0.0,-4.2432,0.0,-4.2652,-4.2806,-4.3178,-4.3268,-4.2882,-4.325,0.0,0.0,0.0,0.0,0.0,0.0,0.0,0.0,-4.2652,0.0,-4.2711,-4.2432,-4.2287,-4.2287,-4.2287,-4.2287,-4.2287,-4.2287,-4.2287,-4.2287,-4.2391,-4.2494,-4.2613,-4.2788,-4.2995,-4.3196,-4.3304,-4.3375,-4.3426,-4.3426,-4.3563,-4.3697,-3.2933,-3.3554,-3.4259,-3.4726,-3.5368,-3.6075,-3.6798,-3.7298,-3.761,-3.7711,-3.7902,-3.796,-3.7711,-3.7902,0.0,-3.8391,-3.8391,-3.8391,-3.8391,-3.7987,-3.7598,-3.7323,-3.6465,-3.5736,-3.5185,-3.4732,0.0,-3.4101,-3.4366,-3.4561,-3.4561,-3.5054,-3.484,-3.4133,-3.4862,-3.5445,-3.5999,-3.7508,-3.8569,-3.9293,-4.0152,-4.0697,-4.0888,-4.0888,-4.0888,-4.0888,-4.0888,-4.0888,-4.0888,-4.0888,-4.0888,-4.0888,-4.0888,-4.0888,-4.0888,-4.0888,-4.0888,-4.0888,-4.0888,-4.0888,-4.0965,-4.1272,-4.1453,-4.1648,-4.1831,-4.2103,-4.2287,-4.2145,-4.2246,-4.2287,-4.2287,-4.2287,-4.2287,-4.2287,-4.2287,-4.2328,-4.2346,0.0,-4.2709,0.0,0.0,0.0,0.0,-4.3069,-4.3105,0.0,0.0,0.0,0.0,0.0,-4.2882,-4.2862,-4.249,-4.2391,-4.2534,-4.2391,-4.2287,-4.2287,-4.2287,-4.2287,-4.2287,-4.2287,-4.2287,-4.2328,-4.2391,-4.2494,-4.2573,-4.2673,-4.2826,-4.2995,-4.2995,-4.3087,-4.3214,-4.3214,-4.3356,-4.3597,-3.4016,-3.4476,-3.481,-3.481,-3.5285,-3.5752,-3.6133,-3.66,-3.7044,-3.7298,-3.7417,-3.7417,-3.7358,-3.7417,-3.7653,-3.8278,0.0,0.0,-3.8391,-3.8391,-3.81,-3.742,-3.7355,-3.6691,-3.5347,-3.5234,-3.4829,-3.4101,-3.4101,-3.4101,-3.4101,-3.4101,-3.4101,-3.4133,-3.4813,-3.5137,-3.5318,-3.7468,-3.8439,-3.864,-4.0089,-4.0703,-4.0802,-4.0802,-4.0836,-4.0888,-4.0888,-4.0888,-4.0888,-4.0888,-4.0888,-4.0888,-4.0888,-4.0888,-4.0888,-4.0888,-4.0888,-4.0888,-4.0888,-4.0888,-4.1012,-4.1426,-4.156,-4.1648,-4.1849,-4.2061,-4.2187,-4.1977,-4.2103,-4.2287,-4.2287,-4.2287,-4.2287,-4.2287,-4.2287,-4.2346,-4.2463,-4.2503,-4.2606,0.0,0.0,0.0,-4.2711,-4.2711,-4.2577,0.0,0.0,0.0,0.0,0.0,-4.2755,-4.2239,-4.2144,-4.2126,-4.2126,-4.2126,-4.2126,-4.2126,-4.2126,-4.2126,-4.2126,-4.2126,-4.2126,-4.2167,-4.2393,-4.2372,-4.2167,-4.2393,-4.2528,-4.2582,-4.2582,-4.2828,-4.3123,-4.3123,-4.3286,-4.3545,0.0,0.0,-3.4274,-3.4274,-3.4743,-3.535,-3.607,-3.6336,-3.6538,-3.7044,-3.7254,-3.7314,-3.7105,-3.7254,-3.7476,-3.7594,-3.7886,-3.8148,-3.8391,-3.8391,-3.8327,-3.8149,-3.7614,-3.7161,-3.6821,-3.5736,-3.4829,-3.4101,-3.4101,-3.4101,-3.4101,-3.4101,-3.4101,-3.4101,-3.4279,-3.4651,-3.5253,-3.5801,-3.6636,-3.7702,-3.8066,-3.8908,-3.9974,-3.9974,-4.0353,-4.0888,-4.0888,-4.0888,-4.0888,-4.0888,-4.0888,-4.0888,-4.0888,-4.0888,-4.0888,-4.0888,-4.0888,-4.0888,-4.0888,-4.0888,-4.0935,-4.1059,-4.118,-4.1346,-4.1587,-4.1736,-4.1762,-4.1892,-4.1977,-4.2061,-4.2246,-4.2287,-4.2287,-4.2287,-4.2405,-4.2445,-4.2503,-4.2667,-4.2804,0.0,-4.29,-4.2882,-4.2631,-4.2631,-4.2397,0.0,0.0,-4.1479,-4.0867,-4.098,-4.1139,-4.1359,-4.0788,-4.0485,-4.0485,-4.0485,-4.0485,-4.0485,-4.0485,-4.0485,-4.0485,-4.0485,-4.0485,-4.0467,-4.0545,-4.0545,-4.0467,-4.0545,-4.0924,-4.1479,-4.1479,-4.1895,-4.2512,-4.2512,-4.2691,-4.2884,-3.3326,-3.3507,-3.377,-3.377,-3.4153,-3.4677,-3.5139,-3.5672,-3.6085,-3.6352,-3.6769,-3.6952,-3.6816,-3.6907,-3.7074,-3.721,-3.7492,-3.7828,-3.8148,-3.8205,-3.8262,-3.8391,-3.8019,-3.7663,-3.7323,-3.6562,-3.5655,-3.4586,-3.4262,-3.4101,-3.4101,-3.4101,-3.4101,-3.4101,-3.4101,-3.4311,-3.4751,-3.5228,-3.5926,-3.6753,-3.7446,-3.8218,-3.8985,-3.9152,-3.9457,-3.9836,-3.9836,-3.9836,-3.9888,-4.0233,-4.0336,-4.0405,-4.0767,-4.0888,-4.0888,-4.0888,-4.0888,-4.0888,-4.0888,-4.0888,-4.0918,-4.0995,-4.1226,-4.1408,-4.1408,-4.1498,-4.1648,-4.1719,-4.1849,-4.1977,-4.2246,-4.2287,-4.2287,-4.2287,-4.2405,-4.2503,-4.2503,-4.2667,-4.2727,-4.2685,-4.2745,-4.2544,-4.197,-4.1895,-4.1611,-4.0899,-4.0827,0.0,-4.0199,-3.9857,-3.9962,-4.0538,-4.0146,-3.9914,-3.9914,-3.9914,-3.9914,-3.9914,-3.9914,-3.9914,-3.9914,-3.9914,-3.9914,-3.9914,-3.9914,-3.9914,-3.9914,-3.9914,-4.0164,-4.0556,-4.0556,-4.0824,-4.1199,-4.1199,-4.1611,-4.2168,-3.3326,-3.3326,-3.3326,-3.3326,-3.3701,-3.4016,-3.4085,-3.4876,-3.5479,-3.5559,-3.6022,-3.6367,-3.6367,-3.6429,-3.6616,-3.6877,-3.715,-3.7417,-3.7828,-3.7828,-3.7943,-3.8221,-3.8278,-3.8044,-3.7429,-3.7316,-3.661,-3.5185,-3.4554,-3.4214,-3.4101,-3.4101,-3.4101,-3.4101,-3.4101,-3.4101,-3.4133,-3.5136,-3.5597,-3.5745,-3.7074,-3.7695,-3.7938,-3.8242,-3.8446,-3.8594,-3.8594,-3.8594,-3.8681,-3.9319,-3.9526,-3.9646,-4.0319,-4.0526,-4.0526,-4.0526,-4.0526,-4.0578,-4.0819,-4.0888,-4.0918,-4.1117,-4.1318,-4.1408,-4.1209,-4.1318,-4.1515,-4.1604,-4.1719,-4.1934,-4.2246,-4.2287,-4.2287,-4.2346,-4.2445,-4.2503,-4.2503,0.0,-4.239,-4.2324,-4.2177,-4.1779,-4.1002,-4.0913,-4.0592,-3.9807,-3.9736,-3.97,-3.9575,-3.8968,-3.8915,-3.9539,-3.9557,-3.9557,-3.9557,-3.9557,-3.9557,-3.9557,-3.9557,-3.9557,-3.9557,-3.9557,-3.9557,-3.9557,-3.9557,-3.9557,-3.9557,-3.9557,-3.9629,-3.9736,-3.9736,-3.9807,-3.9914,-3.9914,-4.0497,-4.1319,-3.3326,-3.3326,-3.3326,-3.3326,-3.3382,-3.3577,-3.4016,-3.4206,-3.4476,-3.4942,-3.5479,-3.5816,-3.5816,-3.6226,-3.6492,-3.6554,-3.6616,-3.6892,-3.7417,-3.7476,-3.7476,-3.7535,-3.7828,-3.7895,-3.7783,-3.7447,-3.661,-3.5185,-3.5072,-3.47,-3.4101,-3.4101,-3.4101,-3.4101,-3.4101,-3.4101,-3.4101,-3.4264,-3.4562,-3.4872,-3.5133,-3.5944,-3.7104,-3.7132,-3.7785,-3.8594,-3.8594,-3.8594,-3.8612,-3.8715,-3.8767,-3.8784,-3.8905,-3.8957,-3.8957,-3.8957,-3.8957,-3.9232,-4.0526,-4.0888,-4.0935,-4.0918,-4.0965,-4.1012,-4.0965,-4.0965,-4.1105,-4.1515,-4.1648,-4.178,-4.2205,-4.2287,-4.2346,-4.2445,-4.2508,-4.257,-4.257,0.0,-4.1564,-4.1504,-4.0796,-4.0235,-4.011,-4.011,-3.9789,-3.904,-3.8986,-3.8683,-3.7987,-3.7844,-3.7826,-3.7933,-3.7951,-3.7951,-3.7951,-3.7951,-3.7951,-3.7951,-3.7951,-3.7951,-3.7951,-3.7951,-3.7951,-3.7951,-3.7951,-3.7951,-3.7951,-3.7951,-3.8362,-3.8986,-3.8986,-3.9361,-3.9914,-3.9914,-4.0024,-4.017,-3.3326,-3.3326,-3.3326,-3.3326,-3.3326,-3.3382,-3.3632,-3.3879,-3.4206,-3.4409,-3.5219,-3.5608,-3.5285,-3.6022,-3.6352,-3.6085,-3.6352,-3.6616,-3.6892,-3.7089,-3.7254,-3.7417,-3.7711,-3.8001,-3.8148,-3.7623,-3.6999,-3.6335,-3.5558,-3.5007,-3.4667,-3.4279,-3.4101,-3.4101,-3.4101,-3.4101,-3.4101,-3.4101,-3.4201,-3.4399,-3.4594,-3.5129,-3.5726,-3.5912,-3.6315,-3.6803,-3.6983,-3.709,-3.7202,-3.7809,-3.7991,-3.806,-3.8456,-3.8594,-3.8594,-3.8594,-3.887,-3.9336,-4.0043,-4.056,-4.0888,-4.0888,-4.0888,-4.0888,-4.0888,-4.0888,-4.1012,-4.1515,-4.1604,-4.1736,-4.2205,-4.2287,-4.2328,-4.2463,-4.2149,-4.1902,-4.1902,-4.1202,-4.0661,-4.0545,-4.0185,-3.9753,-3.9361,-3.9325,-3.9004,-3.8201,-3.8148,-3.7987,-3.7612,-3.7577,-3.7577,-3.7577,-3.7577,-3.7577,-3.7577,-3.7577,-3.7577,-3.7577,-3.7577,-3.7577,-3.7577,-3.7577,-3.7577,-3.7577,-3.7577,-3.7577,-3.7577,-3.7577,-3.7809,-3.8148,-3.8148,-3.8362,-3.8665,-3.8665,-3.8933,-3.9325,-3.3326,-3.3326,-3.3326,-3.3326,-3.3326,-3.3326,-3.3326,-3.3632,-3.3879,-3.3879,-3.4758,-3.5139,-3.4743,-3.5559,-3.6022,-3.5752,-3.6085,-3.6367,-3.6492,-3.6754,-3.6984,-3.7178,-3.7594,-3.796,-3.8278,-3.7801,-3.7485,-3.7323,-3.6222,-3.5509,-3.5169,-3.4603,-3.4262,-3.4101,-3.4101,-3.4101,-3.4101,-3.4101,-3.4101,-3.4151,-3.4448,-3.4611,-3.4739,-3.5008,-3.5131,-3.5224,-3.5543,-3.5722,-3.5912,-3.6818,-3.7172,-3.7301,-3.7887,-3.806,-3.806,-3.806,-3.8594,-3.9215,-3.9388,-3.9888,-4.0353,-4.0353,-4.0353,-4.0353,-4.0353,-4.0353,-4.0493,-4.0884,-4.099,-4.1147,-4.1611,-4.1693,-4.1734,-4.189,0.0,-4.1038,-4.1038,-4.0318,-3.9779,-3.9664,-3.9486,-3.9147,-3.8594,-3.8522,-3.8255,-3.763,-3.7577,-3.7577,-3.7577,-3.7577,-3.7577,-3.7577,-3.7577,-3.7577,-3.7577,-3.7577,-3.7577,-3.7577,-3.7577,-3.7577,-3.7577,-3.7577,-3.7577,-3.7577,-3.7577,-3.7577,-3.7577,-3.7577,-3.7577,-3.7577,-3.7577,-3.7577,-3.7577,-3.7577,-3.7987,-3.8522,-3.3326,-3.3326,-3.3326,-3.3326,-3.3326,-3.3326,-3.3326,-3.3312,-3.3382,-3.3382,-3.3825,-3.4206,-3.4138,-3.4677,-3.5219,-3.5688,-3.5752,-3.5958,-3.6492,-3.6492,-3.6554,-3.6554,-3.7134,-3.7594,-3.7943,-3.8214,-3.7987,-3.7323,-3.7226,-3.6481,-3.5185,-3.5121,-3.4748,-3.4101,-3.4101,-3.4101,-3.4101,-3.4101,-3.4101,-3.4101,-3.4151,-3.4349,-3.4691,-3.4739,-3.4913,-3.5224,-3.5224,-3.5498,-3.5827,-3.5895,-3.6131,-3.6404,-3.6456,-3.6473,-3.6473,-3.6473,-3.7025,-3.7801,-3.8491,-3.8715,-3.8767,-3.8767,-3.8767,-3.8767,-3.8767,-3.8767,-3.8856,-3.9138,-3.9181,-3.9336,-3.9717,-3.9797,-3.9917,-4.0208,0.0,0.0,-4.0175,-3.9494,-3.8956,-3.8879,-3.8219,-3.7737,-3.7684,-3.7684,-3.7648,-3.7577,-3.7577,-3.7577,-3.7577,-3.7577,-3.7577,-3.7577,-3.7577,-3.7577,-3.7577,-3.7577,-3.7577,-3.7577,-3.7577,-3.7577,-3.7577,-3.7577,-3.7577,-3.7577,-3.7577,-3.7577,-3.7577,-3.7577,-3.7577,-3.7577,-3.7577,-3.7577,-3.7577,-3.7577,-3.763,-3.7684,-3.3326,-3.3326,-3.3326,-3.3326,-3.3326,-3.3326,-3.3326,-3.3326,-3.3326,-3.3326,-3.377,-3.3948,-3.3632,-3.4356,-3.4942,-3.5219,-3.5494,-3.5958,-3.6492,-3.6492,-3.6616,-3.6816,-3.7044,-3.727,-3.7578,-3.7902,-3.7946,-3.7673,-3.7406,-3.7048,-3.6481,-3.559,-3.5024,-3.4748,-3.4295,-3.4101,-3.4101,-3.4101,-3.4101,-3.4101,-3.4101,-3.4201,-3.4349,-3.4349,-3.4399,-3.4578,-3.4818,-3.5008,-3.5148,-3.5362,-3.5498,-3.5677,-3.5898,-3.581,-3.5677,-3.5898,-3.6337,-3.6818,-3.7094,-3.787,-3.8594,-3.8594,-3.8594,-3.8594,-3.8594,-3.8594,-3.8684,-3.8921,-3.9007,-3.9076,-3.9353,-3.9499,-3.966,-3.9893,0.0,-3.9312,-3.9351,-3.8634,-3.806,-3.8058,-3.7773,-3.7577,-3.7577,-3.7577,-3.7577,-3.7577,-3.7577,-3.7577,-3.7577,-3.7577,-3.7577,-3.7577,-3.7577,-3.7577,-3.7577,-3.7577,-3.7577,-3.7577,-3.7577,-3.7577,-3.7577,-3.7577,-3.7577,-3.7577,-3.7577,-3.7577,-3.7577,-3.7577,-3.7577,-3.7577,-3.7577,-3.7577,-3.7577,-3.7577,-3.7577,-3.7577,-3.3326,-3.3326,-3.3326,-3.3326,-3.3326,-3.3326,-3.3326,-3.3326,-3.3326,-3.3326,-3.3632,-3.3701,-3.3312,-3.3977,-3.4491,-3.461,-3.5154,-3.5688,-3.6211,-3.6429,-3.6616,-3.6816,-3.6938,-3.7121,-3.7254,-3.7594,-3.777,-3.777,-3.7479,-3.7239,-3.7109,-3.5916,-3.5344,-3.5153,-3.4424,-3.4101,-3.4101,-3.4101,-3.4101,-3.4101,-3.4101,-3.4101,-3.4101,-3.4101,-3.4101,-3.4151,-3.4399,-3.4594,-3.4739,-3.4961,-3.5085,-3.527,-3.5543,-3.5407,-3.527,-3.5543,-3.5854,-3.6114,-3.6114,-3.6973,-3.787,-3.787,-3.787,-3.787,-3.787,-3.787,-3.7914,-3.8105,-3.8148,-3.8233,-3.8443,-3.8591,-3.8753,-3.8968,-3.862,-3.8378,-3.8491,-3.7989,-3.7577,-3.7577,-3.7577,-3.7577,-3.7577,-3.7577,-3.7577,-3.7577,-3.7577,-3.7577,-3.7577,-3.7577,-3.7577,-3.7577,-3.7577,-3.7577,-3.7577,-3.7577,-3.7577,-3.7577,-3.7577,-3.7577,-3.7577,-3.7577,-3.7577,-3.7577,-3.7577,-3.7577,-3.7577,-3.7577,-3.7577,-3.7577,-3.7577,-3.7577,-3.7577,-3.7577,-3.7577,-3.7577,-3.3326,-3.3326,-3.3326,-3.3326,-3.3326,-3.3326,-3.3326,-3.3326,-3.3326,-3.3326,-3.3326,-3.3326,-3.3326,-3.3326,-3.3507,-3.4085,-3.461,-3.5154,-3.5688,-3.6226,-3.6492,-3.6492,-3.6816,-3.7015,-3.7015,-3.727,-3.7417,-3.7417,-3.7417,-3.7171,-3.6814,-3.6126,-3.5599,-3.5153,-3.4424,-3.4101,-3.4101,-3.4101,-3.4101,-3.4101,-3.4101,-3.4101,-3.4101,-3.4101,-3.4101,-3.4101,-3.4101,-3.4349,-3.4707,-3.4707,-3.4913,-3.5178,-3.5178,-3.5178,-3.5224,-3.5178,-3.5498,-3.5783,-3.5783,-3.6045,-3.6301,-3.6301,-3.6301,-3.6301,-3.6301,-3.6301,-3.6301,-3.6301,-3.6301,-3.6402,-3.6643,-3.6702,-3.6806,-3.722,-3.7297,-3.7372,-3.7594,-3.7577,-3.7577,-3.7577,-3.7577,-3.7577,-3.7577,-3.7577,-3.7577,-3.7577,-3.7577,-3.7577,-3.7577,-3.7577,-3.7577,-3.7577,-3.7577,-3.7577,-3.7577,-3.7577,-3.7577,-3.7577,-3.7577,-3.7577,-3.7577,-3.7577,-3.7577,-3.7577,-3.7577,-3.7577,-3.7577,-3.7577,-3.7577,-3.7577,-3.7577,-3.7577,-3.7577,-3.7577,-3.7577,-3.7577,-3.3326,-3.3326,-3.3326,-3.3326,-3.3326,-3.3326,-3.3326,-3.3326,-3.3326,-3.3326,-3.3326,-3.3326,-3.3326,-3.3326,-3.3507,-3.4085,-3.4288,-3.4758,-3.5623,-3.6226,-3.6492,-3.6492,-3.6631,-3.6616,-3.6616,-3.6984,-3.7105,-3.7105,-3.7314,-3.7365,-3.7186,-3.6029,-3.5435,-3.5291,-3.4096,-3.3658,-3.3797,-3.3797,-3.3949,-3.4101,-3.4101,-3.4101,-3.4101,-3.4101,-3.4101,-3.4101,-3.4101,-3.4201,-3.43,-3.43,-3.4349,-3.4431,-3.4431,-3.4802,-3.5131,-3.4913,-3.5102,-3.5362,-3.5362,-3.5677,-3.6002,-3.6259,-3.6301,-3.6301,-3.6301,-3.6301,-3.6301,-3.6301,-3.6301,-3.6343,-3.6402,-3.6544,-3.6742,-3.6846,-3.7122,-3.7334,-3.7372,-3.7521,-3.7577,-3.7577,-3.7577,-3.7577,-3.7577,-3.7577,-3.7577,-3.7577,-3.7577,-3.7577,-3.7577,-3.7577,-3.7577,-3.7577,-3.7577,-3.7577,-3.7577,-3.7577,-3.7577,-3.7577,-3.7577,-3.7577,-3.7577,-3.7577,-3.7577,-3.7577,-3.7577,-3.7577,-3.7577,-3.7577,-3.7577,-3.7577,-3.7577,-3.7577,-3.7577,-3.7577,-3.7577,-3.7577,-3.3326,-3.3326,-3.3326,-3.3326,-3.3326,-3.3326,-3.3326,-3.3326,-3.3326,-3.3326,-3.3326,-3.3326,-3.3326,-3.3326,-3.3452,-3.377,-3.3948,-3.4543,-3.5623,-3.6022,-3.6289,-3.6492,-3.6492,-3.6492,-3.6492,-3.6693,-3.6816,-3.6816,-3.6952,-3.7134,-3.7222,-3.5854,-3.5266,-3.5331,-3.3925,-3.345,-3.3694,-3.3694,-3.3848,-3.4101,-3.4101,-3.4101,-3.4101,-3.4101,-3.4101,-3.4101,-3.4101,-3.4101,-3.4101,-3.4101,-3.4101,-3.4101,-3.4101,-3.4431,-3.4706,-3.4546,-3.4723,-3.5008,-3.5008,-3.527,-3.5588,-3.581,-3.6071,-3.6301,-3.6301,-3.6301,-3.6301,-3.6301,-3.6301,-3.6301,-3.6301,-3.6444,-3.6602,-3.6702,-3.6886,-3.7066,-3.7182,-3.7297,-3.7392,-3.7484,-3.7484,-3.7503,-3.7577,-3.7577,-3.7577,-3.7577,-3.7577,-3.7577,-3.7577,-3.7577,-3.7577,-3.7577,-3.7577,-3.7577,-3.7577,-3.7577,-3.7577,-3.7577,-3.7577,-3.7577,-3.7577,-3.7577,-3.7577,-3.7577,-3.7577,-3.7577,-3.7577,-3.7577,-3.7577,-3.7577,-3.7577,-3.7577,-3.7577,-3.7577,-3.7577,-3.7577,-3.3326,-3.3326,-3.3326,-3.3326,-3.3326,-3.3326,-3.3326,-3.3326,-3.3326,-3.3326,-3.3326,-3.3326,-3.3326,-3.3326,-3.3326,-3.3326,-3.3756,-3.4543,-3.5479,-3.5623,-3.5879,-3.6429,-3.6352,-3.6367,-3.6429,-3.6492,-3.6492,-3.6492,-3.6492,-3.6693,-3.6923,-3.5568,-3.5086,-3.5275,-3.3934,-3.3461,-3.3658,-3.371,-3.3848,-3.4101,-3.4101,-3.4101,-3.4101,-3.4101,-3.4101,-3.4101,-3.4101,-3.4101,-3.4101,-3.4101,-3.4101,-3.4101,-3.4101,-3.4101,-3.4101,-3.4101,-3.4349,-3.4643,-3.4643,-3.4913,-3.5178,-3.5178,-3.5677,-3.6199,-3.6259,-3.6259,-3.6259,-3.6301,-3.6301,-3.6301,-3.6301,-3.6301,-3.6402,-3.6643,-3.6684,-3.6766,-3.6948,-3.6987,-3.7066,-3.7259,-3.7259,-3.7334,-3.7521,-3.754,-3.7594,-3.7577,-3.7577,-3.7577,-3.7577,-3.7577,-3.7577,-3.7577,-3.7577,-3.7577,-3.7577,-3.7577,-3.7577,-3.7577,-3.7577,-3.7577,-3.7577,-3.7577,-3.7577,-3.7577,-3.7577,-3.7577,-3.7577,-3.7577,-3.7577,-3.7577,-3.7577,-3.7594,-3.7594,-3.7577,-3.7594,-3.7594,-3.3326,-3.3326,-3.3326,-3.3326,-3.3326,-3.3326,-3.3326,-3.3326,-3.3326,-3.3326,-3.3326,-3.3326,-3.3326,-3.3326,-3.3326,-3.3326,-3.3756,-3.4206,-3.4409,-3.481,-3.5285,-3.5816,-3.5479,-3.5415,-3.5879,-3.6289,-3.6492,-3.6492,-3.6492,-3.6554,-3.66,-3.5766,-3.5161,-3.4663,-3.4036,-3.3637,-3.3398,-3.3607,-3.3848,-3.4101,-3.4101,-3.4101,-3.4101,-3.4101,-3.4101,-3.4101,-3.4101,-3.4101,-3.4101,-3.4101,-3.4101,-3.4101,-3.4101,-3.4101,-3.4101,-3.4101,-3.4151,-3.425,-3.425,-3.448,-3.4835,-3.4835,-3.5148,-3.5543,-3.5854,-3.5915,-3.5985,-3.6259,-3.6301,-3.6301,-3.6301,-3.6301,-3.6301,-3.6402,-3.6544,-3.6702,-3.6766,-3.6908,-3.7027,-3.7066,-3.7066,-3.7105,-3.7143,-3.7259,-3.7447,-3.7594,-3.7577,-3.7577,-3.7577,-3.7577,-3.7577,-3.7577,-3.7577,-3.7577,-3.7577,-3.7577,-3.7577,-3.7577,-3.7577,-3.7577,-3.7577,-3.7577,-3.7577,-3.7577,-3.7577,-3.7577,-3.7577,-3.7577,-3.7577,-3.7577,-3.7577,-3.7503,-3.7372,-3.7558,-3.7521,-3.7372,-3.3326,-3.3326,-3.3326,-3.3326,-3.3326,-3.3326,-3.3326,-3.3326,-3.3326,-3.3326,-3.3326,-3.3326,-3.3326,-3.3326,-3.3326,-3.3326,-3.3577,-3.3825,-3.407,-3.4341,-3.4743,-3.5285,-3.5073,-3.5008,-3.5285,-3.5608,-3.5879,-3.6085,-3.6352,-3.6492,-3.6476,-3.5799,-3.5122,-3.4503,-3.3908,-3.356,-3.3309,-3.345,-3.3745,-3.4101,-3.4101,-3.4101,-3.4101,-3.4101,-3.4101,-3.4101,-3.4101,-3.4101,-3.4101,-3.4101,-3.4101,-3.4101,-3.4101,-3.4101,-3.4101,-3.4101,-3.4101,-3.4101,-3.4101,-3.425,-3.4399,-3.4399,-3.4529,-3.4802,-3.5407,-3.5677,-3.5871,-3.6045,-3.6174,-3.6301,-3.6301,-3.6301,-3.6301,-3.6301,-3.6402,-3.6502,-3.6502,-3.6609,-3.6731,-3.6829,-3.6846,-3.6908,-3.7143,-3.7143,-3.7297,-3.7594,-3.7521,-3.7521,-3.7577,-3.7577,-3.7577,-3.7577,-3.7577,-3.7577,-3.7577,-3.7577,-3.7577,-3.7577,-3.7577,-3.7577,-3.7577,-3.7577,-3.7577,-3.7577,-3.7577,-3.7577,-3.7577,-3.7577,-3.754,-3.7447,-3.7447,-3.741,-3.7297,-3.7334,-3.7297,-3.7297,-3.3326,-3.3326,-3.3326,-3.3326,-3.3326,-3.3326,-3.3326,-3.3326,-3.3326,-3.3326,-3.3326,-3.3326,-3.3326,-3.3326,-3.3326,-3.3326,-3.3326,-3.3507,-3.3948,-3.3948,-3.4221,-3.4743,-3.4691,-3.4691,-3.4743,-3.4876,-3.5139,-3.5688,-3.6163,-3.6429,-3.6476,-3.5922,-3.5291,-3.4614,-3.3948,-3.355,-3.3414,-3.3356,-3.3555,-3.3949,-3.3949,-3.4,-3.405,-3.405,-3.405,-3.4101,-3.4101,-3.4101,-3.4101,-3.4101,-3.4101,-3.4101,-3.4101,-3.4101,-3.4101,-3.4101,-3.4101,-3.4101,-3.4101,-3.4101,-3.4101,-3.4101,-3.4101,-3.4234,-3.4849,-3.5316,-3.565,-3.5694,-3.5985,-3.6216,-3.6114,-3.6216,-3.6301,-3.6216,-3.6259,-3.6301,-3.6301,-3.6301,-3.6402,-3.6602,-3.6643,-3.6766,-3.7143,-3.7066,-3.7105,-3.7521,-3.741,-3.7372,-3.7594,-3.7577,-3.7577,-3.7577,-3.7577,-3.7577,-3.7558,-3.7558,-3.754,-3.7503,-3.7503,-3.7521,-3.7558,-3.7503,-3.7503,-3.7503,-3.7503,-3.7503,-3.7503,-3.7503,-3.741,-3.7259,-3.7259,-3.7259,-3.722,-3.7066,-3.7143,-3.7297,-3.3326,-3.3326,-3.3326,-3.3326,-3.3326,-3.3326,-3.3326,-3.3326,-3.3326,-3.3326,-3.3326,-3.3326,-3.3326,-3.3326,-3.3326,-3.3326,-3.3326,-3.3312,-3.3382,-3.3382,-3.3632,-3.4206,-3.377,-3.3701,-3.4206,-3.4677,-3.5139,-3.5688,-3.5752,-3.6022,-3.6492,-3.6399,-3.5999,-3.5382,-3.4907,-3.4379,-3.3818,-3.3439,-3.3346,-3.3398,-3.3398,-3.3555,-3.3745,-3.3745,-3.3899,-3.4101,-3.4101,-3.4101,-3.4101,-3.4101,-3.4101,-3.4101,-3.4101,-3.4101,-3.4101,-3.4101,-3.4101,-3.4101,-3.4101,-3.4101,-3.4101,-3.4101,-3.4101,-3.4151,-3.4234,-3.4578,-3.4913,-3.5224,-3.5588,-3.5766,-3.5407,-3.5854,-3.6216,-3.5898,-3.6131,-3.6301,-3.6301,-3.6301,-3.6301,-3.636,-3.6343,-3.6444,-3.6766,-3.6783,-3.6926,-3.7297,-3.7297,-3.7372,-3.7594,-3.7577,-3.7577,-3.7577,-3.7577,-3.7521,-3.7334,-3.7334,-3.7259,-3.7087,-3.7087,-3.7182,-3.7334,-3.7182,-3.7087,-3.7087,-3.7087,-3.7087,-3.7087,-3.7087,-3.7066,-3.7027,-3.7027,-3.7027,-3.7027,-3.7027,-3.7143,-3.7297,-3.3326,-3.3326,-3.3326,-3.3326,-3.3326,-3.3326,-3.3326,-3.3326,-3.3326,-3.3326,-3.3326,-3.3326,-3.3326,-3.3326,-3.3326,-3.3326,-3.3326,-3.3326,-3.3326,-3.3326,-3.3382,-3.3632,-3.3452,-3.3382,-3.3632,-3.3908,-3.4438,-3.5285,-3.5816,-3.6289,-3.6492,-3.6492,-3.6122,-3.546,-3.5332,-3.4721,-3.392,-3.3732,-3.3496,-3.3309,-3.3309,-3.3346,-3.3503,-3.3658,-3.3745,-3.3899,-3.405,-3.4101,-3.4101,-3.4101,-3.4101,-3.4101,-3.4101,-3.4101,-3.4101,-3.4101,-3.4101,-3.4101,-3.4101,-3.4101,-3.4101,-3.4101,-3.4101,-3.4101,-3.4101,-3.425,-3.4497,-3.4818,-3.5224,-3.5407,-3.5224,-3.5453,-3.5722,-3.5783,-3.5898,-3.6088,-3.6259,-3.6301,-3.6301,-3.6301,-3.6301,-3.6402,-3.6643,-3.6544,-3.665,-3.7105,-3.7044,-3.7066,-3.7241,-3.7241,-3.7241,-3.7241,-3.7241,-3.7203,-3.7143,-3.7143,-3.7105,-3.6987,-3.6886,-3.6965,-3.7143,-3.7027,-3.6987,-3.6987,-3.6987,-3.6987,-3.6987,-3.6987,-3.6948,-3.6846,-3.6846,-3.6748,-3.665,-3.6788,-3.6886,-3.6965]}]]